GFSSW_925_thetae_000.txt.gz
Theta_e
312 313 313 313 314 314 314 315 316 318 319 318 320 320 319 319 319 319 319 318 316 317 322 324 328 330 330 329 325 322 328 328 328 327 326 322 325 327 325 325 324 324 324 324 326
312 313 313 312 313 313 314 315 316 316 316 317 318 319 319 318 320 319 318 318 317 318 317 324 328 330 331 330 329 328 330 328 326 326 326 325 327 328 328 327 326 324 323 322 321
312 312 312 312 312 313 314 314 315 316 317 316 316 317 317 318 318 318 317 319 320 321 319 320 330 331 332 329 329 329 330 327 326 325 324 327 328 327 328 329 326 325 324 324 322
312 312 311 312 313 313 313 314 314 314 314 315 315 315 316 317 319 318 318 319 320 322 321 318 326 332 333 333 328 329 328 327 327 326 327 328 328 329 329 329 328 327 326 322 323
313 313 312 313 311 311 311 312 313 314 313 314 314 314 316 316 316 316 314 313 316 320 321 319 326 329 334 332 329 329 328 328 327 327 327 328 329 330 329 328 328 327 323 322 321
313 313 312 313 313 309 309 309 313 313 314 313 314 313 315 316 313 313 314 314 313 318 320 318 324 326 327 331 331 329 328 328 327 328 328 329 329 326 328 327 325 323 323 321 320
313 313 312 312 312 313 310 310 312 313 313 313 312 313 314 313 311 311 311 312 313 314 319 319 320 328 327 332 330 329 331 330 329 329 329 328 329 328 326 320 320 321 320 320 321
313 314 313 312 311 311 311 311 311 312 312 311 311 313 312 311 311 311 311 312 313 313 316 318 319 324 330 329 331 333 332 334 329 330 329 326 330 327 321 321 321 320 321 322 320
312 313 312 313 312 310 310 311 312 311 311 311 311 311 312 310 311 311 311 311 314 314 314 317 319 325 330 332 334 334 336 333 330 329 328 327 328 323 320 321 322 321 321 321 321
312 312 312 312 311 310 310 312 313 311 311 310 311 311 310 311 311 310 310 310 314 316 318 320 321 328 331 331 338 334 333 331 331 328 324 325 327 324 323 320 322 321 321 321 320
310 311 311 311 311 309 309 311 310 312 310 310 310 309 311 309 311 311 311 311 313 316 320 320 323 327 331 331 329 327 330 332 328 325 325 328 329 324 326 322 322 321 321 321 320
310 311 310 310 311 310 310 313 311 310 312 309 309 309 311 310 312 311 311 312 314 317 319 320 323 325 328 329 330 329 329 330 328 323 324 328 330 328 326 322 321 321 321 321 319
310 310 310 311 311 308 312 313 311 308 310 310 309 310 310 310 313 313 312 312 313 315 319 320 322 324 329 330 332 330 329 328 329 326 325 324 329 327 319 317 316 319 321 320 319
309 309 309 310 308 311 313 311 309 307 310 311 311 309 311 311 312 310 311 311 315 316 318 317 320 327 329 331 330 331 328 328 329 333 335 324 333 328 324 319 318 320 320 319 318
309 308 309 308 312 312 311 309 307 307 318 311 311 309 309 311 311 312 312 311 315 317 315 318 323 323 330 329 328 329 327 329 329 331 331 330 329 328 319 320 319 320 320 319 319
312 309 307 310 311 311 310 308 306 312 316 314 311 312 312 311 311 313 313 311 314 315 315 316 323 322 329 327 328 325 326 326 325 327 334 330 328 328 324 321 319 320 320 319 318
314 309 308 310 312 312 309 308 313 317 312 316 314 313 312 311 310 313 314 314 317 321 320 315 316 328 328 330 323 327 330 337 337 335 334 321 324 326 322 318 319 320 320 319 318
314 312 309 309 310 312 308 311 318 315 315 312 313 313 313 312 312 314 314 313 314 319 317 321 330 328 328 328 327 327 330 331 334 334 330 319 327 324 318 317 317 319 320 319 318
313 310 309 310 311 310 309 315 317 318 313 314 313 315 313 312 312 315 313 312 316 315 319 322 324 324 327 324 325 328 331 325 325 323 327 327 326 323 319 318 317 318 320 320 318
310 308 310 309 311 310 309 317 316 315 312 314 312 313 314 313 315 316 312 311 315 317 319 319 325 324 321 325 320 327 326 329 326 331 331 327 327 326 322 320 317 318 319 320 318
310 312 312 311 311 310 314 315 317 315 314 311 312 312 313 313 316 315 313 315 314 318 318 321 323 319 324 326 327 327 329 329 326 325 329 328 327 321 321 319 319 317 319 319 317
311 317 313 312 315 313 315 315 316 319 315 311 312 312 312 313 315 315 314 318 313 320 321 321 322 327 323 317 321 325 326 326 330 326 323 324 325 318 318 317 316 317 318 318 317
313 316 314 312 318 316 317 317 316 320 317 314 317 316 314 314 317 317 317 314 317 320 323 320 322 326 325 321 316 323 323 327 324 320 324 327 325 316 317 318 316 317 317 317 316
313 320 317 315 316 319 319 318 322 320 318 320 319 319 317 316 316 318 319 320 322 319 321 318 322 322 326 325 323 325 322 324 326 327 325 323 324 320 318 319 317 317 317 317 316
311 318 317 318 317 317 319 320 320 324 322 323 321 320 318 319 321 322 321 322 321 322 322 321 323 322 321 321 322 322 323 320 322 324 325 325 323 322 320 319 319 317 316 316 315
313 314 312 318 317 320 319 321 320 323 321 321 324 320 320 320 320 324 323 324 324 323 323 321 323 317 319 319 320 321 321 323 323 323 322 322 322 318 316 316 315 316 314 315 314
308 307 311 315 314 320 320 322 319 319 319 319 321 320 321 321 320 321 321 322 322 323 324 322 321 321 323 316 317 322 321 320 320 319 320 322 321 316 315 315 316 316 315 315 313

GFSSW_925_thetae_003.txt.gz
Theta_e
313 313 314 314 313 314 314 314 315 318 319 320 321 322 321 320 320 320 321 320 319 317 324 323 323 328 329 330 329 327 330 330 328 329 327 326 326 326 327 327 326 326 326 326 324
313 313 313 313 313 313 313 313 314 315 315 317 319 319 321 319 320 321 320 320 320 322 320 321 324 324 332 331 330 329 329 328 327 327 328 326 326 328 328 328 328 328 326 324 324
313 313 313 312 313 313 314 313 314 314 316 315 316 319 320 320 320 320 319 320 322 322 321 320 322 328 330 331 330 330 330 328 327 327 327 326 327 327 329 330 328 328 327 326 326
313 313 313 312 313 313 313 313 312 313 314 316 315 315 316 318 320 319 319 319 320 322 322 321 320 329 332 332 329 331 328 328 327 327 327 328 327 328 329 329 328 328 328 328 326
313 314 313 313 313 313 313 313 312 312 314 314 314 315 316 318 318 318 314 314 317 321 322 322 320 324 332 330 330 330 328 327 327 327 327 328 328 328 329 329 328 328 327 327 326
313 314 314 313 314 313 312 312 313 312 311 313 313 313 316 317 314 315 316 315 315 319 321 322 321 320 326 330 330 330 329 328 328 328 328 329 329 328 329 329 328 326 323 324 325
313 313 314 312 313 313 314 313 313 309 310 311 313 314 314 314 312 313 313 312 313 314 318 320 320 322 325 329 328 330 331 329 328 328 328 329 330 330 328 328 322 321 321 322 323
313 313 314 313 312 312 312 314 312 311 311 312 311 313 315 311 312 312 312 312 312 313 314 317 320 320 324 327 330 331 333 335 329 329 328 329 333 328 326 322 322 322 323 324 323
314 313 314 313 311 313 311 312 312 312 312 312 312 313 313 311 311 311 312 312 312 314 314 315 319 322 323 330 333 334 337 335 332 329 329 331 330 327 325 322 323 323 323 324 323
314 312 310 311 311 311 310 311 313 313 312 312 312 314 312 312 311 311 311 311 312 313 316 317 320 323 325 330 335 336 336 333 335 329 330 330 329 327 325 325 324 323 324 324 323
313 312 310 310 311 312 310 310 311 312 312 313 312 312 312 311 311 312 311 311 312 313 317 318 322 324 324 325 330 331 334 333 332 329 330 330 328 326 326 326 326 323 324 324 322
313 311 310 310 310 311 311 311 311 311 314 311 311 311 310 311 313 312 311 313 313 315 314 318 322 319 320 323 330 332 333 333 330 327 327 327 328 328 327 328 327 323 324 323 321
311 310 309 309 310 312 312 310 311 309 312 309 311 311 310 310 312 313 312 313 313 314 314 318 319 318 319 321 331 331 334 333 331 329 326 328 331 330 329 325 322 322 323 322 321
310 310 308 310 311 311 311 311 311 309 310 313 312 311 310 311 313 311 312 312 312 314 314 316 316 320 320 325 326 335 330 328 329 331 332 329 331 328 327 322 320 321 323 322 320
311 308 308 309 312 313 311 310 308 308 319 313 313 309 311 311 311 311 311 313 313 314 314 315 318 320 322 323 325 333 330 328 330 332 334 333 333 330 327 325 322 321 323 321 320
312 309 307 310 311 311 310 308 307 312 318 314 312 312 312 312 312 312 311 312 312 313 315 314 316 319 322 324 325 329 331 331 330 331 333 330 332 329 327 325 323 321 322 321 320
313 311 308 310 311 310 307 308 314 318 312 315 314 313 313 313 313 313 313 314 316 317 321 316 314 315 320 323 325 331 333 337 334 335 332 328 331 329 322 321 322 322 321 321 320
315 312 309 310 311 309 308 310 318 315 314 313 313 313 316 312 312 313 314 316 313 314 318 319 320 317 317 325 328 331 332 330 332 332 330 325 329 327 322 321 321 322 321 321 320
314 312 311 309 311 309 310 314 317 317 315 315 315 315 316 312 309 310 313 317 312 313 322 320 321 320 322 327 325 327 335 326 329 328 330 328 327 323 322 321 320 321 321 321 320
311 309 310 311 310 310 311 316 317 316 312 314 316 314 315 314 311 313 314 314 312 311 313 319 324 321 328 326 324 329 328 331 329 331 331 329 328 328 324 323 320 320 322 321 320
310 312 313 311 312 311 313 314 316 316 314 315 313 312 313 312 312 313 314 312 311 313 314 320 320 321 327 329 329 329 332 330 328 328 330 332 329 325 322 321 321 320 321 321 321
312 315 313 311 314 313 314 313 314 316 316 316 311 312 312 311 313 314 313 312 311 313 318 320 322 327 325 321 325 329 330 329 331 330 327 327 327 322 321 321 320 320 320 321 320
314 315 313 311 317 315 313 314 314 316 319 315 314 313 312 313 314 314 314 312 313 314 323 322 325 331 329 324 324 328 326 328 328 326 328 327 327 321 321 321 320 320 320 321 320
313 318 315 313 315 318 316 317 317 316 318 315 315 315 314 314 314 315 316 314 316 314 321 320 323 326 327 326 327 329 328 326 326 328 326 327 325 320 320 321 320 319 319 320 319
312 317 317 318 316 316 318 317 317 321 319 315 320 318 317 315 316 319 315 317 315 319 318 322 325 323 322 323 325 326 327 327 328 328 327 326 325 324 323 321 321 319 319 319 319
313 313 316 319 316 317 317 318 319 318 321 321 324 320 319 318 315 317 317 318 321 320 321 320 326 322 324 322 323 325 325 326 326 327 326 325 326 323 320 319 320 319 319 319 318
311 312 313 317 319 319 320 318 319 317 320 320 322 322 321 319 317 319 318 320 322 322 325 323 325 323 325 322 323 325 324 324 324 323 324 327 325 323 318 318 319 318 318 317 317

GFSSW_925_thetae_006.txt.gz
Theta_e
314 314 314 314 314 314 314 315 316 317 319 323 323 323 323 322 321 321 321 321 322 319 316 320 322 323 327 330 329 329 332 332 330 329 329 326 326 325 326 326 325 324 324 325 323
314 314 313 314 314 313 314 314 315 315 316 317 318 319 320 321 321 322 321 322 323 320 320 319 320 322 325 331 330 330 332 331 327 326 326 326 326 326 327 327 325 325 325 325 324
314 314 314 313 313 313 313 314 315 315 315 316 315 318 320 320 320 320 321 322 323 324 322 321 320 323 326 328 330 331 333 329 326 325 326 326 326 325 326 328 327 326 326 326 326
314 314 314 313 313 314 314 314 314 314 314 315 315 314 318 320 324 320 318 318 320 322 323 322 321 323 329 329 328 332 330 328 328 326 327 327 326 326 325 326 327 326 326 326 325
314 314 314 314 314 314 313 313 314 314 315 314 315 315 316 317 318 318 315 315 317 321 322 322 323 321 325 329 328 330 329 327 327 326 326 326 327 327 326 325 325 325 326 325 325
315 314 314 314 314 314 314 313 313 314 314 313 313 314 316 316 314 315 316 316 316 317 321 321 322 321 320 325 328 329 329 330 328 326 326 327 327 326 326 325 325 326 324 321 321
315 314 313 314 313 314 313 314 314 314 314 314 313 314 315 315 313 313 314 315 314 314 316 319 320 322 321 322 325 328 331 330 329 328 327 326 328 328 326 325 325 324 318 321 322
315 314 313 313 314 312 312 312 313 313 313 312 312 314 314 313 313 313 312 312 312 312 313 315 315 320 322 322 325 330 330 333 330 329 328 326 330 328 326 325 324 320 320 322 322
313 314 313 312 313 312 312 310 311 312 312 312 313 313 312 312 312 312 312 312 312 312 314 313 314 319 322 323 327 330 333 334 333 329 328 327 329 327 326 323 321 319 319 321 321
314 313 314 310 312 311 312 310 311 312 312 313 312 313 312 312 312 311 312 312 312 312 313 316 316 319 321 324 327 328 334 331 334 330 329 329 329 327 326 322 320 320 319 320 320
314 312 313 310 310 312 311 311 312 312 312 312 312 312 312 312 312 311 311 312 312 313 314 315 319 321 320 321 322 325 328 334 330 330 330 329 329 329 326 324 322 321 320 320 319
313 312 312 309 310 311 312 311 312 311 314 312 312 312 312 312 313 312 311 313 313 314 313 315 319 317 317 319 322 324 328 332 329 329 329 330 330 327 325 324 323 322 319 319 318
313 311 311 309 310 311 312 311 310 311 312 311 312 312 312 311 313 313 312 312 313 314 313 315 315 316 316 317 321 324 327 332 332 330 328 327 328 325 324 323 324 323 319 319 318
314 311 309 309 310 311 312 312 311 310 312 312 311 313 312 311 312 311 312 313 313 313 313 314 314 314 317 317 318 323 324 328 331 333 335 325 329 326 325 326 323 320 319 319 317
314 310 309 308 313 312 311 311 311 309 318 313 313 310 311 312 312 311 310 313 314 312 312 315 313 314 315 318 318 322 322 328 330 333 333 329 329 326 326 327 318 317 318 318 316
314 310 308 309 310 311 310 310 308 313 316 315 312 313 314 312 312 311 312 312 312 313 312 312 313 314 315 315 317 319 322 325 333 331 338 334 330 328 325 322 319 318 319 318 316
314 311 308 310 310 310 309 308 313 317 313 316 314 313 312 314 313 312 313 313 313 314 315 314 315 315 314 318 319 322 326 330 335 332 333 327 332 326 321 320 320 319 319 317 316
315 312 309 309 311 309 308 311 316 314 314 313 313 313 316 314 314 313 313 314 312 313 315 315 315 316 314 315 322 324 326 330 338 337 329 326 329 326 320 318 319 319 319 318 317
315 313 310 310 311 308 310 313 315 316 316 316 314 315 316 315 314 313 313 314 312 312 315 321 317 316 315 314 322 324 323 320 334 324 328 326 325 319 318 318 318 319 319 318 317
314 312 311 310 310 309 311 313 314 314 313 314 318 312 315 314 312 312 312 312 313 313 311 313 320 318 319 319 321 324 323 328 333 330 333 328 326 324 320 318 318 319 319 318 317
311 312 312 311 310 311 313 313 313 312 313 315 315 314 313 313 312 310 311 311 312 313 312 313 316 320 318 327 326 330 331 332 333 329 330 329 327 321 320 319 317 318 319 318 317
311 315 312 311 314 314 314 313 313 315 315 316 315 316 311 313 312 311 312 314 312 311 313 314 317 322 322 321 324 328 330 331 331 330 326 326 324 317 318 318 317 316 319 318 317
313 316 313 312 316 315 313 314 313 316 318 317 316 313 312 312 311 311 314 313 312 315 316 316 319 325 323 326 326 330 330 329 328 326 328 324 322 318 316 317 318 316 318 318 317
313 317 315 313 313 316 315 316 314 313 314 315 316 314 313 312 311 317 314 315 315 313 320 321 323 322 330 329 328 331 331 328 327 328 326 324 320 318 318 318 317 316 316 317 317
312 316 315 316 315 315 317 316 316 317 317 317 317 315 316 315 314 313 315 315 316 315 317 317 327 325 323 326 327 328 328 327 327 325 327 324 321 317 317 317 316 315 316 318 317
313 313 315 318 313 315 315 318 317 316 318 320 317 319 319 315 314 315 314 315 314 317 317 318 324 324 323 322 325 327 327 326 326 325 325 325 324 317 316 315 315 315 316 317 316
311 312 313 316 318 318 318 317 318 316 316 316 318 316 321 318 316 314 314 315 318 319 320 322 324 324 322 322 322 324 323 324 325 324 324 326 323 317 317 317 316 315 315 316 315

GFSSW_925_thetae_012.txt.gz
Theta_e
314 314 314 314 314 314 314 314 314 313 315 318 322 324 324 323 323 323 320 320 320 321 319 318 316 317 320 319 325 325 328 329 328 327 326 323 324 322 320 322 323 323 320 321 324
314 314 314 314 314 314 314 314 315 313 311 314 316 319 322 323 323 323 322 321 323 325 322 319 320 320 318 323 324 327 330 330 325 325 325 324 322 322 323 324 325 324 322 321 327
315 314 314 315 314 313 314 314 313 313 312 313 315 315 318 320 321 320 320 322 324 325 323 320 321 320 321 320 324 328 332 327 326 325 323 324 323 321 322 324 323 325 324 321 323
316 315 314 314 314 314 314 312 312 312 313 313 314 314 316 320 319 319 319 321 325 325 324 322 321 321 321 324 322 325 328 328 328 327 327 327 323 324 322 322 322 322 322 322 321
315 316 315 314 315 314 313 313 311 313 313 313 313 314 316 318 318 316 316 318 323 325 324 322 321 321 320 320 321 323 324 326 327 327 327 326 326 324 323 321 320 320 321 320 320
315 315 316 314 314 313 311 313 311 312 312 312 313 314 315 314 312 315 316 316 318 319 320 321 321 319 320 319 319 319 320 323 324 325 326 328 327 323 323 320 320 321 321 319 319
316 315 315 313 313 313 311 313 314 313 312 312 312 312 314 313 312 313 313 315 316 315 316 320 321 321 321 322 319 321 324 324 323 325 327 325 328 328 322 320 321 320 320 319 317
316 315 315 313 311 313 312 313 312 314 312 312 311 313 312 311 311 311 312 312 315 315 314 313 312 314 318 319 319 322 322 326 324 325 326 326 332 326 322 320 321 320 319 318 316
316 316 314 313 311 311 313 312 311 310 312 311 311 312 311 311 312 310 312 312 312 312 313 312 312 315 315 322 322 321 323 322 325 323 327 326 329 325 322 320 321 320 318 317 315
316 316 315 313 312 311 313 312 310 312 312 314 312 313 312 312 311 311 312 312 311 311 311 313 313 313 314 321 323 322 322 320 321 325 326 328 328 326 322 321 320 320 318 312 316
315 316 315 313 313 310 312 310 308 310 313 314 313 312 309 311 311 311 312 311 311 311 312 311 315 315 313 314 317 318 318 318 318 319 321 323 327 326 325 321 320 319 317 312 316
315 315 315 313 313 310 311 308 308 309 312 312 313 311 311 312 313 312 311 311 313 315 311 313 315 313 312 313 316 316 318 320 318 318 320 324 326 326 325 325 323 321 315 314 316
315 315 315 312 312 311 311 311 310 310 310 311 312 312 313 312 313 314 311 311 312 314 313 313 311 311 313 315 317 317 317 316 317 318 318 320 321 323 326 324 323 321 315 316 317
314 315 315 313 311 311 311 310 310 310 310 311 311 313 312 313 314 312 311 312 313 314 312 312 311 312 313 315 315 317 316 318 319 321 322 322 326 324 325 326 323 322 314 316 315
314 314 313 311 307 310 310 310 310 310 300 308 311 310 311 314 313 312 312 312 314 313 312 314 312 313 313 312 314 316 314 315 317 319 320 321 325 324 324 326 326 323 315 316 316
314 314 313 309 309 309 310 310 310 302 302 313 311 312 313 313 313 312 312 312 313 314 313 312 310 312 312 311 311 314 316 317 317 319 322 319 323 323 325 324 324 320 315 316 316
311 314 311 308 311 310 311 308 308 300 308 314 313 312 311 313 313 313 314 314 315 316 314 313 313 311 314 315 313 313 314 316 317 319 320 317 323 321 320 320 322 322 315 315 316
308 314 310 310 311 311 309 308 301 307 311 312 311 312 313 312 313 312 314 313 313 313 315 315 313 313 312 313 314 315 315 315 315 317 317 324 326 324 321 320 319 320 316 315 315
308 313 310 309 311 309 309 309 304 309 313 313 312 314 315 313 313 313 314 312 310 311 313 313 311 311 311 311 312 314 315 313 316 319 322 325 327 325 324 321 315 316 316 316 316
307 312 310 309 310 308 310 308 309 312 314 313 315 313 313 312 313 312 312 310 311 311 309 308 309 310 311 312 312 313 313 316 315 317 321 326 328 330 326 321 316 316 316 316 316
308 312 310 310 308 309 311 310 310 313 313 314 316 318 313 311 311 311 310 310 310 310 310 309 311 313 311 313 314 314 314 315 313 317 327 328 329 322 325 319 318 318 316 315 315
312 310 310 309 312 310 313 311 311 312 312 313 313 315 314 310 311 309 310 309 310 310 311 311 315 314 312 311 314 313 313 314 317 315 320 323 322 314 321 317 319 318 316 314 314
313 313 309 309 313 311 312 312 312 313 314 314 316 315 313 312 312 310 310 309 313 312 313 314 315 316 316 315 314 318 314 315 316 320 323 327 326 314 313 316 316 316 315 314 313
310 313 312 311 312 313 313 313 314 313 313 315 316 315 315 316 311 312 312 312 311 313 314 313 315 316 317 323 318 322 319 316 316 322 320 322 322 319 315 314 314 314 314 314 313
312 315 312 312 313 313 313 314 314 315 313 314 314 316 316 314 311 313 312 311 313 315 314 313 316 313 315 316 318 322 321 321 323 321 320 318 318 317 318 314 314 314 313 313 313
314 315 312 312 312 315 314 316 316 316 316 317 315 316 314 315 312 312 311 313 314 314 313 313 314 314 322 320 319 325 322 323 324 320 319 320 321 317 312 310 313 314 314 314 314
311 311 313 313 313 314 315 315 315 315 314 314 316 317 317 315 313 314 311 313 314 315 315 315 314 322 326 325 326 329 325 324 317 316 317 320 319 312 314 313 313 313 315 315 314

GFSSW_925_thetae_015.txt.gz
Theta_e
315 314 314 314 314 315 314 314 315 315 314 317 320 324 324 324 323 323 321 320 319 318 320 319 317 319 319 318 323 321 327 328 326 325 324 322 324 321 320 320 321 321 321 320 323
316 315 314 313 315 314 314 314 314 315 313 313 317 320 322 323 324 324 322 322 324 325 324 319 319 319 318 321 322 327 329 327 324 322 322 323 323 321 322 321 323 323 321 322 325
316 315 315 314 315 314 314 314 314 313 313 313 314 316 318 322 321 321 321 324 326 326 324 320 320 319 320 319 322 326 330 326 326 324 323 323 323 322 323 322 320 323 323 321 325
317 316 316 315 313 314 314 314 313 313 312 313 314 312 318 320 321 319 321 322 325 326 324 322 320 321 320 322 321 324 325 326 327 326 327 327 324 324 322 320 320 319 321 321 320
317 316 316 315 315 315 314 314 313 313 313 312 313 314 317 317 317 316 317 321 324 326 324 322 321 320 320 319 319 321 322 323 323 326 326 326 327 325 323 320 319 318 318 319 319
317 317 316 315 315 314 314 314 314 313 313 311 312 314 315 311 310 315 316 316 321 325 323 322 321 319 320 319 319 318 319 319 321 323 323 325 326 325 323 320 319 318 319 319 318
316 317 316 314 314 313 313 313 314 313 312 311 311 313 314 312 312 312 313 314 315 319 318 321 321 321 321 322 319 319 321 320 321 321 323 324 326 327 323 321 320 318 318 318 317
315 317 316 315 314 313 312 313 313 315 313 312 311 313 311 310 311 312 312 312 314 315 314 313 320 316 317 318 319 321 320 323 320 321 322 325 326 325 323 323 324 319 317 317 316
314 315 316 316 314 311 312 311 312 311 313 312 311 311 310 309 312 310 311 312 311 313 313 313 312 314 315 320 322 321 321 321 320 321 324 326 327 323 321 321 320 318 317 317 316
314 314 316 316 313 311 310 313 312 311 312 313 312 312 310 311 311 311 311 312 311 310 311 312 314 315 316 319 319 319 321 320 320 322 321 323 324 322 322 322 321 320 320 316 315
314 314 316 316 313 311 312 311 307 308 312 315 313 313 310 311 311 311 311 311 310 310 312 311 315 318 316 314 315 316 318 318 316 317 317 319 320 320 321 321 323 318 318 317 313
310 314 315 316 313 311 312 307 307 308 311 311 312 311 311 311 313 312 311 312 312 313 310 313 313 311 311 311 312 314 316 317 315 316 317 317 318 317 317 318 322 323 320 318 313
309 313 314 315 313 312 311 309 309 309 309 310 311 312 312 312 313 313 311 310 312 313 312 313 312 311 312 312 314 314 315 315 315 313 314 314 314 311 314 317 320 322 321 320 315
306 311 314 315 314 312 311 310 310 310 300 307 311 312 312 312 314 312 311 312 313 314 314 314 313 312 311 312 313 314 313 315 316 316 316 315 315 312 315 316 318 321 322 317 313
305 310 314 314 311 310 309 310 310 305 301 307 310 310 312 313 313 312 312 312 314 313 312 314 312 311 312 312 312 314 313 314 316 318 317 317 319 315 317 319 320 321 320 315 314
306 308 314 311 310 310 309 310 310 301 301 312 310 312 313 313 313 312 313 313 313 315 313 311 310 311 311 311 311 313 314 315 316 316 318 314 316 314 313 319 320 319 320 315 314
306 305 312 309 309 309 310 308 306 301 308 312 312 312 311 312 313 314 313 315 316 317 315 314 314 311 312 312 311 311 314 318 319 320 317 313 316 315 313 314 317 319 319 313 314
306 306 306 310 309 309 309 308 304 306 310 311 311 311 312 311 313 313 314 313 313 313 314 315 315 314 311 312 314 313 313 316 316 316 313 313 318 316 315 314 314 314 315 312 314
306 307 305 310 308 309 310 309 305 306 311 312 312 313 313 312 313 312 312 311 311 310 312 311 312 310 311 311 312 315 316 312 314 314 320 318 318 321 320 319 317 316 314 314 314
306 305 308 310 309 309 310 307 305 310 312 311 312 312 313 311 312 311 310 309 311 309 310 310 311 309 310 310 310 312 311 316 316 317 316 314 321 320 321 319 317 316 314 314 314
306 307 309 309 309 310 312 306 308 312 312 313 312 314 312 311 311 311 309 309 310 310 310 311 308 308 309 312 312 313 313 313 313 312 312 315 313 319 319 318 316 314 313 314 315
307 306 310 309 311 311 312 309 309 313 312 313 313 313 314 310 311 309 309 309 308 310 312 310 312 312 310 311 311 312 312 312 317 309 311 314 317 314 316 314 316 315 316 317 316
309 309 309 309 311 311 311 311 311 313 313 313 314 313 314 311 312 309 309 308 309 310 311 312 314 314 316 314 312 314 313 312 312 314 313 312 310 317 315 315 316 318 315 315 313
310 307 310 310 311 310 312 311 312 311 312 313 314 314 315 314 310 311 311 310 310 310 314 312 314 315 316 318 314 315 314 313 312 313 313 316 314 315 316 315 315 315 315 314 313
308 310 308 310 311 310 309 313 313 315 312 313 315 315 317 314 314 313 312 312 313 314 314 313 313 313 314 314 314 317 315 314 314 313 313 312 318 315 316 315 314 314 313 313 313
311 313 311 310 311 312 311 313 315 313 315 315 316 315 314 318 311 310 311 312 314 315 314 313 312 313 315 315 315 318 316 317 315 314 314 316 319 316 315 313 312 313 313 313 313
305 311 311 311 312 314 315 313 314 315 314 314 315 315 317 316 313 312 311 312 314 315 315 313 313 317 323 322 320 321 317 319 316 317 317 320 318 316 316 312 312 313 314 313 313

GFSSW_925_thetae_018.txt.gz
Theta_e
319 316 314 314 314 315 315 315 314 315 315 315 318 321 323 324 323 322 320 320 319 319 320 320 317 318 319 318 322 318 326 326 324 323 323 321 322 320 319 319 319 320 321 320 321
319 319 315 315 314 314 315 314 314 314 314 313 315 319 322 323 324 324 322 322 324 324 323 319 318 318 317 321 321 326 326 325 322 320 322 321 322 320 322 321 321 321 321 322 323
318 318 318 314 315 315 315 314 314 314 314 313 313 315 319 321 321 321 321 324 325 326 325 320 319 318 319 319 321 325 327 324 325 324 324 323 322 321 323 323 320 321 319 319 325
318 318 318 316 315 313 314 314 314 314 313 313 314 313 317 320 319 318 321 322 325 325 323 321 319 318 319 321 319 323 322 325 326 325 326 327 324 324 321 320 318 318 318 318 320
316 316 319 317 315 315 315 314 314 314 313 312 313 314 317 317 318 316 317 321 323 325 323 322 320 318 319 318 318 321 321 322 321 321 322 323 325 325 324 321 319 320 318 317 317
317 315 316 317 315 315 314 313 314 314 313 313 313 314 314 312 310 314 315 317 324 324 322 322 321 318 319 319 318 317 318 318 318 320 320 323 323 322 322 321 319 318 318 317 316
314 316 315 316 315 314 312 313 312 313 312 311 312 313 313 312 311 312 312 315 318 323 319 322 319 320 320 321 318 319 320 318 318 319 319 321 323 323 321 320 321 319 318 317 317
313 314 314 316 316 314 312 313 312 313 313 312 312 312 309 310 311 312 312 312 314 316 313 315 321 319 318 315 318 321 320 321 317 318 319 322 322 321 318 318 321 321 318 317 318
310 311 315 315 316 314 311 311 312 311 314 312 312 310 309 309 311 310 311 311 313 314 314 313 314 313 314 317 318 320 320 320 319 317 320 323 323 323 319 319 319 318 316 316 315
308 310 313 314 316 314 310 312 312 310 311 312 311 311 309 310 311 311 311 311 310 309 310 312 314 314 316 318 317 318 320 320 320 317 316 318 320 319 317 318 319 318 317 316 315
307 308 310 314 315 314 311 312 308 308 311 314 313 312 310 310 311 311 311 311 310 310 312 310 315 318 316 314 315 316 317 317 316 315 316 317 316 316 314 315 317 319 320 317 316
306 307 307 312 316 313 311 309 308 307 309 310 312 311 311 311 312 311 311 312 312 313 310 313 313 312 312 312 314 315 315 315 312 313 314 314 315 314 312 314 316 318 319 318 318
305 306 307 311 316 313 311 309 309 309 307 308 310 313 312 312 313 313 310 310 312 312 312 313 312 311 312 312 313 312 313 313 312 312 312 312 312 308 308 309 311 312 313 316 318
305 306 307 308 315 312 311 309 309 308 299 305 311 311 312 312 313 312 311 311 311 313 313 313 312 311 311 312 311 314 311 313 314 314 314 310 313 310 310 310 307 309 312 316 318
306 306 307 308 313 311 311 310 309 304 303 307 311 310 312 312 312 311 311 312 314 312 313 314 312 312 313 312 310 312 311 313 314 315 315 314 317 311 311 312 311 312 313 315 317
305 307 307 305 310 311 310 310 308 301 302 311 310 313 315 313 313 311 313 312 312 314 313 311 309 311 310 310 310 311 311 313 314 315 317 313 313 312 309 309 309 311 312 315 316
306 306 304 304 311 310 310 307 308 306 308 311 311 311 312 313 313 313 314 316 316 316 316 314 314 312 311 311 310 312 316 317 318 318 315 311 313 312 309 309 309 311 312 314 313
305 305 304 305 309 309 309 304 307 307 309 310 309 310 311 310 312 313 314 315 314 314 315 315 309 312 311 312 311 312 313 316 317 312 311 311 315 312 310 310 310 310 310 313 311
305 306 305 307 309 309 308 309 308 306 310 311 311 311 312 312 312 312 314 313 311 313 315 311 309 310 311 310 311 315 314 311 315 314 317 313 313 311 316 315 314 312 310 310 311
305 303 304 305 309 308 309 308 306 307 310 310 311 311 312 312 313 313 309 308 310 309 308 309 312 308 310 310 311 313 312 316 314 316 316 312 311 311 313 315 314 314 314 312 311
305 305 303 305 308 309 311 307 306 311 310 311 311 311 312 312 312 310 308 307 309 308 308 310 310 307 309 311 311 313 314 314 313 316 314 309 308 311 317 314 315 315 313 312 312
305 306 306 308 309 311 311 306 309 312 311 312 311 312 311 310 310 308 309 307 307 308 311 310 313 312 311 309 310 310 311 312 313 308 310 308 310 312 314 313 314 316 312 312 312
307 307 309 307 310 311 310 310 310 313 313 312 313 312 313 312 312 309 308 308 308 309 311 310 313 314 313 312 311 313 312 311 311 313 311 310 310 307 307 312 315 316 314 314 312
308 308 308 309 309 311 310 311 311 310 312 312 314 314 313 315 310 311 309 309 308 309 311 311 314 314 315 315 314 315 315 313 313 314 311 312 311 310 313 315 315 316 315 314 312
307 308 306 308 309 310 309 309 312 314 311 312 314 312 316 316 314 313 310 310 310 310 313 313 314 313 313 314 313 316 315 314 314 312 311 309 309 310 310 314 315 316 315 315 313
309 311 308 307 310 309 310 310 310 312 313 314 313 314 315 317 313 311 312 312 312 313 314 314 315 313 314 313 313 315 317 315 315 313 312 311 311 311 313 314 313 315 313 315 314
302 304 310 310 312 310 310 311 313 312 313 313 313 314 316 316 313 313 312 311 312 315 315 314 312 316 317 316 319 321 315 316 314 314 312 314 312 311 312 314 314 311 312 313 313

GFSSW_925_thetae_021.txt.gz
Theta_e
319 318 320 316 314 314 314 315 315 315 315 313 314 318 322 322 324 322 320 320 319 321 322 319 317 317 318 318 322 319 329 329 325 323 323 321 322 321 319 320 321 320 321 320 321
318 319 319 318 314 314 314 315 315 314 314 313 310 317 320 323 323 323 321 321 322 324 322 319 318 317 318 320 322 327 329 327 323 321 323 321 322 322 323 322 323 322 320 319 323
318 319 318 319 318 314 315 315 314 314 314 313 311 313 319 320 321 320 321 325 324 325 324 320 318 317 319 319 321 325 328 324 324 324 325 325 324 321 323 325 323 324 321 320 322
315 318 318 317 318 316 314 315 314 313 314 314 313 312 316 320 322 318 321 322 325 325 323 319 317 318 319 320 319 324 322 325 325 325 325 327 325 327 324 325 320 319 320 319 322
313 314 317 317 318 317 313 314 314 314 314 313 312 313 315 318 319 316 316 318 322 325 323 321 318 317 319 318 318 322 321 321 321 319 320 322 324 325 325 324 322 322 323 322 321
311 312 314 316 316 316 314 312 312 314 313 313 311 314 313 313 311 312 316 318 323 324 323 321 321 317 318 319 318 317 318 318 318 319 319 322 322 322 322 321 323 322 323 321 320
306 310 312 315 315 316 315 310 312 312 313 311 312 313 312 311 310 311 313 316 322 323 322 321 320 319 318 320 318 319 321 318 318 319 320 320 321 322 320 320 321 321 321 322 322
305 308 310 312 315 316 314 312 311 312 313 312 312 312 310 309 311 310 312 313 316 315 317 321 320 320 319 315 316 320 320 320 317 318 318 319 319 318 317 319 321 321 321 320 321
305 305 308 310 313 315 315 312 311 312 313 313 311 309 309 308 311 310 311 311 313 313 313 318 314 313 314 317 317 318 319 320 318 317 319 321 323 321 319 318 319 319 319 319 320
305 305 306 308 311 314 315 311 311 311 313 313 311 310 309 310 310 310 311 311 310 310 311 312 313 315 316 317 317 316 319 318 318 316 316 317 318 316 315 316 317 317 317 318 318
304 305 306 307 309 314 314 312 309 310 311 312 311 310 310 310 310 310 311 310 309 310 314 311 316 317 316 315 314 315 317 318 316 315 315 316 316 315 314 314 315 315 315 316 317
304 303 304 305 309 311 312 311 310 308 309 309 311 311 310 311 311 310 310 311 311 313 310 313 315 313 312 314 315 316 317 318 315 312 313 313 314 312 312 313 313 313 314 315 317
303 303 303 305 308 309 311 310 309 308 306 307 309 312 311 311 312 312 310 310 311 312 311 313 311 310 312 313 314 314 315 314 314 312 312 312 313 311 310 310 310 311 312 312 315
301 303 304 306 307 309 311 309 309 308 300 305 310 310 312 312 312 311 310 311 311 314 313 312 311 311 311 312 312 314 311 313 313 313 313 310 314 310 310 310 309 307 308 310 311
301 304 305 306 308 311 310 309 308 305 302 306 310 310 311 312 309 311 310 311 313 313 312 313 312 312 313 312 310 312 310 311 312 314 313 313 315 312 310 311 310 311 309 308 310
304 305 305 305 306 305 309 308 306 305 305 311 310 313 314 312 313 311 312 312 311 313 313 310 309 310 311 310 310 312 312 312 313 315 318 313 314 313 311 310 308 308 309 311 313
303 305 305 305 305 308 309 308 309 305 308 311 311 313 314 313 314 313 315 315 316 315 316 315 314 312 311 311 310 312 316 317 316 318 316 311 314 313 310 310 310 310 309 309 310
301 304 305 303 303 309 309 307 309 307 308 309 310 311 312 312 312 314 314 316 314 314 315 313 310 313 312 312 312 312 313 315 316 314 313 310 316 313 310 310 310 309 309 309 311
302 305 305 303 304 308 307 310 307 306 309 311 310 311 311 310 311 312 313 314 313 314 316 312 311 308 310 310 311 314 314 311 314 313 316 313 312 309 309 310 313 313 314 313 310
303 304 304 305 306 307 308 311 305 308 309 310 312 310 312 311 312 312 311 308 311 312 310 308 312 306 309 310 311 313 311 314 314 314 315 313 313 314 309 309 314 313 315 315 312
304 305 304 307 309 305 311 307 307 310 309 310 311 311 310 312 311 312 308 307 308 307 309 308 310 307 309 312 311 313 314 315 313 315 315 313 310 305 307 311 314 314 315 315 312
303 307 305 307 304 303 308 307 311 311 311 311 310 310 310 309 311 310 308 306 306 307 310 309 311 311 308 309 310 311 312 312 315 313 313 312 312 310 313 312 313 314 314 314 312
304 307 308 306 309 309 309 310 311 312 312 312 312 311 311 310 311 309 307 307 307 308 309 310 312 311 310 312 310 312 312 312 312 313 314 313 310 306 305 310 313 315 316 314 311
304 307 302 307 307 310 309 310 311 310 311 312 313 312 313 314 310 310 308 308 307 309 310 310 311 309 312 314 314 314 313 312 312 314 312 312 310 308 308 310 311 312 316 315 312
307 308 305 308 310 309 308 309 311 312 311 311 313 312 314 316 315 313 308 309 308 309 311 311 314 313 313 312 312 313 314 314 314 312 313 311 310 308 308 308 312 313 316 315 313
305 308 306 306 309 309 310 308 309 312 311 313 313 314 312 316 315 312 311 310 311 308 312 312 314 314 316 315 315 314 314 314 314 313 312 311 311 309 308 310 313 315 315 316 314
301 301 307 309 308 309 309 309 309 311 311 312 312 313 314 314 314 313 312 310 311 314 313 315 313 316 317 316 317 321 320 316 315 314 313 314 312 310 310 312 314 315 314 315 315

GFSSW_925_thetae_024.txt.gz
Theta_e
317 318 319 319 318 315 314 314 315 315 315 315 314 316 319 322 322 323 323 321 321 322 320 320 318 319 320 321 326 326 325 325 324 324 323 323 323 323 323 324 325 324 325 324 325
315 316 319 319 319 316 315 314 315 315 315 315 314 314 318 323 323 324 322 321 322 324 322 320 320 319 321 322 325 326 326 324 323 324 323 323 324 324 325 325 325 326 324 323 327
311 314 316 318 319 319 317 314 314 315 314 313 313 313 316 320 322 322 323 324 325 325 322 321 320 319 321 323 323 325 327 323 325 324 324 325 326 325 324 325 325 326 325 325 325
308 310 313 316 317 318 317 316 313 314 313 313 312 312 315 321 324 320 321 323 326 325 323 321 321 321 322 321 322 325 323 324 323 325 326 326 325 327 325 324 323 324 324 325 326
306 307 310 312 315 317 318 316 315 313 313 313 311 313 315 320 320 316 316 317 322 325 323 322 322 321 323 321 322 323 321 321 322 323 322 322 323 324 323 323 324 324 325 326 327
305 306 307 311 312 316 317 315 315 315 312 313 311 313 313 318 312 314 316 316 322 324 324 322 322 320 321 321 321 320 321 321 321 321 320 321 321 321 321 321 321 322 322 323 324
305 304 306 308 311 314 316 316 315 314 312 312 311 314 314 312 311 311 313 318 321 324 323 322 320 321 322 323 321 321 322 321 320 320 320 320 322 321 320 320 320 321 321 322 322
305 305 306 306 309 310 315 316 314 313 313 313 312 312 313 310 312 311 313 316 319 319 322 322 319 319 320 318 319 320 321 323 320 320 320 320 320 319 319 320 321 321 321 321 321
304 305 306 306 307 308 313 316 312 312 313 314 312 311 313 309 311 311 312 316 314 314 318 320 319 318 318 320 321 319 321 322 321 318 319 321 323 321 322 321 322 321 322 322 322
303 304 305 305 306 307 310 316 312 312 314 312 311 313 311 312 311 311 311 314 314 315 316 317 317 318 318 320 323 320 321 319 319 318 318 319 320 319 319 319 319 320 321 321 321
303 303 304 304 304 306 308 315 312 313 313 314 313 312 311 311 311 311 311 311 313 316 318 316 318 319 318 316 317 317 318 319 318 317 317 317 317 317 316 317 317 317 317 317 319
302 303 303 303 304 305 307 312 310 310 313 312 312 312 311 311 312 312 311 313 315 318 316 316 318 316 314 315 316 316 316 317 316 315 315 315 316 315 314 315 314 314 315 315 315
302 303 302 302 304 305 306 311 310 309 311 311 312 313 312 312 313 313 312 313 314 315 316 316 314 312 314 315 316 315 316 315 315 315 314 315 316 315 313 313 313 313 313 314 314
302 301 302 304 304 305 308 308 310 305 316 311 312 311 312 312 314 312 311 313 314 315 315 315 313 313 314 315 315 317 314 314 314 314 316 313 319 315 314 314 313 312 313 313 313
303 303 304 304 305 308 309 310 308 307 319 310 311 311 311 312 312 313 311 312 314 314 314 315 314 314 314 313 313 314 312 312 313 314 314 315 315 314 313 314 314 314 314 314 314
302 302 304 305 305 306 309 308 306 311 315 312 311 314 314 312 312 313 313 312 312 313 313 313 311 313 313 313 312 312 313 313 313 315 319 315 316 315 315 315 314 312 313 313 313
302 302 304 305 305 307 307 306 310 318 309 312 311 314 313 313 314 314 314 315 315 316 316 314 314 312 311 313 312 313 315 316 317 319 316 313 316 315 313 312 312 313 313 313 313
303 301 304 305 304 306 306 307 317 311 312 310 312 313 314 312 313 313 315 316 314 314 315 315 318 314 313 312 313 313 313 316 315 315 313 313 316 314 312 312 312 313 314 317 317
303 303 305 305 304 303 305 314 314 310 310 311 311 313 313 311 312 313 314 313 313 313 315 316 312 310 312 312 311 314 316 313 315 314 316 313 312 312 312 312 312 312 315 317 317
301 304 305 304 304 305 308 314 308 310 310 311 313 311 312 312 313 312 312 312 312 312 312 312 314 309 311 311 312 314 312 315 316 315 315 312 311 312 312 311 313 314 315 316 317
301 303 304 305 306 306 313 311 311 310 310 311 312 312 312 312 312 312 312 309 310 312 313 311 310 311 311 312 312 313 315 316 314 316 314 313 312 311 310 310 312 313 315 317 317
303 307 304 305 305 304 312 309 311 311 312 312 311 311 312 312 313 312 312 310 309 311 314 311 311 312 312 310 310 311 312 312 316 316 316 317 317 311 312 313 314 313 314 316 316
304 305 306 307 311 311 309 312 312 312 313 312 312 312 311 312 314 311 311 309 309 310 311 311 313 314 315 314 311 312 311 312 314 315 318 317 314 309 308 309 310 313 313 313 315
303 307 304 307 309 310 312 312 313 312 312 313 312 313 313 313 311 312 311 310 309 310 310 311 313 314 317 318 317 316 314 314 314 316 316 316 314 312 310 310 310 310 310 312 315
306 307 306 310 311 310 310 312 313 313 312 312 314 314 314 315 314 313 312 311 310 310 311 311 314 313 313 313 314 315 315 315 315 314 315 314 313 312 311 311 310 310 312 314 314
304 305 307 309 309 309 309 311 312 313 313 314 314 314 314 315 314 314 313 313 313 311 312 312 315 316 316 314 316 318 318 317 317 316 315 314 314 312 311 311 311 311 314 315 316
301 301 304 309 310 311 311 309 311 312 312 313 313 313 314 314 312 313 312 312 312 313 313 314 315 316 319 316 317 323 321 320 319 316 316 317 314 312 312 311 312 314 314 314 314

GFSSW_925_thetae_027.txt.gz
Theta_e
312 313 317 318 319 320 318 317 315 315 315 315 316 316 317 320 321 322 323 323 322 322 321 322 320 320 321 322 323 326 328 326 326 323 323 323 324 324 324 324 325 325 326 327 328
308 310 312 316 317 319 319 317 316 316 316 315 315 314 316 320 322 323 322 322 322 323 322 321 321 321 322 323 324 327 326 324 322 323 323 323 324 324 324 325 324 326 326 326 328
306 307 309 312 315 316 318 317 317 316 316 315 313 311 315 319 322 322 323 324 325 325 323 321 320 321 322 323 323 325 326 322 322 325 325 324 324 324 325 326 324 325 326 326 327
306 307 307 308 311 314 316 319 317 316 315 314 312 311 313 319 326 323 323 325 326 325 323 321 321 321 322 324 323 324 323 323 324 324 326 325 325 325 325 325 324 324 326 327 327
303 305 307 307 309 312 314 317 318 316 315 314 311 311 315 320 322 319 318 319 324 325 324 323 322 321 322 321 320 323 323 322 322 323 324 324 324 324 325 324 324 324 325 326 326
303 305 306 306 307 309 313 315 318 317 315 314 311 312 316 319 315 317 316 317 321 325 325 323 323 321 323 322 322 322 322 322 322 322 322 322 322 321 321 321 322 322 323 323 324
303 304 306 306 307 308 311 313 317 316 315 314 311 314 314 314 312 312 314 317 322 323 325 323 322 322 323 323 321 322 324 323 323 322 322 321 323 323 321 321 321 321 321 321 322
302 304 305 306 307 308 309 310 315 315 315 314 312 313 316 313 313 312 314 319 321 323 324 323 321 321 322 320 321 322 322 325 322 321 321 320 322 320 320 321 321 321 321 321 321
302 302 304 305 306 306 307 308 310 316 314 314 313 313 316 310 311 312 313 318 318 321 323 322 321 320 319 322 323 323 325 324 323 321 320 322 324 322 322 323 321 321 322 322 322
302 303 302 304 305 305 305 306 309 316 314 313 313 314 313 313 312 311 313 317 316 320 321 322 318 319 320 322 328 324 324 322 321 320 319 320 321 320 320 321 321 321 322 322 322
302 303 303 304 304 305 305 305 315 315 314 315 314 314 314 312 311 312 314 316 316 319 320 319 320 323 322 321 320 319 319 320 320 319 318 318 319 318 318 318 318 318 319 320 320
302 302 303 303 303 303 304 304 308 311 316 314 313 313 312 312 313 313 314 316 317 319 317 318 320 318 317 317 317 318 319 319 317 316 316 317 317 316 316 316 316 316 317 318 318
301 302 303 302 301 304 304 305 303 309 314 314 313 314 313 313 314 314 314 315 317 317 318 320 317 315 316 317 318 318 318 317 317 315 315 316 317 317 317 315 316 316 316 316 316
301 302 302 303 305 305 305 305 304 309 315 314 315 314 313 314 315 313 313 314 315 316 316 317 315 314 316 317 316 318 316 316 316 316 319 314 320 316 316 316 316 315 314 314 315
301 303 304 304 304 306 307 306 304 308 323 313 313 311 313 314 314 314 312 313 315 316 315 317 315 315 315 315 314 315 314 314 315 315 315 316 318 317 315 316 316 315 315 315 316
302 303 304 304 306 306 307 304 306 312 322 313 312 313 314 312 314 313 313 313 313 313 314 314 313 314 314 314 314 313 313 313 314 314 317 315 316 316 315 314 315 316 316 315 314
302 303 304 304 306 306 307 305 309 317 311 313 312 313 314 313 314 314 315 315 316 317 317 314 314 312 312 314 313 314 315 317 320 320 318 314 316 315 314 314 313 314 314 314 314
302 303 305 306 306 305 304 308 316 314 312 310 313 314 315 313 314 314 315 316 313 313 315 315 320 315 313 314 315 315 314 316 318 318 317 315 315 315 314 313 313 313 313 313 313
302 303 306 306 306 304 305 313 318 313 311 313 313 315 316 312 314 314 314 315 313 313 317 317 316 312 314 313 312 314 315 313 315 314 316 314 313 313 313 313 312 312 313 313 315
302 303 305 306 305 305 308 314 312 311 311 313 314 312 314 313 314 313 314 314 313 313 313 315 317 311 313 312 312 313 313 315 316 316 317 315 314 314 313 312 312 312 312 313 316
302 303 306 305 304 307 314 314 312 311 311 313 313 312 311 313 313 313 314 312 313 313 313 312 313 313 311 312 313 313 314 314 314 318 317 317 316 313 312 312 311 312 314 315 316
303 306 306 305 306 305 313 312 310 312 312 312 312 313 312 312 314 314 314 312 311 312 313 312 312 314 313 311 310 312 313 313 318 316 316 318 317 312 312 312 311 311 313 314 314
305 304 304 306 312 313 311 313 312 313 313 313 313 312 312 313 315 313 313 310 310 312 313 312 314 315 318 315 312 313 312 312 315 316 318 319 318 312 311 310 310 310 311 312 312
305 309 307 308 311 312 314 314 314 313 314 313 314 312 313 314 313 314 313 311 310 310 311 312 313 314 319 317 317 318 315 315 316 318 317 317 316 314 313 313 313 312 311 310 311
304 308 307 312 312 312 313 313 313 314 313 313 314 314 314 315 314 314 313 312 311 311 311 312 316 315 314 313 314 315 316 316 317 317 318 317 316 315 314 313 312 312 311 311 313
304 305 304 310 311 312 312 314 313 313 313 314 315 314 314 315 315 315 314 314 314 312 312 312 316 316 315 313 315 319 317 317 319 319 319 317 318 315 314 313 312 312 312 313 313
302 302 304 310 310 312 312 312 313 312 314 314 314 314 314 314 313 313 312 313 313 314 313 314 315 316 317 316 317 323 321 320 321 320 318 319 317 314 314 313 313 313 312 314 314

GFSSW_925_thetae_030.txt.gz
Theta_e
307 308 309 312 314 317 318 320 318 317 315 316 316 316 316 316 320 322 320 321 323 324 319 325 322 320 320 323 322 324 328 327 326 324 323 321 321 323 323 323 323 324 324 327 337
305 306 308 309 311 313 316 318 320 318 317 317 316 315 314 316 320 321 319 321 323 325 321 322 321 321 321 322 322 326 329 329 324 322 323 322 322 323 323 322 322 323 325 327 329
305 305 306 308 308 310 313 316 318 318 317 316 316 313 310 316 321 321 321 322 324 322 323 321 321 321 322 321 322 324 326 323 322 321 325 325 324 323 324 324 323 321 324 324 328
305 304 305 307 307 308 311 314 316 318 317 316 315 312 311 317 323 324 324 324 325 325 324 322 321 322 322 323 321 323 323 323 323 322 324 325 324 324 322 323 322 322 323 325 325
305 305 304 305 307 307 308 311 314 318 316 316 314 312 314 318 320 321 321 324 325 325 325 324 321 321 322 320 321 322 322 321 321 322 322 323 324 324 323 321 321 321 322 323 325
305 305 304 305 306 307 308 310 312 315 318 316 313 312 316 318 317 318 317 317 321 325 325 324 321 320 320 320 320 320 321 321 321 320 321 322 322 321 320 319 320 321 321 320 321
305 305 304 304 305 306 307 309 309 313 318 316 314 313 313 316 313 314 316 317 320 323 325 325 322 322 323 323 322 321 323 322 321 321 322 321 322 322 320 319 318 318 318 319 319
304 304 304 303 304 306 307 307 308 309 314 315 315 313 315 314 314 313 313 316 320 322 324 324 321 321 322 320 321 323 323 325 321 321 321 321 323 320 319 319 319 319 318 317 318
304 304 304 303 304 304 305 306 306 307 313 313 314 314 315 312 312 314 313 317 320 323 323 322 321 322 320 322 324 322 324 323 323 321 321 321 322 321 319 320 320 318 318 318 318
303 303 303 303 304 303 304 305 304 305 314 313 313 315 313 314 311 312 313 318 318 323 323 322 318 321 321 323 327 324 324 322 322 321 320 319 320 318 318 317 317 319 318 318 318
303 303 302 303 304 304 304 304 309 315 316 314 314 314 313 313 312 312 313 316 317 321 322 323 322 324 321 321 321 323 321 319 318 318 317 317 317 316 316 315 316 316 317 317 317
303 302 302 302 303 303 303 304 305 307 316 314 314 314 313 312 314 313 315 317 318 322 319 319 321 320 321 321 320 319 319 318 317 316 315 315 315 314 314 314 314 315 315 315 315
302 301 302 304 304 303 303 303 304 303 311 314 315 314 313 313 315 315 316 316 317 318 319 318 317 316 317 318 318 317 318 317 316 315 314 314 315 315 315 314 314 314 314 314 314
301 302 303 304 304 304 305 306 305 302 310 317 316 314 313 314 315 314 315 316 317 318 318 318 316 315 316 318 317 318 316 316 316 316 316 313 317 314 313 313 313 311 311 312 313
301 303 303 303 304 304 305 305 303 302 319 315 314 313 313 315 315 315 313 314 316 317 316 317 316 316 315 316 315 316 314 314 315 315 314 314 314 314 313 313 313 312 312 312 310
302 302 303 304 304 305 306 303 302 305 317 316 312 315 316 315 315 313 314 313 314 315 315 315 313 314 315 314 314 313 314 314 314 315 316 314 315 313 311 312 312 311 312 311 312
302 303 303 305 305 306 305 305 308 311 312 315 315 315 314 315 315 315 315 315 316 316 317 315 314 313 313 315 314 315 315 315 317 317 313 313 314 312 311 312 312 311 312 311 311
303 303 304 305 305 305 304 307 310 316 315 310 314 314 314 313 315 315 316 316 314 313 317 316 318 315 312 313 315 315 315 314 317 317 316 312 316 311 312 311 311 311 311 311 310
303 302 304 306 306 305 307 309 311 314 311 313 314 314 315 313 314 315 314 314 313 313 317 316 316 314 313 313 313 314 314 312 314 312 311 311 310 310 311 311 311 309 310 309 309
304 302 306 305 304 305 308 313 312 311 311 313 315 314 315 314 314 315 315 313 312 313 312 315 317 313 314 312 311 312 312 315 314 310 314 312 311 312 312 310 309 308 310 309 310
301 305 305 305 305 308 311 310 312 312 312 313 312 313 313 313 313 313 312 313 312 312 312 313 313 313 311 312 313 313 314 314 313 316 314 314 313 312 311 310 311 309 311 312 314
303 306 304 304 306 308 311 311 312 313 312 312 312 311 312 312 313 312 314 313 312 312 314 312 312 311 312 310 310 312 312 311 310 310 312 312 314 312 310 311 309 308 310 312 314
305 303 304 305 311 312 310 313 313 314 313 313 313 312 311 312 313 314 314 310 310 312 313 312 312 310 315 313 311 311 312 312 312 313 314 315 313 311 310 311 311 311 310 308 310
307 308 309 310 312 311 314 314 315 314 314 313 312 312 312 313 314 314 313 311 310 312 312 312 313 311 313 315 314 313 314 313 314 317 315 315 314 312 312 314 315 313 311 310 308
304 308 306 313 314 313 313 313 314 314 314 314 314 314 314 314 314 314 313 312 311 312 311 312 314 309 312 312 312 312 313 314 315 316 318 316 316 316 316 316 314 314 312 311 310
305 305 305 311 312 312 313 313 313 314 314 314 315 314 314 314 315 314 312 313 313 311 311 311 313 311 311 312 313 314 314 315 317 319 319 319 320 316 315 314 313 313 313 312 311
302 303 305 310 311 312 313 313 313 313 314 314 314 314 316 315 314 313 312 313 314 312 312 315 313 315 309 315 316 320 318 321 320 319 320 321 319 319 318 315 313 313 311 311 311

GFSSW_925_thetae_033.txt.gz
Theta_e
306 307 306 307 309 311 313 315 317 321 318 317 316 316 316 316 316 319 321 320 318 325 322 325 322 320 320 319 320 320 323 324 325 324 323 319 320 321 321 321 321 320 325 331 338
306 306 306 306 306 308 309 312 315 317 320 318 317 316 316 315 317 319 320 321 323 322 325 321 322 320 318 320 320 320 324 325 322 321 320 320 322 320 321 321 321 321 324 332 338
306 306 306 305 305 308 308 309 313 315 319 318 316 316 315 313 319 318 318 322 324 325 324 320 321 319 320 319 319 320 324 324 324 321 320 323 323 321 321 321 319 320 322 324 331
306 306 305 306 305 305 307 308 310 313 316 318 316 315 314 316 318 323 323 323 324 325 322 322 320 321 321 321 319 321 321 321 322 321 321 323 322 323 322 321 319 320 320 322 323
306 306 306 305 304 305 306 308 308 312 315 318 316 315 314 317 318 320 320 324 325 324 324 324 322 320 321 319 319 320 320 320 319 319 319 320 322 322 321 319 318 317 318 320 321
306 305 305 305 305 304 305 307 308 311 311 315 316 314 315 318 314 318 321 324 324 324 324 324 321 317 319 319 317 318 319 320 319 319 319 320 319 320 320 318 316 316 316 316 317
305 305 305 305 304 304 305 307 307 309 309 312 315 314 313 315 314 318 317 317 319 323 324 324 323 321 320 322 320 319 321 320 320 320 320 319 320 319 317 316 317 315 314 315 315
304 304 304 304 304 304 304 305 306 307 307 311 316 313 314 311 313 313 315 316 317 321 323 323 321 320 320 318 320 321 321 324 320 320 320 319 321 319 317 316 317 317 317 315 315
303 303 304 304 303 304 303 305 305 306 307 310 315 313 314 313 313 313 312 314 318 322 323 322 321 321 320 321 323 321 322 322 322 318 320 320 321 319 317 316 315 315 315 316 316
303 303 303 303 303 304 304 304 301 305 306 307 312 312 313 313 312 313 312 314 320 322 322 321 320 323 322 323 325 323 322 320 321 319 319 319 318 317 316 314 314 312 314 313 314
302 303 303 303 303 303 303 303 303 309 307 315 313 314 313 313 311 313 312 316 320 322 325 322 323 325 320 319 320 321 322 318 316 315 315 315 314 313 312 311 312 314 312 313 315
302 302 302 303 304 304 304 303 303 304 307 309 312 313 312 312 313 313 313 317 319 322 317 320 322 321 320 320 322 320 318 316 315 314 314 313 314 313 312 312 312 313 311 311 312
301 302 303 303 304 303 302 303 303 303 305 313 314 314 313 313 314 314 316 316 319 320 319 318 316 318 319 319 319 316 316 316 316 313 312 311 312 311 311 311 311 311 312 312 312
301 302 303 304 304 304 303 304 303 303 307 315 317 315 313 314 315 313 316 316 317 319 318 318 315 314 316 318 316 317 313 314 315 313 314 311 314 310 311 310 310 309 308 310 311
302 302 303 303 303 304 304 304 303 302 311 314 316 313 313 315 314 315 314 314 317 318 317 319 317 315 314 315 314 315 313 313 313 313 310 311 311 310 309 310 310 308 307 306 309
302 303 304 303 304 304 304 302 302 305 309 315 314 315 315 315 315 314 314 313 313 317 315 314 312 313 314 313 312 312 312 312 312 311 306 310 311 310 310 310 311 309 308 309 307
303 304 304 304 305 305 302 302 302 303 307 313 317 315 315 316 314 315 315 316 315 316 315 315 314 312 312 313 312 313 310 305 308 314 310 311 312 310 309 309 309 308 308 310 308
304 303 305 305 305 304 304 305 305 310 313 315 314 314 316 315 315 315 315 314 313 312 310 310 310 312 311 312 313 313 311 306 312 313 313 310 314 312 310 310 308 309 308 308 307
303 303 306 306 305 304 306 305 308 314 312 315 314 314 315 314 315 315 315 314 312 312 312 311 314 312 311 311 312 314 310 310 311 309 303 309 307 307 308 308 306 306 306 305 305
302 303 304 305 304 304 307 313 310 311 313 312 314 314 315 314 314 314 314 312 312 310 310 314 315 313 313 312 312 310 310 311 304 305 311 309 309 310 309 309 308 307 308 310 310
302 305 303 305 305 306 309 309 313 311 312 313 312 314 312 314 313 314 312 312 311 311 311 312 312 311 312 312 311 312 313 312 310 307 310 313 311 307 310 309 308 307 307 309 312
301 306 304 305 305 306 308 307 312 312 312 312 309 310 311 312 313 312 312 310 310 311 312 311 311 309 309 308 309 309 310 309 306 305 308 306 312 310 309 308 309 310 311 312 311
305 304 304 305 310 309 312 313 314 314 313 313 312 311 310 311 311 310 312 309 311 312 313 311 310 303 314 309 309 310 310 310 309 310 311 314 313 308 309 310 310 311 314 314 313
305 306 304 307 308 311 313 313 315 313 313 311 310 309 311 313 311 312 312 310 310 312 313 310 310 304 309 311 310 307 312 310 311 314 313 313 312 311 311 312 314 315 313 312 313
301 305 305 304 308 312 313 313 313 314 312 312 313 311 312 315 313 313 312 310 309 311 310 310 310 305 308 310 310 308 311 312 313 313 315 313 314 314 315 316 318 312 312 313 313
304 304 303 306 309 310 312 312 314 314 313 313 314 314 314 314 314 313 313 311 311 309 309 309 306 310 310 310 311 312 312 312 313 313 314 315 317 316 317 318 316 314 313 312 312
301 302 305 306 308 311 312 313 313 313 312 312 313 315 316 315 312 311 311 311 309 309 310 313 312 304 304 310 313 319 315 315 318 318 319 322 320 318 318 318 313 312 310 310 310

GFSSW_925_thetae_036.txt.gz
Theta_e
307 307 307 307 306 306 308 310 311 314 317 320 318 317 316 316 315 316 317 318 316 324 321 323 321 321 320 317 318 316 320 323 324 321 320 319 319 318 319 319 320 320 328 332 337
308 307 307 306 308 305 305 308 310 311 314 317 319 317 316 315 314 316 317 319 322 324 326 324 322 319 318 318 318 319 321 322 320 321 322 319 322 321 318 320 320 325 327 336 337
308 308 307 308 307 307 306 307 309 309 312 315 319 318 316 313 316 315 311 321 323 323 323 324 321 319 320 318 318 318 322 321 323 322 321 322 321 320 321 320 318 321 328 330 334
308 308 307 307 306 306 305 305 307 308 310 314 316 318 314 313 316 320 324 320 325 324 323 322 320 321 320 321 318 321 319 321 321 321 320 321 321 322 321 320 319 319 318 320 324
306 306 306 306 306 306 305 304 305 307 310 313 315 317 314 314 315 318 320 323 325 325 323 321 321 320 321 319 319 319 319 319 319 319 318 317 320 320 320 318 317 316 317 318 317
305 305 305 305 305 305 305 304 305 307 309 311 313 316 313 313 312 318 320 324 324 324 323 322 322 318 318 319 319 318 318 319 319 319 318 319 318 318 319 317 316 316 315 314 316
304 304 305 305 305 304 305 305 305 307 308 309 311 314 313 311 312 315 322 323 323 323 323 324 323 319 317 321 316 319 320 319 319 319 320 319 320 318 317 316 316 315 314 314 313
304 304 304 304 304 304 303 303 304 305 307 308 309 313 313 310 313 315 318 318 321 322 322 322 323 319 320 318 319 320 319 322 319 319 318 319 321 318 315 315 315 314 313 313 314
303 303 303 303 304 304 304 304 305 306 306 307 308 313 312 310 312 313 315 315 316 321 322 322 321 321 319 319 319 320 321 321 321 318 319 318 321 318 317 315 315 313 313 313 313
303 302 303 303 303 302 303 304 303 305 305 307 308 312 311 314 313 312 312 314 319 321 322 321 322 323 321 320 322 322 321 319 320 318 316 318 318 317 315 315 314 312 312 312 313
302 302 302 303 303 303 304 302 300 305 307 308 311 312 312 312 313 313 312 313 320 321 324 321 324 326 325 321 319 319 322 321 316 315 313 313 312 312 311 310 310 311 311 311 312
301 301 302 303 304 304 304 302 302 303 306 306 307 310 312 311 314 314 312 319 321 323 321 321 324 322 322 322 323 322 318 317 314 314 314 312 312 311 311 312 311 312 312 312 311
301 302 303 303 303 304 303 302 302 302 305 306 306 310 312 312 314 314 314 317 319 320 320 322 319 320 322 322 322 317 316 315 315 312 311 310 312 310 309 309 309 310 310 310 310
301 302 303 303 303 303 302 304 302 302 307 311 312 315 313 313 314 314 316 316 317 319 317 317 313 320 320 320 315 317 313 314 314 313 314 310 314 309 309 308 308 306 306 307 308
303 303 304 304 304 304 304 304 303 302 312 311 315 313 312 314 314 315 314 314 317 318 316 317 316 314 315 316 314 315 312 312 312 311 309 310 311 309 307 310 308 307 306 305 304
305 305 305 304 303 304 304 303 302 303 311 311 313 315 315 314 314 315 315 313 315 317 314 313 312 313 313 312 312 311 311 309 309 308 305 308 310 308 308 309 310 308 306 304 306
304 304 304 304 305 304 302 301 299 305 305 312 317 315 315 315 316 316 316 315 317 319 318 315 313 312 311 313 312 309 308 306 305 310 310 309 310 308 308 307 308 307 306 305 306
304 305 305 304 305 303 303 305 303 306 306 311 315 314 317 315 316 316 316 315 313 311 311 313 317 312 311 312 313 312 309 306 309 311 311 309 313 309 307 307 305 305 304 304 304
304 304 305 305 303 303 305 305 306 309 309 316 314 316 315 314 316 315 315 315 312 311 311 309 312 311 310 311 311 313 309 308 309 307 303 308 306 304 306 306 306 305 308 309 308
303 303 304 305 303 304 307 310 309 309 313 312 313 312 314 314 315 315 314 312 312 310 310 311 313 312 312 311 311 311 309 308 300 300 308 307 307 307 307 309 307 306 306 306 308
302 302 304 304 305 306 309 308 312 312 312 312 313 311 312 313 312 313 312 311 310 310 310 311 308 310 312 311 311 311 311 310 307 304 307 311 310 304 308 309 308 306 305 306 308
300 299 303 304 304 303 308 309 311 313 312 311 309 310 310 312 312 312 311 309 309 309 311 311 308 304 312 309 308 309 309 308 303 302 305 304 311 307 306 307 306 309 309 310 312
302 301 304 305 311 312 312 313 314 314 313 312 310 310 309 310 312 309 310 308 309 310 311 310 305 303 312 308 308 310 309 308 307 307 301 309 310 307 306 308 310 313 315 315 312
301 300 301 306 305 309 311 312 313 311 312 308 309 308 310 311 309 312 311 310 311 312 314 310 307 304 307 308 305 304 310 309 308 307 308 309 310 309 310 313 315 316 316 312 311
299 305 304 304 307 309 310 311 313 314 311 310 310 310 313 314 312 313 311 309 310 312 311 308 304 301 306 308 308 308 309 310 308 310 309 311 312 312 313 314 317 316 314 313 312
302 305 304 305 306 309 309 311 313 313 312 313 314 314 313 315 313 312 311 309 310 309 309 306 305 306 307 309 309 307 309 309 310 310 311 311 313 312 314 317 312 311 310 310 312
302 302 304 306 307 309 309 312 312 311 311 312 313 315 316 315 312 310 308 308 308 308 309 309 306 307 308 307 310 313 313 312 312 311 312 319 319 318 318 316 309 308 305 301 302

GFSSW_925_thetae_039.txt.gz
Theta_e
310 310 309 309 308 308 308 306 306 309 311 313 315 319 318 316 315 316 315 316 317 323 325 322 325 322 319 318 316 314 320 322 320 319 319 318 320 319 317 317 318 318 328 329 335
309 309 310 309 308 308 308 307 306 308 310 311 313 316 317 315 315 315 313 316 319 321 323 321 320 318 318 318 317 318 319 321 319 318 321 319 320 320 320 317 318 323 330 333 334
307 308 308 308 308 308 307 307 306 305 307 309 312 315 318 315 312 313 308 315 320 322 325 323 321 319 319 316 318 318 320 319 321 321 321 320 319 320 321 320 318 318 321 324 332
306 306 307 307 307 307 307 307 306 305 305 307 311 315 318 312 313 317 319 316 323 324 325 322 319 319 320 320 318 321 319 320 320 321 320 320 319 321 320 319 319 318 316 317 327
305 305 305 306 306 306 306 306 306 305 306 308 311 314 315 313 313 316 320 322 323 324 323 321 320 319 321 319 319 319 319 319 319 319 318 317 318 318 319 317 316 316 315 315 315
304 304 304 305 305 305 305 305 305 305 306 308 311 312 314 312 309 309 315 322 323 324 322 320 319 318 319 318 319 318 318 319 318 318 318 319 318 317 317 315 316 315 315 314 313
304 304 303 304 304 304 304 305 305 305 306 307 309 311 314 312 311 313 313 323 324 323 322 321 320 318 317 319 316 318 320 319 318 319 319 317 319 317 316 315 315 315 312 313 312
303 303 303 303 304 304 304 304 303 303 305 307 308 309 315 312 312 314 320 322 322 323 322 322 322 319 319 317 318 319 318 321 318 318 317 318 320 316 315 314 314 313 312 312 312
303 303 303 303 303 304 302 304 305 305 305 306 307 308 314 311 311 313 315 318 321 321 322 321 320 320 318 318 319 318 319 321 320 317 318 317 319 317 314 314 314 313 313 311 312
303 302 302 302 303 302 302 303 303 304 304 305 307 312 312 313 311 312 312 315 319 321 322 322 322 321 318 319 323 322 320 318 319 317 316 317 316 316 315 314 313 312 312 312 312
302 301 302 303 303 304 304 303 301 304 305 304 308 310 312 312 311 312 312 315 319 320 325 323 326 325 322 319 318 317 320 320 318 315 313 313 312 311 311 309 308 309 310 311 311
302 302 303 303 304 304 304 302 302 303 305 305 306 310 310 313 314 313 312 318 320 324 321 323 325 322 322 322 323 323 321 319 315 313 313 311 311 311 311 311 311 311 311 311 311
303 303 303 304 304 303 303 302 302 302 303 306 304 308 310 312 314 314 313 318 320 323 321 322 321 322 321 323 324 323 318 315 316 312 310 309 310 309 308 308 308 309 310 310 310
305 305 304 304 304 303 302 303 302 302 297 308 308 310 313 313 314 313 313 317 319 320 319 318 315 322 323 323 321 317 312 314 313 313 315 310 314 310 309 308 307 305 304 306 306
305 305 304 304 304 303 303 303 302 302 309 311 311 312 312 313 313 315 315 315 318 319 317 318 317 321 322 320 314 316 311 312 311 310 309 310 310 310 306 308 307 306 305 304 303
305 304 303 302 303 303 304 303 302 305 312 310 314 315 315 314 315 316 316 314 315 315 314 314 312 313 312 311 312 311 309 307 308 307 305 308 309 309 307 308 304 305 305 302 301
305 305 304 304 304 304 303 301 304 307 305 311 314 314 315 317 318 316 316 317 319 318 318 314 313 311 311 312 311 308 308 305 304 306 308 308 309 309 307 307 306 305 303 303 303
304 305 303 304 303 303 302 303 305 309 308 310 315 314 316 317 317 316 315 316 312 313 314 314 316 312 310 311 313 311 309 305 307 308 309 308 312 309 306 306 305 307 308 306 306
303 304 304 303 303 303 304 306 310 308 307 316 314 315 315 315 317 317 315 315 312 310 312 308 313 311 311 310 310 312 307 307 307 304 302 308 305 302 305 305 305 305 304 304 305
302 303 304 304 304 304 304 313 310 310 312 310 313 312 315 314 316 316 314 313 312 310 309 309 313 311 311 311 310 310 308 308 300 302 307 305 306 306 306 306 306 305 304 304 304
302 300 303 304 305 306 308 309 314 312 312 311 312 311 311 312 313 312 312 311 310 310 309 308 309 313 312 311 311 311 310 307 306 304 307 310 308 303 307 306 306 305 305 307 310
299 299 303 303 307 304 311 311 310 312 311 309 308 309 310 310 311 312 311 310 308 308 311 309 307 312 313 308 307 308 308 307 301 302 302 306 309 306 305 307 306 307 311 314 315
300 300 303 305 310 305 310 313 312 313 312 310 309 309 309 310 311 309 310 308 308 309 310 308 304 303 309 307 307 309 308 306 304 301 296 305 308 305 304 307 309 314 315 316 314
299 301 300 301 303 308 310 311 312 310 309 308 308 308 308 310 308 311 309 310 309 310 312 308 305 303 306 307 305 304 308 307 304 304 306 307 307 308 308 310 312 316 313 312 312
299 305 304 304 306 307 308 310 312 313 310 308 309 309 311 313 312 311 309 309 311 314 310 307 305 300 305 307 307 307 309 308 304 308 307 308 308 309 309 311 313 312 310 310 309
303 305 304 305 303 307 308 311 312 312 311 312 310 313 312 314 312 312 309 309 311 309 309 305 305 304 306 307 307 306 308 308 309 309 309 310 311 309 310 314 316 310 308 307 303
301 302 304 303 304 308 308 311 311 310 312 312 313 315 315 314 311 308 307 306 307 308 308 307 304 303 306 305 309 310 310 310 311 310 310 312 312 313 318 318 311 308 305 301 300

GFSSW_925_thetae_042.txt.gz
Theta_e
308 308 309 309 310 310 310 310 310 306 306 308 311 313 315 319 317 316 317 315 316 321 324 321 326 325 319 317 315 313 320 321 320 319 319 317 319 318 316 316 315 317 322 326 332
308 308 307 307 308 309 309 309 309 308 306 306 309 310 313 317 317 316 314 316 318 319 322 321 323 318 318 317 316 317 319 320 317 316 317 319 319 319 320 317 318 320 326 331 340
307 306 306 307 307 307 308 307 308 308 307 305 306 309 311 314 314 313 313 315 317 320 323 321 321 318 319 316 317 317 319 318 320 319 320 320 321 319 320 320 317 318 316 323 333
306 305 305 306 306 306 306 307 307 306 306 306 306 308 312 315 319 312 316 315 317 319 323 322 318 319 320 319 317 320 318 318 319 319 320 320 318 319 319 318 317 318 317 316 322
305 305 305 305 305 305 305 306 306 306 306 306 307 309 314 314 312 315 319 322 317 321 323 321 320 318 320 318 317 319 318 318 318 318 318 317 318 317 317 316 315 315 315 316 315
305 304 304 304 304 304 305 305 305 305 306 306 307 309 311 315 312 312 310 319 317 323 323 320 320 317 319 318 318 317 318 318 318 318 317 318 317 315 316 314 314 314 315 314 313
304 304 304 304 303 304 304 304 305 305 305 306 306 308 312 313 312 312 313 318 319 324 322 321 319 319 316 318 316 316 319 318 317 318 318 317 318 317 315 314 314 313 312 313 312
305 304 304 303 303 304 304 304 303 303 304 304 305 307 311 312 312 312 314 320 320 323 321 321 320 317 317 316 316 318 318 321 317 317 318 317 318 316 314 314 314 312 310 310 311
305 304 303 303 302 304 302 302 304 304 303 305 305 306 312 311 313 313 311 321 321 321 321 320 319 320 318 317 318 318 318 320 320 316 317 317 318 316 314 314 313 311 310 310 309
304 302 301 303 303 302 303 304 304 303 304 304 304 307 310 312 311 311 313 319 320 321 321 320 321 320 318 319 321 321 320 318 319 316 316 317 316 314 312 313 313 312 311 310 310
304 304 303 303 304 304 304 303 301 302 304 302 304 308 312 312 311 312 312 318 319 321 325 322 326 325 322 319 316 317 318 318 317 314 314 314 312 311 311 309 308 308 309 309 310
305 306 304 304 304 304 303 302 300 302 303 304 304 306 308 312 313 313 312 318 320 323 322 323 324 322 319 318 320 320 319 320 316 313 312 311 311 310 311 311 310 310 310 310 310
306 306 305 305 304 303 303 302 302 302 303 305 305 307 310 312 314 314 313 318 320 323 322 320 323 322 322 323 323 322 321 318 318 312 309 308 312 309 308 307 307 306 307 307 307
306 306 305 304 303 303 302 303 302 302 301 305 307 310 312 313 313 312 313 317 319 322 320 318 321 322 322 322 323 322 313 314 313 313 316 309 315 310 309 306 305 303 302 302 302
305 305 303 303 303 302 303 303 302 301 295 307 310 310 313 313 313 314 314 316 319 319 318 319 321 323 323 321 318 319 311 311 310 310 309 310 310 308 305 307 306 302 302 302 302
305 304 303 303 303 303 303 302 302 299 307 311 312 312 315 314 316 316 316 315 315 317 315 316 312 314 315 313 314 309 308 307 307 307 305 307 308 306 306 306 305 304 303 304 304
304 304 304 304 303 303 302 300 301 303 304 311 312 314 314 317 316 316 317 317 319 318 318 315 314 311 310 312 310 308 310 308 305 304 308 307 309 306 306 306 306 305 305 304 304
303 304 303 303 303 302 302 300 302 308 305 310 314 315 318 315 317 316 317 317 312 313 315 314 318 313 310 311 312 310 309 307 307 308 309 307 311 308 304 305 305 305 303 303 303
303 303 303 303 303 304 303 307 309 308 308 316 314 317 317 315 316 316 314 314 312 310 313 312 314 310 310 310 310 311 306 306 305 303 301 306 304 301 305 304 304 303 305 304 304
302 302 303 304 304 303 307 314 314 310 312 310 314 312 315 317 318 315 314 312 311 310 307 308 313 311 311 310 308 309 306 307 298 303 305 303 304 303 305 306 305 306 305 304 305
302 300 303 304 304 304 310 311 312 311 310 310 310 311 311 313 312 313 312 311 310 310 308 307 310 313 311 311 311 310 310 305 305 303 305 307 304 302 304 306 306 305 304 306 311
298 302 303 305 306 306 309 310 310 311 310 308 308 309 310 309 311 311 311 310 308 309 310 307 308 310 312 307 307 308 308 305 301 302 303 304 306 305 304 305 305 305 309 315 313
299 299 303 304 309 304 307 311 311 311 310 309 309 308 308 309 310 309 309 307 308 309 309 307 305 303 309 307 306 309 308 305 303 301 298 303 306 304 304 304 306 308 314 311 309
298 300 299 300 302 307 308 310 311 309 308 307 307 307 308 309 308 310 309 310 308 309 312 307 304 303 305 306 305 305 308 306 304 301 304 305 306 307 306 306 308 309 311 310 309
299 303 303 305 304 305 307 309 312 312 309 307 308 308 310 311 311 310 309 310 310 313 308 307 303 299 305 306 306 307 309 307 303 306 305 306 307 307 307 308 308 310 310 309 306
303 305 304 305 302 304 306 309 311 311 311 311 310 312 311 312 310 310 308 309 310 308 309 305 306 303 304 307 307 307 307 307 307 307 307 308 309 308 307 307 312 313 309 306 302
300 301 303 303 302 306 306 310 311 310 311 311 313 314 314 314 310 307 306 305 307 307 307 307 304 301 302 305 308 310 308 308 308 309 310 310 310 308 309 313 315 309 306 302 299

GFSSW_925_thetae_045.txt.gz
Theta_e
309 308 308 308 308 308 308 309 309 310 310 308 307 308 311 313 314 318 317 316 315 320 322 319 324 326 318 317 315 314 324 323 323 319 320 316 317 318 316 318 316 317 322 327 331
307 307 307 307 307 307 307 308 309 309 309 309 307 306 308 311 312 316 316 316 317 317 321 320 325 320 320 318 317 320 323 322 318 318 318 318 319 320 320 319 319 321 319 333 338
307 306 306 306 306 306 306 307 307 308 308 308 307 307 306 310 315 317 317 317 318 319 319 321 322 320 320 316 317 317 321 318 319 317 318 320 320 318 320 320 319 319 320 327 336
306 306 306 305 305 305 305 306 306 307 307 307 307 307 306 311 319 313 316 318 318 319 321 321 321 321 321 320 317 320 318 318 319 320 320 321 319 319 319 320 317 318 317 316 334
306 306 305 305 305 304 304 305 305 306 306 307 307 306 308 314 314 314 313 315 319 318 320 321 322 322 323 319 317 319 318 318 319 318 318 317 318 319 318 317 316 315 316 317 317
305 306 305 305 304 304 304 304 305 305 305 306 306 307 308 315 313 315 313 315 318 319 321 320 320 319 320 319 319 318 318 318 318 318 317 318 317 316 317 314 315 315 317 316 316
304 305 305 304 304 304 304 304 304 304 304 305 306 305 308 312 312 312 314 317 317 319 322 320 318 318 316 318 316 316 319 318 318 317 318 317 318 318 316 315 316 316 314 315 315
304 305 305 303 303 303 303 303 304 303 302 303 305 305 308 310 312 312 314 316 317 320 322 322 318 316 317 315 317 319 318 321 317 317 317 317 318 316 314 315 316 315 314 312 313
306 305 304 302 303 304 303 303 303 305 303 303 304 305 309 311 312 312 313 314 318 320 321 321 319 320 317 318 320 318 320 319 319 317 317 318 318 316 314 314 315 314 313 312 312
306 307 306 305 303 304 304 305 304 303 304 304 303 305 307 312 312 312 311 314 319 320 320 320 320 320 318 319 322 322 319 319 318 315 316 317 318 316 313 311 313 313 313 313 312
306 306 305 305 304 304 304 302 299 301 303 301 302 304 310 312 312 312 314 318 318 320 322 320 322 321 322 318 315 317 318 319 317 313 314 315 314 313 312 311 311 311 311 311 312
306 306 306 305 304 304 303 300 300 301 302 303 304 305 305 306 314 313 313 320 322 322 321 322 321 319 319 317 317 318 318 318 316 312 312 312 312 312 312 312 311 311 310 310 310
306 306 305 304 304 303 303 301 302 301 301 304 304 306 307 311 314 314 314 318 321 318 312 321 322 319 320 321 322 320 320 317 319 312 309 310 314 311 309 307 306 304 303 304 306
305 306 305 303 303 303 302 303 302 301 293 304 306 309 309 312 315 312 313 317 319 316 314 314 322 322 322 322 322 324 314 314 313 315 318 309 319 311 308 306 304 305 305 305 305
305 305 303 303 303 302 303 302 302 301 302 304 309 308 312 314 313 315 314 316 319 318 319 318 322 323 321 321 320 319 312 311 310 311 311 310 313 310 305 307 305 306 305 306 306
303 303 303 303 302 302 302 301 301 295 308 310 311 313 315 313 316 316 316 315 314 316 315 315 313 317 317 314 316 309 309 307 307 308 315 308 309 307 307 307 305 305 305 305 305
303 303 302 303 302 302 302 300 296 305 302 311 311 314 315 315 316 316 317 318 319 318 318 316 315 311 313 316 311 310 315 315 311 311 317 307 309 309 305 306 306 306 306 305 304
303 303 302 302 302 303 303 298 305 309 308 311 314 315 318 315 316 316 316 317 312 313 314 317 319 314 310 312 317 311 312 315 313 311 310 307 312 309 304 303 305 305 304 304 306
302 303 303 303 303 304 305 311 309 303 308 316 314 314 316 314 315 316 312 314 311 310 316 314 314 310 310 309 310 311 312 305 306 303 308 307 305 302 303 304 305 306 307 307 308
302 301 302 303 303 303 306 314 313 309 311 309 313 312 315 315 316 315 315 312 311 309 307 309 315 311 310 309 308 309 306 311 305 309 310 303 303 304 303 306 306 307 307 306 309
301 301 303 305 303 303 309 310 312 310 309 310 310 310 312 313 312 313 311 312 310 309 306 307 311 313 311 311 311 310 310 306 305 304 307 306 304 302 305 306 306 306 306 308 313
298 303 303 305 304 305 311 310 310 311 309 308 307 308 309 309 310 311 310 311 308 308 310 307 310 315 312 307 306 308 308 305 307 305 304 305 307 303 302 304 304 305 306 313 311
299 299 302 304 304 301 306 309 310 309 307 308 309 308 307 308 310 309 308 307 308 308 308 306 305 309 313 308 306 309 307 304 302 302 304 308 305 304 303 304 305 306 309 312 310
297 299 299 299 300 306 307 309 311 309 308 306 307 307 308 308 307 309 309 309 307 309 310 306 304 305 307 307 306 306 308 305 305 306 306 306 305 306 305 306 307 307 309 311 308
297 302 303 305 303 303 306 308 311 311 308 306 308 308 309 310 310 309 309 309 309 312 307 306 304 299 305 306 305 307 309 307 305 306 308 305 306 307 306 306 307 306 311 309 303
301 303 303 304 301 303 305 309 311 311 311 310 309 310 310 309 308 309 308 308 309 307 307 304 308 303 304 307 306 307 308 308 307 307 306 307 309 308 307 306 308 312 309 306 301
300 301 303 302 301 304 306 308 310 309 310 310 310 311 312 312 310 307 305 305 306 307 307 307 305 301 303 305 307 310 308 308 307 307 308 310 309 307 308 309 312 310 305 302 299

GFSSW_925_thetae_051.txt.gz
Theta_e
309 309 309 309 309 308 308 308 308 308 309 310 310 310 310 309 309 310 314 318 319 319 321 316 319 324 325 323 321 323 329 331 330 329 328 326 326 324 322 322 321 321 324 333 334
308 309 308 308 308 308 307 307 307 307 308 309 309 308 310 308 307 309 314 317 319 318 321 316 322 325 325 323 322 324 329 328 326 326 326 326 324 323 322 322 321 322 325 335 336
309 308 308 308 307 307 307 307 306 306 307 308 308 309 309 308 308 308 311 316 321 319 320 318 319 325 322 321 322 321 322 323 323 321 322 323 322 321 323 322 322 322 324 331 337
308 307 307 307 306 307 307 306 306 305 306 307 308 307 307 308 309 308 316 318 321 320 319 318 320 325 323 323 321 322 320 319 321 320 321 321 321 321 322 322 322 322 324 324 334
306 308 308 307 307 306 306 306 305 306 306 307 307 305 307 309 308 313 318 320 321 320 318 319 319 323 323 321 320 321 320 320 320 321 321 319 320 321 322 322 322 323 322 322 323
308 308 308 308 306 306 305 305 305 305 305 305 306 304 307 310 307 307 314 317 321 320 316 318 318 321 321 321 320 320 320 320 320 321 321 322 321 322 322 322 321 321 321 321 321
308 308 308 307 305 305 304 305 305 305 305 305 305 305 307 308 308 312 314 316 318 320 317 317 316 321 321 322 320 320 320 320 320 320 321 321 321 322 321 321 321 320 320 320 319
308 307 307 307 306 305 304 305 305 303 303 305 305 305 307 306 306 310 314 315 317 320 316 317 318 319 320 319 320 320 321 322 319 320 319 319 320 320 320 320 320 319 319 318 318
308 307 306 307 307 305 304 305 306 306 306 303 304 306 307 306 309 309 315 314 319 319 316 319 320 320 320 321 322 321 319 320 319 318 320 320 318 318 318 318 319 319 319 318 318
307 306 307 307 306 305 304 302 303 305 305 304 304 306 306 309 310 313 315 314 319 318 320 320 320 322 321 320 320 319 318 317 316 320 318 319 319 318 318 318 318 318 318 318 318
307 306 305 305 304 304 305 305 306 306 305 305 305 306 307 309 311 313 313 316 318 318 320 321 322 322 320 318 316 316 317 315 316 318 319 318 318 318 318 318 318 318 317 317 317
307 306 305 305 304 302 305 304 304 304 305 304 304 304 306 306 314 315 314 319 317 319 320 322 322 320 318 317 317 317 317 317 318 317 317 316 318 318 318 317 317 318 318 318 317
306 306 305 303 303 304 304 304 304 303 306 305 305 307 307 308 314 315 314 317 316 319 319 321 319 319 320 318 318 316 317 316 318 318 317 318 318 317 314 314 313 312 312 312 313
305 306 303 303 305 305 304 304 304 304 310 308 309 307 310 311 315 313 313 316 315 320 320 319 320 320 320 319 317 318 317 318 320 319 317 317 315 319 314 313 313 314 314 314 315
305 306 302 304 305 304 303 303 303 305 313 309 309 308 311 315 315 313 313 314 316 316 318 317 320 321 321 320 317 320 320 320 320 320 321 319 320 317 313 314 313 314 315 315 316
305 305 303 306 305 303 304 304 304 312 315 312 310 314 314 315 317 314 316 315 315 314 315 316 314 318 319 317 318 317 318 318 318 320 326 322 318 315 313 313 313 314 315 315 316
305 304 304 305 307 304 305 306 313 316 310 314 316 315 315 317 318 315 316 317 318 319 319 314 313 315 315 317 315 317 322 326 327 328 325 315 317 317 313 313 313 314 315 316 316
304 302 305 305 305 305 306 311 318 314 315 313 316 315 318 316 317 316 318 320 318 319 321 321 320 311 314 317 319 320 322 326 324 325 322 311 315 315 312 312 313 313 315 315 317
304 306 307 307 305 306 310 316 317 315 313 315 315 316 317 316 317 317 318 318 317 317 321 321 320 313 313 315 317 317 323 313 316 312 316 314 312 311 310 310 312 315 315 317 317
306 307 308 306 306 306 315 315 315 312 314 313 316 315 316 316 318 318 319 315 316 314 313 317 319 313 312 313 312 319 317 322 321 324 320 316 313 313 310 311 313 315 315 316 317
307 312 308 304 307 314 315 316 313 312 312 313 314 314 315 316 316 317 317 315 314 313 313 316 317 316 314 316 317 315 317 315 316 315 319 314 311 309 311 312 312 311 314 316 318
309 318 307 307 318 318 318 314 311 313 311 312 313 314 315 315 316 316 317 316 312 312 315 314 317 318 317 312 311 314 316 316 320 319 314 315 313 308 311 312 312 311 315 316 317
309 311 307 309 320 318 313 313 313 312 311 312 312 312 312 314 315 314 314 312 312 313 314 313 317 318 317 314 312 314 314 313 312 314 320 317 313 310 311 311 310 314 316 315 316
308 314 314 312 312 315 314 313 314 312 311 310 311 311 312 313 313 314 314 312 311 312 309 311 314 317 319 317 316 317 315 314 315 319 315 313 312 311 311 311 314 315 314 316 315
307 307 304 316 315 313 313 313 313 313 312 310 311 311 313 314 313 313 313 313 312 310 311 313 317 312 312 312 313 314 314 313 314 314 319 314 312 313 311 312 315 314 316 316 314
305 304 305 308 309 311 311 314 313 313 313 312 312 311 311 312 312 312 313 313 313 312 312 312 316 312 313 311 311 313 312 313 312 312 312 312 313 312 311 313 314 316 316 315 311
301 303 304 308 311 312 314 313 313 312 313 313 312 312 312 313 312 312 311 311 312 312 312 313 314 314 316 310 311 314 313 312 313 312 312 314 313 313 313 314 313 315 315 312 308

GFSSW_925_thetae_054.txt.gz
Theta_e
309 309 310 310 309 309 309 309 308 308 308 309 309 310 311 311 309 311 311 315 320 321 316 317 317 320 326 326 324 324 330 333 333 331 330 327 325 323 322 322 321 320 331 334 344
310 310 309 309 308 308 308 308 308 307 307 308 309 310 310 310 309 308 309 314 319 321 321 316 318 323 328 326 324 324 328 330 328 327 326 326 325 323 322 321 320 320 330 334 341
308 308 308 309 309 308 308 308 307 307 306 306 308 309 308 309 309 308 308 313 316 321 320 317 319 324 328 323 323 322 325 326 326 323 321 325 323 323 321 322 320 320 322 334 338
308 309 309 309 309 308 308 307 307 306 306 306 307 308 306 309 311 312 309 311 320 321 319 320 315 323 325 324 322 321 321 321 323 321 321 321 322 322 320 322 321 321 322 327 335
309 309 309 309 309 308 305 306 306 306 306 306 307 307 306 308 309 308 313 313 319 321 319 320 316 322 323 321 321 322 320 319 320 321 320 320 320 319 320 321 321 321 321 321 322
309 309 308 308 308 306 306 305 306 306 306 305 305 305 306 309 307 307 310 317 320 320 319 319 317 319 321 320 320 320 320 320 319 321 321 319 319 318 320 320 320 321 321 319 320
309 308 307 307 307 306 305 305 305 305 305 306 306 305 306 307 307 312 308 315 318 320 320 317 316 319 321 322 319 320 320 320 320 320 321 320 321 320 319 320 320 319 318 318 318
308 308 307 307 307 305 305 305 305 306 304 305 306 305 306 306 305 309 312 313 316 319 318 317 316 318 320 320 320 321 320 322 319 320 320 320 321 319 319 319 319 318 316 316 316
308 307 306 307 306 305 304 304 306 306 306 304 305 306 306 306 307 307 310 314 316 319 319 317 319 320 320 322 322 321 322 321 321 319 319 319 320 318 318 318 318 316 316 315 315
307 307 306 305 305 305 301 302 304 305 305 305 305 306 305 308 307 307 308 315 317 320 319 319 320 322 321 323 326 322 321 320 320 318 319 320 319 317 317 317 315 315 315 316 317
307 307 306 305 302 302 305 305 306 306 305 305 306 306 307 306 309 311 312 315 319 319 322 320 321 323 321 320 318 317 318 318 317 318 318 318 318 318 316 316 316 315 315 314 315
306 306 306 306 304 305 305 305 304 304 306 304 305 304 307 308 311 311 313 317 321 320 319 321 322 319 319 319 318 317 317 316 316 317 318 317 316 316 316 316 316 315 314 314 315
306 306 306 304 304 305 304 304 305 304 307 307 307 308 307 307 311 313 314 317 318 318 320 319 319 317 318 319 318 317 317 315 317 317 316 317 316 316 316 314 313 313 312 311 311
305 306 306 303 305 305 304 304 304 304 310 309 309 308 309 305 308 313 314 316 317 318 319 320 319 320 321 320 318 317 315 316 319 319 317 315 310 314 314 312 312 312 310 311 314
305 306 305 303 306 305 304 304 304 305 313 309 308 309 309 312 312 312 313 316 318 318 319 318 320 321 322 321 317 318 318 319 320 320 320 318 317 317 311 313 312 312 313 314 315
304 306 304 307 306 304 305 305 306 311 316 311 310 314 314 315 314 313 316 315 315 316 313 316 315 318 321 319 318 319 318 318 319 320 324 320 316 314 312 312 311 312 313 313 314
304 304 303 305 307 305 305 306 311 316 311 314 316 312 315 316 314 315 318 319 319 319 319 312 312 314 316 319 319 318 319 320 323 323 323 316 318 315 311 311 311 312 312 313 315
304 303 306 305 306 305 306 311 314 313 315 314 316 316 317 316 316 314 316 320 316 319 320 320 317 313 314 318 318 318 320 321 322 324 319 312 316 313 310 310 311 313 313 314 315
306 307 307 308 306 305 309 314 314 315 311 316 316 317 317 317 316 317 319 319 319 318 320 321 318 312 314 316 317 319 322 312 316 312 316 312 312 310 309 311 311 312 314 314 316
306 308 310 307 307 306 313 315 315 313 314 313 315 315 315 318 318 318 319 316 316 314 313 316 318 314 314 315 314 317 318 320 315 318 319 312 311 310 308 308 311 314 314 314 316
308 312 307 306 307 312 312 313 314 313 312 313 315 314 314 316 317 317 318 315 315 312 313 316 317 317 315 317 317 316 319 318 316 314 318 314 310 309 308 307 311 311 313 314 316
309 317 308 308 317 321 318 314 312 313 312 312 313 314 315 314 315 316 317 316 312 313 315 314 316 319 317 312 312 313 317 316 322 322 311 312 312 308 308 309 309 309 313 315 315
308 311 309 310 322 319 313 313 313 313 311 312 313 313 313 315 315 314 315 313 312 313 314 314 316 316 316 314 312 314 314 314 311 312 314 315 311 308 308 309 308 309 314 314 314
308 313 310 314 312 314 314 314 314 312 312 311 312 312 313 313 313 314 314 313 311 312 310 311 314 315 314 316 315 313 314 313 310 310 314 312 310 309 309 309 310 314 313 314 312
307 307 305 311 315 311 313 314 314 314 312 311 311 312 313 314 313 314 314 313 312 310 311 313 310 305 312 313 313 314 314 314 308 312 310 314 312 309 308 308 313 312 313 315 312
304 303 304 306 309 311 312 315 314 313 313 312 312 311 312 312 312 313 313 313 314 311 312 312 311 310 313 311 311 310 312 312 312 312 312 312 311 310 310 311 313 314 315 315 311
299 301 304 306 310 312 312 312 314 313 313 312 313 312 312 314 312 311 310 310 311 312 311 313 310 310 313 310 311 311 311 311 312 312 312 312 311 311 312 313 313 314 314 312 308

GFSSW_925_thetae_057.txt.gz
Theta_e
311 310 310 309 309 310 309 309 309 309 308 308 308 309 310 312 311 310 311 312 317 320 317 318 316 320 321 326 325 325 331 331 332 332 331 327 327 321 319 319 319 324 332 342 344
309 309 310 310 310 310 309 309 308 308 308 307 307 309 309 309 310 309 309 311 316 320 318 317 317 318 326 326 325 328 331 327 325 328 328 327 326 325 320 320 318 332 340 343 343
309 310 310 310 310 310 309 309 308 308 308 307 306 307 308 307 309 309 309 310 314 320 319 317 316 322 326 323 323 322 329 326 325 324 325 324 327 324 319 320 319 325 334 338 341
310 310 310 309 308 308 309 308 307 307 307 306 307 307 308 307 312 308 313 313 313 319 320 318 317 323 324 325 323 322 322 324 325 324 326 322 320 323 319 319 319 316 331 333 335
310 310 309 308 308 308 307 305 306 307 306 306 307 306 305 307 308 308 309 313 313 319 319 319 318 322 323 323 322 323 321 321 320 319 320 319 319 318 317 318 318 318 318 322 329
309 309 308 307 308 308 305 306 306 306 306 305 306 304 305 307 306 307 307 312 316 318 319 318 313 319 321 322 320 320 321 320 318 320 320 319 318 318 317 317 318 317 318 318 318
309 309 307 308 308 306 306 305 306 306 305 305 306 305 306 306 306 308 310 310 315 317 319 318 316 319 319 320 318 318 322 320 319 319 320 318 320 318 316 317 319 318 317 317 317
308 308 306 307 306 304 305 304 305 304 305 304 306 305 306 304 305 306 309 311 314 317 318 318 317 316 319 319 318 320 320 323 319 319 319 318 321 318 316 317 318 316 314 314 315
308 308 305 306 305 304 301 301 305 306 306 306 305 305 306 306 306 306 306 310 314 316 318 318 317 319 319 320 321 321 322 321 320 318 320 319 319 317 315 316 316 315 314 313 312
308 307 306 306 304 302 304 302 304 305 305 305 305 306 305 307 307 307 307 308 315 318 320 319 319 319 321 320 324 322 320 321 319 318 319 319 318 317 314 314 315 314 312 310 311
306 306 307 302 306 305 305 305 303 304 305 305 306 305 306 306 309 310 308 310 315 319 320 319 319 321 321 319 318 318 319 320 319 317 319 319 319 318 316 315 313 312 312 312 312
305 306 306 303 304 305 304 303 304 303 305 305 306 305 307 307 309 310 308 315 318 319 319 320 319 317 318 319 320 317 318 317 316 317 317 318 317 317 314 313 313 313 312 311 312
304 305 306 306 304 304 303 304 304 304 305 307 306 307 306 307 307 310 312 315 316 318 318 318 317 317 319 319 320 315 314 315 316 316 315 316 315 314 313 313 312 311 310 310 310
304 305 305 303 306 305 303 303 303 304 306 310 308 308 307 304 311 312 313 314 317 319 318 319 317 317 317 319 317 316 314 316 317 316 317 314 313 310 312 312 311 310 309 309 311
304 305 305 305 304 304 304 304 304 304 309 309 308 308 305 307 311 312 312 315 318 316 316 319 318 320 320 319 318 317 316 317 317 316 317 316 314 313 311 312 310 309 309 311 311
303 305 304 306 306 304 304 305 305 304 314 311 307 307 309 307 313 311 315 314 315 316 314 315 314 318 320 320 319 317 316 316 316 317 318 318 315 313 312 313 310 309 311 312 312
304 305 303 305 306 305 305 305 307 308 310 315 315 315 315 315 315 316 317 317 318 319 317 315 313 313 316 319 318 317 317 314 315 314 317 313 316 314 311 309 310 311 311 311 311
304 303 306 305 306 305 306 307 308 312 311 314 316 316 317 316 315 315 318 317 316 314 312 315 317 316 314 317 320 318 315 314 316 317 317 311 318 315 308 308 310 311 310 311 312
307 306 307 308 306 305 308 306 306 308 309 315 316 317 317 317 315 318 317 318 317 316 317 317 315 312 314 316 317 318 315 312 312 311 309 312 311 308 309 310 310 311 312 312 312
305 307 308 307 306 306 308 311 313 311 314 314 315 314 315 318 317 317 317 316 318 316 315 317 317 314 315 316 315 317 316 318 309 315 315 312 311 311 310 310 310 312 311 311 313
307 306 306 306 307 307 310 307 313 313 311 312 314 314 314 316 316 316 316 314 313 312 311 314 313 317 315 317 320 317 319 317 315 310 314 312 309 307 309 308 310 312 311 312 313
303 305 306 307 310 304 305 312 312 312 311 312 312 313 313 315 314 316 315 313 311 312 316 314 314 317 317 314 314 314 317 316 316 318 308 308 309 305 305 306 308 309 312 312 312
301 304 307 308 310 309 312 313 313 312 311 311 312 312 312 313 314 313 313 312 311 312 313 313 314 314 315 312 312 315 315 316 311 311 315 315 311 306 306 308 307 307 311 313 311
301 304 301 305 306 311 312 313 314 311 311 310 311 310 312 312 311 313 313 312 311 310 310 311 312 311 314 315 313 313 314 312 310 307 311 311 309 308 307 308 307 307 311 311 309
299 304 303 301 308 307 309 313 313 313 310 310 310 310 311 312 312 313 313 312 311 309 310 310 306 301 310 314 311 312 313 313 310 311 309 311 308 306 306 306 306 310 311 312 309
298 299 299 301 303 308 309 313 313 313 311 312 311 310 310 312 311 312 312 311 312 309 310 309 306 305 310 310 310 309 310 311 312 310 311 310 311 308 305 306 310 310 313 313 309
297 298 302 302 305 308 309 310 312 311 312 311 311 312 312 313 310 309 308 308 309 309 309 310 306 303 305 309 309 308 309 310 311 311 312 312 311 310 310 310 310 313 313 311 307

GFSSW_925_thetae_060.txt.gz
Theta_e
310 310 311 311 311 311 311 311 310 309 309 309 309 309 309 310 311 312 312 310 313 318 320 320 317 319 322 325 326 325 329 328 328 329 328 325 325 324 318 319 326 329 336 340 343
311 311 311 311 311 310 309 310 309 309 309 309 308 307 308 309 308 311 311 312 312 318 319 318 316 318 323 326 326 328 328 327 324 325 329 327 325 324 319 320 331 342 341 342 342
311 311 311 310 309 308 308 309 308 307 308 308 307 307 308 307 308 309 310 312 312 315 319 317 316 319 326 323 325 327 328 325 325 325 327 328 327 325 322 319 325 342 341 340 338
310 309 310 308 308 308 308 307 306 305 306 306 306 307 307 306 308 307 309 313 314 313 319 316 315 322 323 325 323 325 324 326 326 324 327 327 325 324 321 319 318 332 338 337 337
310 309 307 308 308 308 307 305 306 307 306 306 306 307 305 306 307 307 308 307 314 313 319 316 317 321 322 322 324 322 323 323 325 326 326 325 325 325 321 318 317 325 331 334 334
310 308 307 308 308 307 306 306 306 306 306 304 306 305 305 306 304 305 305 308 314 314 318 318 316 319 320 322 324 322 322 322 321 320 324 326 325 323 318 315 317 317 317 317 326
310 308 307 307 307 306 305 305 306 306 305 305 306 304 305 304 304 306 308 310 312 315 318 318 315 319 317 321 319 320 323 320 320 318 319 321 324 321 317 315 317 316 316 317 315
309 307 307 306 306 306 304 304 305 306 306 306 306 305 305 303 304 304 307 309 313 315 317 318 317 316 318 317 317 319 321 324 320 319 319 317 319 318 316 315 316 316 315 314 313
307 306 307 306 306 305 305 304 305 304 305 306 305 305 305 305 306 305 305 309 312 314 312 318 316 316 318 318 320 320 323 322 321 318 319 317 319 316 315 314 315 314 314 313 312
306 305 306 307 302 306 307 304 304 305 305 305 305 305 305 307 306 308 308 307 309 315 315 320 317 319 316 319 323 323 321 322 321 319 319 319 317 317 315 313 314 313 313 312 311
305 305 306 307 303 304 305 304 301 302 304 303 304 305 304 306 308 309 308 308 309 317 320 318 319 320 319 317 317 318 319 321 319 317 319 319 318 317 315 314 313 312 312 311 312
304 305 305 306 304 304 303 303 303 303 304 305 305 307 307 306 309 308 308 309 315 321 318 320 321 317 317 318 318 318 317 319 317 317 317 317 318 316 315 314 312 312 311 310 310
304 304 305 306 305 304 303 304 304 303 305 307 306 306 306 306 309 309 308 310 315 319 318 319 317 317 319 319 320 317 317 315 316 316 315 315 315 315 313 312 312 311 311 310 308
303 304 305 306 306 305 303 303 303 304 301 310 309 308 308 305 311 309 309 314 313 319 318 318 316 318 318 319 317 319 313 314 315 317 320 314 317 309 312 312 310 309 307 308 309
303 305 305 305 304 304 303 303 305 304 312 311 309 306 307 309 308 313 311 315 316 318 316 320 317 317 318 318 316 316 314 315 315 316 315 315 314 310 310 311 310 308 306 306 309
304 305 304 306 306 304 304 304 304 302 314 310 307 310 311 310 311 310 313 315 315 316 314 315 313 316 319 318 318 315 315 314 314 315 318 316 313 311 310 310 310 307 308 309 309
304 304 304 305 306 305 305 303 302 310 309 315 317 313 314 315 314 311 317 317 318 318 318 314 314 314 315 319 317 316 314 317 319 319 316 313 314 314 310 309 308 308 310 310 309
306 303 304 305 306 305 306 302 306 310 310 313 316 315 316 315 314 317 316 317 314 313 315 317 319 317 314 317 319 318 314 311 317 316 315 311 317 315 308 306 308 309 311 309 310
306 305 307 307 305 305 302 302 305 304 306 314 314 317 318 316 315 317 315 317 315 313 315 316 315 313 314 316 317 318 320 312 310 309 308 311 311 308 309 308 308 309 310 310 311
306 306 307 307 306 306 303 310 309 310 312 313 315 313 315 317 318 317 318 316 317 315 312 313 316 314 316 315 315 317 314 317 308 312 314 311 310 311 311 310 310 311 311 311 311
307 305 307 306 306 303 304 305 312 312 311 312 313 313 314 315 315 317 315 316 313 315 312 311 311 315 316 319 319 318 320 316 313 309 314 313 309 305 309 311 312 312 310 309 312
301 305 306 306 311 301 302 309 311 312 310 311 310 312 313 313 313 315 314 313 310 310 314 313 311 316 316 315 315 314 317 317 317 312 305 306 308 305 304 308 310 311 311 310 311
301 302 306 307 308 305 310 312 312 312 310 310 311 311 311 312 313 313 312 311 310 311 313 312 310 309 316 312 313 317 315 314 311 309 305 309 310 306 304 307 309 310 311 312 311
299 300 299 303 303 309 310 312 313 310 310 309 310 310 311 311 310 313 312 311 310 309 311 311 311 311 312 311 310 310 315 313 313 312 315 310 312 308 307 308 306 307 309 312 310
296 301 301 300 306 304 307 311 313 313 310 309 310 310 311 312 312 313 312 311 311 309 309 308 305 302 309 313 310 311 314 313 313 316 316 316 310 307 307 308 307 306 310 311 309
297 297 297 299 301 305 308 311 313 313 311 311 310 310 309 311 309 311 311 310 311 309 310 306 305 304 308 310 310 309 310 312 312 312 310 310 311 308 306 305 306 307 311 312 309
296 296 298 299 299 307 308 309 311 309 312 310 310 311 311 311 309 308 307 307 309 308 309 308 304 301 303 308 307 308 308 309 310 310 311 312 311 309 307 305 308 309 311 311 309

GFSSW_925_thetae_063.txt.gz
Theta_e
312 311 312 312 312 311 310 310 310 310 309 310 310 310 309 309 310 311 311 312 312 318 319 319 320 318 322 325 326 325 329 327 327 328 327 325 326 323 322 317 328 334 338 339 341
310 311 310 310 309 309 309 309 309 309 308 309 309 309 308 308 307 308 308 312 314 315 318 318 316 318 323 325 327 328 329 327 323 325 328 327 327 325 323 322 334 342 340 340 341
311 311 310 307 309 309 309 309 308 306 306 305 307 307 307 307 308 306 304 312 314 314 316 317 316 317 323 323 325 327 328 325 323 324 327 328 328 323 322 322 320 336 342 338 339
311 310 308 308 309 309 308 307 305 305 305 306 306 307 307 306 306 309 308 311 314 315 314 317 315 319 321 325 322 328 325 324 325 327 327 327 326 325 322 320 319 316 337 335 336
311 309 307 308 308 307 306 306 307 307 306 306 305 307 305 305 306 306 307 309 311 310 314 316 316 317 321 322 322 323 325 324 327 326 326 325 326 324 322 320 319 317 335 334 333
310 308 307 307 307 306 305 306 307 306 306 305 306 306 305 304 303 305 304 305 309 312 314 316 315 316 320 322 323 322 322 325 325 325 326 326 324 323 321 318 315 330 333 333 333
308 308 307 306 306 305 305 305 306 306 304 305 306 304 304 303 303 305 304 305 310 314 314 317 314 318 317 320 319 321 323 322 323 323 324 325 325 324 320 319 315 315 317 317 324
307 308 306 307 306 306 306 306 306 307 306 306 306 305 303 303 305 304 304 305 312 313 313 314 316 316 317 316 317 320 322 324 321 320 320 324 328 324 321 321 316 313 313 313 314
305 305 306 306 307 305 305 307 305 306 305 306 305 304 304 305 306 305 307 308 311 313 311 315 315 317 317 317 318 319 322 322 321 320 321 323 320 321 322 321 319 314 312 312 312
304 305 305 306 307 307 304 304 304 305 304 305 305 304 304 305 306 306 307 308 309 314 314 319 316 317 316 317 322 321 320 321 321 320 319 321 317 317 316 315 317 318 311 311 312
304 304 305 306 307 306 303 304 300 300 303 304 304 305 305 306 307 308 308 308 308 314 316 319 318 320 317 316 316 316 318 321 318 318 320 320 318 317 314 312 310 310 310 310 310
304 304 305 306 306 305 303 303 302 302 304 305 305 305 306 305 309 308 307 309 311 315 314 317 317 316 317 317 317 317 319 320 318 317 319 318 319 318 317 313 311 310 309 309 309
304 304 305 306 305 304 303 304 304 303 304 307 306 306 306 306 309 308 308 309 312 315 314 315 317 316 319 319 318 316 317 316 318 315 314 316 317 316 315 312 312 310 309 309 308
304 304 305 306 305 304 303 303 303 303 298 310 309 308 308 305 311 307 308 311 312 316 317 318 317 318 318 319 317 318 314 314 316 317 319 315 320 312 313 313 312 311 308 308 306
304 305 306 305 304 303 304 303 304 303 306 310 309 306 308 309 310 311 311 313 314 318 317 318 318 318 319 318 315 317 312 314 315 316 315 314 316 314 309 311 313 311 306 305 304
304 305 305 305 306 305 304 304 303 299 308 311 309 311 311 311 311 310 313 314 315 317 315 315 312 315 319 318 316 314 313 313 313 314 316 315 315 314 310 309 309 309 305 304 307
304 304 304 305 305 304 304 301 303 306 308 314 316 312 313 314 315 314 315 316 317 318 320 317 315 314 315 318 317 314 313 316 319 319 317 312 314 316 310 307 307 307 305 305 307
304 304 304 305 305 305 305 299 307 311 312 313 315 314 316 314 315 316 316 317 314 314 315 318 319 316 313 316 318 316 312 312 317 318 316 311 316 315 310 308 306 306 306 308 308
305 305 307 307 305 305 302 301 305 301 303 312 314 316 316 314 315 314 315 317 314 312 314 314 315 313 315 315 315 317 315 309 308 306 308 311 310 308 307 307 306 307 309 309 309
306 306 307 306 305 305 300 306 308 308 310 313 314 312 316 315 316 315 316 314 316 313 311 311 317 314 316 315 315 316 313 317 306 309 312 310 310 311 309 308 308 309 309 309 309
306 305 306 306 306 301 300 300 311 310 311 311 312 313 314 315 314 315 315 315 314 314 310 309 311 315 317 318 318 319 319 316 312 307 311 313 310 304 306 306 308 309 309 309 310
300 305 306 306 310 300 301 308 311 311 310 310 310 311 313 312 314 314 313 313 310 312 313 310 310 315 317 313 315 317 318 313 311 310 304 304 309 305 302 304 308 310 310 309 310
300 301 305 307 305 302 307 311 311 311 310 309 310 310 310 311 314 313 312 310 310 310 312 311 307 315 317 314 313 318 316 314 310 306 304 309 312 305 304 307 309 310 310 310 310
298 300 298 300 301 308 308 311 311 309 309 308 309 309 310 311 309 312 311 310 309 309 311 311 309 307 310 310 311 316 317 314 311 312 316 309 311 310 306 307 308 309 309 310 310
295 299 298 299 306 304 306 309 312 312 309 308 309 309 310 311 311 312 311 310 310 309 308 309 309 302 307 312 309 309 312 315 311 316 315 316 313 312 308 307 307 307 309 311 309
295 296 295 297 299 303 306 309 312 310 310 310 309 310 309 310 309 311 310 310 311 308 309 305 304 302 308 309 309 308 308 313 315 315 314 313 311 308 306 305 305 305 308 311 310
294 296 295 298 297 303 303 304 309 308 311 309 310 311 310 311 308 306 307 306 308 307 308 307 303 301 302 306 306 307 307 308 311 310 313 312 314 308 307 305 305 305 307 309 309

GFSSW_925_thetae_066.txt.gz
Theta_e
311 311 312 311 308 309 310 310 310 309 309 309 308 310 310 309 309 309 310 311 313 315 318 318 319 318 322 323 325 324 329 327 326 327 327 325 326 323 321 320 322 337 337 337 342
312 313 311 308 309 310 310 309 309 309 307 306 308 308 307 308 307 307 306 310 313 315 316 318 317 318 322 323 325 327 329 326 322 325 327 327 326 323 322 320 325 321 336 339 343
311 312 309 308 309 309 308 307 307 306 304 306 305 306 307 306 306 305 306 309 312 315 315 317 316 317 321 322 323 326 328 324 323 327 327 327 327 322 322 322 319 320 319 335 340
310 311 309 308 308 307 306 307 307 307 306 306 306 305 306 305 300 308 310 309 312 315 314 316 316 317 319 323 322 326 325 325 327 326 326 326 325 325 322 321 319 317 317 332 336
309 310 308 307 307 306 306 307 307 307 307 306 306 306 305 305 305 304 307 309 311 313 314 315 317 316 318 320 321 323 324 324 326 325 325 325 325 325 323 320 317 317 323 333 333
308 309 308 307 306 306 305 306 306 306 305 306 306 306 304 302 303 304 304 305 307 310 311 314 317 315 317 320 322 321 323 325 326 326 326 325 323 322 321 318 317 317 320 331 331
306 307 308 307 307 306 306 306 307 307 305 305 306 304 304 302 303 305 304 304 305 307 313 313 315 316 317 321 319 320 326 326 326 326 327 323 325 322 320 318 318 317 312 317 326
305 306 307 306 307 306 307 308 308 306 306 306 306 304 302 302 305 304 304 304 307 311 313 314 316 315 316 316 318 322 323 328 324 325 324 322 326 323 321 320 320 318 312 311 312
305 304 305 305 306 307 307 307 307 306 304 305 304 303 303 304 306 305 305 307 309 313 314 314 315 316 315 317 319 322 322 321 324 323 324 322 323 320 322 321 320 320 315 311 310
305 304 304 305 306 307 306 304 304 304 304 305 305 303 304 305 306 306 306 306 310 312 312 313 315 316 315 318 321 320 319 320 322 321 324 322 319 322 321 321 320 320 319 312 311
305 304 304 305 306 306 304 304 300 300 302 303 303 304 305 306 306 307 306 307 309 313 312 309 316 318 317 315 314 315 317 319 318 320 322 324 321 318 319 320 320 319 319 315 311
305 304 304 305 306 306 303 301 301 302 304 303 306 304 306 305 308 307 307 309 312 314 312 311 316 314 315 314 316 316 316 319 317 317 320 318 320 317 315 318 319 318 318 316 309
305 304 304 305 305 304 303 304 303 303 304 307 307 306 307 306 309 308 308 309 311 313 312 315 314 315 318 316 317 315 316 316 317 315 314 317 319 317 316 316 313 313 311 307 307
304 304 305 305 305 303 302 303 303 303 302 310 308 307 308 306 310 307 309 310 312 315 314 315 316 317 318 318 315 318 314 314 315 316 320 315 321 315 316 317 314 314 314 309 306
304 305 305 305 303 303 303 303 304 302 304 311 309 306 308 310 310 310 310 312 312 316 313 317 318 317 319 318 315 316 312 313 314 314 315 314 317 316 309 317 317 315 313 308 306
304 306 305 305 305 304 303 304 303 298 304 309 311 311 311 311 311 310 313 313 313 316 315 316 313 315 318 316 314 312 312 312 311 312 312 314 315 315 310 311 310 309 311 310 306
304 304 304 305 304 304 304 301 300 306 308 310 315 313 314 315 315 314 316 314 314 318 318 317 316 315 314 317 316 312 313 312 315 313 314 312 313 316 312 307 307 308 306 304 303
304 304 305 305 305 305 305 298 305 308 313 313 315 314 316 315 315 314 316 317 313 314 315 316 320 315 313 315 317 315 312 311 316 317 314 310 315 314 310 308 306 306 305 304 305
305 305 306 306 305 305 301 298 303 300 303 312 315 316 316 314 315 314 315 316 313 312 315 312 316 313 315 314 314 316 316 308 306 305 306 311 309 307 306 307 306 304 306 306 307
305 305 306 306 305 305 299 305 307 306 309 312 312 311 316 314 314 313 314 314 315 312 310 310 315 314 315 314 314 315 311 316 305 310 313 309 309 311 308 307 306 307 307 307 308
305 304 305 306 305 300 300 299 309 309 310 311 311 312 312 312 313 314 313 315 314 312 308 308 310 315 314 315 315 318 316 314 310 307 310 311 311 304 306 304 303 305 307 308 308
300 304 305 306 308 301 301 306 310 310 309 310 309 310 312 312 314 313 314 312 311 311 312 309 309 315 316 312 313 315 317 312 312 310 303 304 309 305 303 302 302 306 308 308 309
300 300 303 306 303 300 306 310 310 310 309 309 310 309 309 310 313 312 311 309 309 310 311 310 308 316 315 313 313 318 317 316 309 305 304 312 312 305 304 305 307 308 308 308 309
297 300 298 299 300 306 308 310 311 309 309 308 308 308 310 310 309 311 311 310 308 309 312 309 307 307 309 309 310 317 315 317 315 319 317 311 311 310 309 306 306 308 308 307 309
294 298 296 299 302 303 305 308 311 312 308 306 308 309 309 310 311 311 310 310 308 312 307 309 307 300 307 309 308 310 312 314 315 317 318 316 314 313 311 308 305 305 307 308 309
294 295 294 296 298 304 304 307 310 309 310 310 309 310 309 310 309 310 310 309 310 307 308 303 303 301 308 308 310 307 308 311 314 315 314 314 314 311 308 304 305 306 307 310 310
293 294 295 296 296 303 299 299 307 304 309 308 310 310 309 310 308 306 305 305 307 307 307 306 302 301 303 305 305 307 307 308 310 311 313 316 314 310 309 307 305 305 305 308 309

GFSSW_925_thetae_069.txt.gz
Theta_e
312 313 312 309 309 310 309 309 309 309 309 309 309 309 309 309 309 309 309 309 311 315 317 318 318 319 324 324 324 323 329 329 327 327 327 326 326 323 321 322 329 329 337 338 340
311 312 310 308 309 308 307 307 308 308 306 307 306 307 308 308 308 307 306 309 311 314 315 317 318 318 323 325 326 328 329 327 323 325 328 327 326 324 323 321 322 320 320 334 341
310 312 310 308 308 307 307 307 308 308 306 305 305 306 306 307 304 303 311 309 310 313 315 317 317 318 321 322 325 326 329 324 323 327 327 327 327 322 323 323 321 320 320 323 339
309 310 309 307 307 307 307 307 307 307 307 307 307 305 304 304 302 307 309 311 310 312 314 316 316 319 320 324 323 327 326 324 327 326 326 326 325 324 323 323 320 318 319 319 337
307 309 310 308 306 306 306 306 306 306 306 306 306 305 305 304 304 303 306 307 310 312 314 317 318 317 317 321 323 325 326 324 325 325 325 325 324 324 323 321 318 318 317 330 333
306 307 308 308 308 307 306 307 307 307 305 305 306 305 303 301 302 304 304 305 311 311 313 314 317 315 317 320 323 322 323 325 326 326 325 326 324 323 320 318 319 319 318 316 331
307 305 307 308 306 308 306 307 308 307 307 306 306 303 303 301 302 303 304 304 307 310 310 313 314 316 315 320 320 321 324 324 326 326 326 323 326 325 321 319 320 319 318 316 313
307 305 305 306 305 307 307 307 308 307 305 306 305 303 302 302 304 305 304 304 307 308 308 313 313 316 316 316 320 321 323 326 326 326 324 324 328 323 322 321 322 320 319 317 315
306 305 304 304 305 306 307 307 306 305 305 304 304 303 302 304 305 305 306 307 308 310 311 314 314 317 315 320 321 322 324 324 326 325 325 324 326 322 322 322 322 321 320 318 316
306 305 304 304 305 306 306 303 304 304 304 304 304 302 303 304 305 306 306 307 309 311 314 314 311 317 316 320 321 323 321 321 324 326 324 324 322 323 322 322 323 321 320 318 317
305 304 304 304 305 306 304 303 299 300 302 303 303 304 304 306 306 306 306 307 309 312 314 308 310 317 318 315 314 316 319 320 320 322 325 324 321 322 322 321 322 323 320 318 318
305 304 304 304 305 306 303 300 301 302 304 303 305 304 305 305 306 307 306 309 309 313 310 311 314 313 315 315 315 317 319 318 316 320 322 323 323 319 320 321 321 321 320 318 317
305 304 305 305 305 305 302 303 303 303 305 307 307 306 307 306 308 307 308 308 310 312 312 313 315 312 316 315 316 315 317 317 318 317 315 318 321 320 316 318 318 319 318 316 315
305 305 305 305 304 303 302 303 303 302 300 311 309 307 308 307 309 307 309 310 311 313 313 313 314 316 317 316 315 318 314 315 316 318 323 317 323 319 318 317 317 318 318 317 314
305 305 305 305 303 303 302 303 303 301 309 310 309 306 308 309 309 310 310 312 313 314 313 316 315 318 318 317 314 315 312 314 314 315 315 314 320 317 315 318 318 316 316 315 314
305 306 305 305 305 303 302 303 303 298 304 310 311 311 311 311 311 311 313 312 314 313 313 316 313 315 317 315 313 310 312 311 311 314 321 316 319 317 314 315 315 317 316 315 314
305 304 305 305 304 303 304 301 299 305 305 310 314 313 314 314 314 314 315 314 317 315 317 316 317 315 314 317 314 312 312 318 321 320 319 311 314 317 314 310 309 310 311 312 311
304 304 305 304 304 304 304 299 305 306 312 312 315 314 316 315 314 315 314 316 314 315 317 320 319 316 313 315 317 314 311 314 317 318 316 310 316 316 311 309 307 306 306 306 305
304 305 305 305 305 305 302 296 305 301 303 312 315 314 315 314 315 315 315 316 313 311 314 315 319 314 315 313 314 316 313 307 307 304 310 311 310 307 306 307 307 307 305 307 306
305 305 306 305 305 304 298 305 306 304 308 311 312 311 314 314 315 313 314 314 315 311 309 310 317 315 315 313 314 314 309 315 309 311 315 310 309 312 309 308 305 304 306 307 307
305 303 305 305 305 300 298 299 308 307 309 310 310 311 311 312 312 313 313 314 313 310 307 308 311 316 314 315 319 317 316 311 310 309 314 313 312 305 308 305 304 303 304 307 308
300 304 305 306 307 301 299 305 309 310 309 309 309 310 311 310 312 312 313 312 311 309 311 308 309 316 315 313 312 313 313 312 314 312 304 308 312 306 304 303 302 305 307 307 308
299 300 302 305 302 298 305 309 309 310 308 308 309 309 309 311 313 311 311 308 310 310 310 309 309 314 315 313 311 316 314 312 309 309 306 316 314 305 303 305 306 308 308 308 309
296 299 297 298 298 305 307 309 310 308 308 307 307 307 310 310 308 311 310 309 307 309 312 308 307 308 311 310 310 314 315 315 314 317 315 314 314 311 310 309 307 307 308 308 309
293 297 296 298 302 302 305 307 311 311 307 306 307 308 309 310 310 311 310 309 307 310 306 308 307 300 307 308 310 311 313 315 317 315 316 314 314 313 312 311 310 306 306 307 308
294 295 292 295 297 303 301 305 308 307 308 309 308 309 308 309 308 309 309 309 310 307 307 304 304 301 308 307 309 308 309 310 313 314 313 314 315 313 311 307 306 306 305 307 308
293 294 295 295 296 302 298 298 305 302 308 306 308 309 308 308 306 305 305 304 306 307 307 309 304 303 305 304 305 307 307 308 310 311 312 315 314 312 311 310 308 308 304 306 308

GFSSW_925_thetae_072.txt.gz
Theta_e
312 312 312 309 309 309 308 308 309 308 308 308 309 309 307 310 310 310 311 309 311 315 317 318 319 321 325 326 326 327 332 332 328 326 326 327 328 325 323 328 326 326 336 337 341
310 311 311 309 309 307 308 308 308 308 308 308 307 307 307 307 309 309 309 309 310 314 316 317 320 320 323 324 327 328 331 329 326 325 325 328 328 326 326 328 326 326 327 333 343
308 310 311 309 308 307 307 307 307 307 308 307 306 306 307 306 305 306 308 311 310 312 315 318 318 319 321 324 325 326 329 326 326 324 327 328 328 325 326 328 325 325 326 325 342
308 307 310 309 308 307 307 307 307 307 306 306 306 305 304 304 307 307 308 310 312 311 314 316 318 320 320 323 323 327 325 326 325 325 325 327 326 327 326 327 324 322 325 324 339
309 307 308 309 308 308 307 307 307 307 306 306 306 306 305 304 303 303 305 308 311 311 314 316 318 319 320 320 323 325 324 325 324 326 325 325 326 326 326 324 322 322 323 333 333
310 307 306 308 308 307 308 307 309 308 307 306 306 304 303 302 302 304 304 307 311 311 314 315 318 317 317 319 323 322 323 325 325 326 326 325 325 324 324 322 323 323 323 323 328
309 306 306 306 307 307 308 307 308 308 307 306 306 304 304 302 302 304 304 306 310 312 314 314 317 316 316 317 320 322 325 325 325 326 326 325 326 326 324 323 323 323 323 322 321
308 306 305 304 306 306 307 308 308 308 305 307 306 304 303 302 304 305 305 305 308 310 309 312 314 316 318 318 320 323 323 327 326 326 326 325 330 325 324 323 324 323 323 323 321
307 306 304 304 305 305 307 307 307 305 305 305 305 305 305 304 306 306 307 306 308 310 308 313 314 316 318 320 321 322 323 325 326 325 326 327 327 324 322 323 323 323 324 323 322
306 305 304 304 305 305 307 304 305 304 305 305 305 306 305 306 306 306 307 308 308 310 311 314 311 315 318 320 321 320 322 322 325 327 326 327 326 323 323 324 324 323 324 324 322
306 305 304 304 305 305 305 303 304 305 304 306 306 305 305 304 306 307 307 308 308 308 314 311 313 316 317 317 315 317 320 322 322 325 326 325 324 323 322 322 323 323 323 323 323
305 304 305 304 305 305 303 303 303 304 307 305 306 306 305 304 307 307 307 309 309 308 311 313 316 315 315 316 316 319 320 322 323 325 326 325 326 323 321 322 322 322 323 323 323
305 305 305 305 305 305 303 304 303 303 308 308 307 307 308 307 308 307 308 309 308 311 313 314 315 314 317 317 318 318 319 321 322 325 323 324 326 324 322 320 321 321 320 321 323
305 305 305 305 305 303 303 303 303 303 312 311 310 308 308 308 309 307 308 309 311 313 313 314 314 316 318 316 317 320 318 320 322 324 322 322 319 321 322 322 320 321 320 321 322
305 305 305 304 304 305 303 303 303 304 317 310 310 307 309 309 309 310 310 311 312 313 313 315 316 317 319 317 317 318 318 319 320 319 319 321 321 317 319 321 321 320 320 320 320
304 306 305 305 304 303 302 303 303 311 317 310 311 311 312 311 311 311 313 312 312 313 315 316 314 317 318 316 316 314 317 318 319 319 322 318 319 318 318 318 318 319 319 319 319
304 305 305 305 307 303 304 304 313 317 309 314 315 313 313 311 311 314 314 315 316 319 319 317 316 317 316 317 315 317 319 322 321 323 320 316 320 317 317 316 315 316 317 319 319
304 305 304 304 304 304 304 307 318 311 314 312 315 314 315 314 314 315 315 317 315 316 318 321 322 318 316 317 318 319 318 320 318 319 318 315 319 317 316 314 313 312 313 312 312
304 304 305 304 304 304 305 315 316 314 313 315 315 315 315 315 315 316 315 317 315 316 320 318 319 316 316 316 316 317 319 311 315 312 317 317 316 315 312 314 312 312 311 312 312
304 306 306 304 305 304 308 313 311 306 311 313 315 314 314 314 316 316 317 314 316 313 311 315 320 316 316 316 316 317 313 318 320 321 318 314 314 314 314 314 312 311 310 310 311
305 310 305 305 305 305 314 313 311 309 310 313 313 314 314 315 315 315 315 315 314 312 311 313 316 318 316 317 320 318 318 317 316 317 317 315 314 312 313 312 311 312 312 311 311
306 312 304 305 309 304 312 309 309 312 311 311 311 313 314 314 315 315 316 314 314 311 313 311 316 318 317 314 314 316 318 317 320 319 315 316 316 311 311 310 310 313 313 312 312
307 308 302 305 314 313 310 311 311 311 310 310 311 311 311 315 316 314 314 310 313 312 313 312 315 318 316 314 313 317 318 316 315 316 319 319 316 310 309 310 311 313 313 313 313
304 310 304 305 304 310 311 312 312 309 309 308 309 309 311 313 312 314 313 311 310 312 311 311 313 315 317 315 315 317 316 317 318 322 318 317 315 314 314 314 314 314 314 313 314
300 304 303 311 308 308 308 310 312 312 310 309 310 311 311 313 313 314 312 311 311 311 310 312 318 310 310 311 314 315 315 317 318 318 320 316 315 314 314 314 314 314 312 311 312
302 302 299 302 302 307 306 310 311 310 310 311 311 311 310 311 310 313 313 312 314 310 311 309 315 309 311 310 312 313 313 314 316 316 316 316 316 314 314 314 315 314 314 313 312
294 296 303 298 302 308 306 305 306 305 308 308 310 311 311 311 310 307 308 308 310 312 313 315 312 313 317 308 309 312 311 312 313 314 315 317 315 313 313 312 312 313 312 313 312

GFSSW_925_thetae_078.txt.gz
Theta_e
313 311 309 312 311 309 309 308 308 309 308 309 308 308 309 308 309 311 311 311 312 314 313 316 316 318 320 323 324 326 332 334 331 330 327 325 327 326 325 330 328 333 337 344 345
311 312 310 309 312 310 308 308 308 308 308 307 307 308 304 306 308 309 309 310 312 313 313 315 317 317 321 323 326 327 332 332 328 327 327 326 326 325 328 328 329 332 341 342 344
311 311 311 308 309 311 310 309 308 308 309 307 307 307 303 306 307 306 308 308 309 311 313 314 316 318 321 322 324 326 329 328 328 328 327 324 327 326 326 328 326 326 340 343 344
310 311 311 309 307 310 310 310 308 308 310 308 307 307 303 307 309 306 306 308 306 310 313 313 317 319 320 322 323 327 326 325 328 328 328 327 325 326 327 326 324 324 336 340 343
310 310 310 309 307 307 310 308 309 308 309 308 307 306 306 306 304 305 306 306 307 310 312 314 317 318 320 319 322 325 326 325 325 326 327 328 325 325 327 324 323 324 335 340 340
309 310 310 309 307 306 308 309 309 308 309 308 307 305 306 306 303 304 305 307 310 311 312 313 316 317 317 317 320 322 322 325 324 325 324 326 326 325 324 324 323 324 327 336 340
309 309 309 307 306 306 307 308 308 308 309 307 307 307 306 305 304 305 305 307 310 311 313 313 315 317 317 319 317 318 324 326 325 326 325 326 330 326 323 324 324 323 324 325 326
309 309 309 307 305 305 306 306 308 309 308 306 306 307 307 305 306 306 306 307 310 312 312 314 315 316 318 318 317 320 321 325 324 326 325 326 326 324 322 322 324 324 323 323 323
309 308 307 306 305 306 305 306 308 307 306 305 307 307 308 306 306 306 306 308 310 311 312 313 314 317 317 320 320 322 324 322 324 322 323 324 327 325 322 322 323 323 323 322 322
308 307 306 305 305 305 305 305 306 304 307 307 307 308 307 306 306 307 306 307 309 311 312 313 314 316 317 322 323 322 320 321 321 324 321 324 325 325 323 321 320 321 321 321 322
308 307 306 305 305 306 305 308 308 307 307 307 307 307 308 306 307 307 307 307 309 310 312 310 315 319 317 315 318 317 317 318 318 322 325 325 326 325 324 324 323 320 321 321 321
308 306 306 305 305 305 306 308 307 307 309 308 308 307 307 306 307 307 307 308 309 312 311 312 316 315 317 316 319 318 317 318 319 324 326 325 324 322 323 323 323 322 321 321 321
307 306 305 305 305 305 308 306 306 306 310 310 308 308 308 307 309 308 308 308 309 310 310 315 314 314 316 318 320 320 318 319 323 324 323 323 323 321 322 321 321 321 321 321 321
306 306 305 305 305 308 306 306 305 306 312 312 310 308 309 308 308 308 309 309 309 311 310 310 314 316 316 318 319 320 317 319 322 324 326 321 319 321 319 321 322 320 319 318 319
305 305 305 305 308 307 307 305 305 306 317 312 310 309 310 310 308 309 309 310 310 310 312 315 315 316 319 318 318 319 317 320 322 323 321 323 321 316 318 320 321 320 318 318 318
304 304 305 305 307 306 305 305 306 312 314 312 313 312 312 312 311 310 311 308 311 310 311 315 315 316 319 318 317 317 320 320 321 321 318 319 319 316 316 318 319 318 319 317 318
302 305 306 308 308 306 306 307 313 317 312 313 314 312 311 312 312 311 312 313 316 315 318 317 318 318 318 319 318 318 321 320 318 317 318 316 316 315 315 315 317 315 316 315 316
303 305 306 307 306 306 306 310 315 314 314 313 315 313 314 313 314 315 314 314 316 317 316 316 318 319 318 318 318 318 317 318 317 317 317 316 317 314 314 314 313 314 314 314 313
305 307 307 307 305 305 309 313 319 315 312 315 314 316 315 315 314 316 316 316 316 314 318 318 319 316 318 317 318 318 319 314 318 315 315 316 315 314 314 314 314 313 313 314 314
307 307 307 307 305 307 309 314 315 314 314 314 319 316 317 315 316 316 317 316 317 316 313 316 317 316 318 317 317 319 316 317 315 315 316 316 315 314 312 312 311 311 311 311 311
308 309 307 307 305 309 310 313 314 312 313 315 315 315 313 315 316 317 318 315 315 315 313 316 316 318 318 319 318 318 320 318 316 315 319 315 313 311 312 312 313 312 313 313 313
308 312 306 305 310 308 311 313 311 313 312 314 313 315 314 315 316 316 317 316 315 313 315 314 318 317 320 317 317 318 317 316 316 318 315 314 315 312 311 312 313 313 314 313 313
310 307 304 305 311 311 313 313 313 313 313 313 314 313 315 315 317 316 316 314 313 313 315 314 316 317 317 316 315 317 318 318 316 315 317 315 314 311 311 311 311 313 313 312 313
310 309 306 306 307 311 314 314 313 312 312 311 312 312 313 315 314 316 315 314 314 314 312 313 315 317 317 316 316 315 316 316 318 316 318 317 315 312 311 311 311 311 312 312 312
307 311 307 309 310 311 313 313 313 312 311 311 312 313 313 314 315 316 314 314 314 312 312 314 314 306 312 314 316 316 315 314 314 316 313 315 314 313 312 312 312 312 311 311 312
305 306 305 310 310 311 311 313 313 313 312 312 312 313 312 314 313 315 314 314 315 312 313 312 313 311 314 313 313 314 314 314 315 315 315 315 316 314 313 313 311 310 310 310 310
301 301 305 307 309 311 311 313 313 312 311 312 313 312 313 313 311 309 309 310 312 314 314 314 311 312 313 311 311 312 312 314 314 314 315 317 315 313 311 311 310 311 310 310 309

GFSSW_925_thetae_081.txt.gz
Theta_e
312 311 313 310 309 313 311 308 308 308 309 309 308 308 308 307 307 308 310 311 311 313 315 314 316 315 317 321 323 325 329 329 328 328 327 324 326 325 324 328 332 335 339 341 342
310 311 312 312 309 310 312 310 309 308 309 309 308 308 307 307 307 307 309 311 311 311 313 313 315 316 318 322 325 327 329 327 326 327 324 324 324 324 327 329 337 342 340 344 343
310 311 312 311 308 308 310 311 310 308 309 310 307 307 307 307 307 306 306 309 310 310 312 313 313 317 319 320 322 325 329 327 329 331 328 325 326 325 326 327 325 344 343 342 343
310 310 311 311 309 308 308 311 309 309 309 309 307 307 307 306 306 305 305 308 309 310 310 312 313 316 319 321 322 326 326 326 328 327 328 328 325 327 325 324 323 336 342 342 343
310 310 310 310 309 307 307 309 309 310 308 309 308 307 306 307 305 304 308 305 306 308 310 313 314 317 319 317 321 323 325 325 325 327 326 327 327 326 324 322 322 337 339 340 339
310 309 310 309 307 306 306 307 309 309 308 309 308 307 306 307 303 305 305 306 305 308 309 311 314 315 317 317 321 322 323 324 325 326 325 326 328 324 323 321 321 337 338 339 340
310 310 309 309 307 306 305 307 308 308 309 309 307 307 307 307 304 305 306 306 309 310 310 312 313 316 316 317 317 321 322 322 323 325 325 324 329 326 321 321 322 325 334 336 337
310 309 309 308 306 305 306 306 307 308 308 308 307 307 309 305 305 306 306 308 309 311 312 313 314 316 317 316 319 322 322 325 322 325 325 324 330 325 321 321 321 320 322 323 325
310 309 308 307 306 305 305 306 307 308 307 307 307 307 308 305 306 306 307 307 310 311 312 311 314 316 316 319 320 321 322 325 324 323 325 325 326 322 322 320 321 321 320 321 321
310 309 307 306 305 305 306 305 305 307 305 307 307 307 307 307 306 306 307 306 310 311 311 312 313 314 316 320 322 322 321 322 324 323 323 324 323 321 322 321 320 320 320 319 321
309 308 306 306 306 306 305 307 306 306 305 307 308 307 307 306 307 307 307 307 309 309 312 310 311 314 314 317 317 318 319 320 321 323 323 321 320 320 321 321 317 316 317 319 318
308 307 306 305 306 306 305 306 305 306 308 308 308 307 306 306 307 308 307 308 309 311 310 310 313 315 315 315 318 319 318 318 320 323 323 320 321 322 321 322 320 320 318 317 318
307 306 306 305 305 305 306 307 305 306 307 310 308 308 308 307 308 308 308 308 309 309 310 312 314 314 316 316 318 319 317 318 321 323 323 324 325 324 320 320 320 320 318 317 318
306 306 305 305 305 307 307 305 303 306 305 312 310 309 309 307 308 307 309 309 308 309 310 310 311 315 317 317 318 321 317 318 322 323 326 322 325 321 321 322 321 319 317 317 317
305 305 304 305 307 307 306 305 304 306 313 312 310 308 310 310 307 308 309 310 308 309 309 310 316 316 318 316 316 320 317 317 321 323 320 323 321 317 315 320 321 317 315 315 313
304 304 305 305 306 306 305 304 305 307 304 313 311 312 310 311 311 310 311 308 308 310 311 314 314 315 318 317 317 318 319 321 321 321 321 321 320 315 315 318 317 317 316 315 314
303 303 305 307 308 306 306 305 310 307 310 311 313 311 312 313 313 310 311 311 313 311 314 317 317 317 318 319 318 319 317 322 323 322 320 315 316 314 313 314 314 316 315 314 312
302 305 307 307 307 306 306 309 310 312 309 312 313 312 313 312 314 313 313 312 312 313 316 315 317 317 317 319 318 320 318 314 319 319 315 314 315 314 312 311 311 311 310 310 310
305 306 306 306 305 306 309 306 309 309 309 315 314 314 314 315 314 316 315 314 315 313 315 317 318 316 317 317 316 318 319 312 315 312 314 314 313 310 311 311 311 311 310 311 311
307 307 307 307 305 307 308 309 312 312 313 313 317 315 316 315 316 316 317 314 316 314 312 313 316 316 317 317 316 317 315 313 308 314 316 315 314 311 310 309 310 309 309 310 309
307 307 306 307 306 308 308 306 313 311 312 315 317 316 313 314 314 316 315 314 314 314 311 313 312 317 317 317 317 316 318 316 313 311 316 312 310 307 308 310 311 311 311 311 312
306 310 306 306 308 308 308 311 311 312 311 313 312 314 313 312 314 315 315 314 313 312 314 315 312 317 317 315 316 316 317 316 312 316 310 310 312 310 309 310 311 311 311 311 311
306 307 305 306 309 307 307 312 312 313 312 313 313 312 314 314 316 315 314 313 312 312 314 313 311 315 317 314 314 318 317 317 314 311 309 309 310 308 308 310 311 311 310 310 311
304 307 305 306 306 309 311 312 313 311 311 310 311 311 312 316 313 314 314 314 313 313 312 312 313 310 309 312 312 314 315 316 314 307 314 313 314 311 310 310 309 309 311 311 310
304 305 304 307 306 307 308 311 313 312 310 309 311 311 313 314 315 314 313 313 313 312 311 312 310 302 311 314 314 314 314 314 311 314 314 315 315 313 311 312 311 311 309 309 308
303 305 303 303 305 305 308 311 312 312 310 310 311 311 311 312 312 314 312 313 314 311 312 310 310 309 312 311 313 313 312 313 313 314 315 315 315 312 311 309 308 309 310 310 309
301 300 301 304 306 307 308 310 311 310 310 311 311 310 313 311 309 309 307 308 311 311 311 311 307 305 309 309 309 310 310 312 312 313 313 315 314 312 311 310 310 310 309 308 306

GFSSW_925_thetae_084.txt.gz
Theta_e
311 311 312 313 311 310 310 313 309 309 308 309 310 308 308 308 308 306 309 309 311 312 312 313 313 315 315 318 322 323 329 328 327 322 324 323 325 324 324 329 334 336 337 339 337
311 311 312 313 312 309 308 310 312 310 309 309 311 308 308 308 307 307 307 310 312 312 312 312 312 314 316 319 322 326 327 327 324 326 324 324 324 324 330 335 342 342 342 340 334
311 311 311 312 311 309 309 308 312 310 310 309 310 308 308 307 306 306 306 309 310 310 310 312 312 314 316 319 321 325 327 325 328 330 328 325 325 324 326 327 332 344 342 341 338
312 311 310 311 310 310 308 307 310 310 310 309 310 308 308 306 302 304 305 307 307 309 310 311 312 314 317 319 319 326 325 325 328 326 328 328 325 325 325 324 329 340 341 341 339
312 311 310 310 310 308 307 307 308 310 310 309 309 308 306 306 306 303 307 307 305 308 309 310 313 315 317 316 318 323 325 325 326 326 326 325 325 325 324 322 329 339 341 341 339
312 311 310 310 309 308 307 306 308 309 309 309 309 308 306 307 304 303 305 306 304 306 308 311 313 314 316 316 317 320 324 324 326 326 324 325 327 324 323 321 336 337 339 340 340
312 311 310 309 308 307 306 306 308 308 308 309 309 307 307 307 305 305 306 307 308 307 308 310 312 314 316 317 315 319 324 324 322 323 326 323 328 326 320 320 333 335 336 338 337
312 311 310 309 308 307 305 306 307 307 308 309 308 307 307 307 305 305 305 309 310 309 309 310 312 315 316 315 317 320 322 326 324 325 326 322 329 325 321 318 321 326 331 332 333
311 310 309 308 307 306 305 307 307 306 308 308 308 307 307 306 306 305 307 307 310 311 311 312 313 315 316 317 319 320 323 323 324 322 325 321 321 323 322 320 319 319 320 321 322
311 309 308 307 306 306 306 306 305 305 305 307 307 307 306 307 306 306 307 306 310 310 310 311 312 315 316 318 320 321 320 321 324 324 323 325 325 323 321 322 320 318 318 318 320
310 309 307 306 306 306 306 307 305 305 305 306 307 307 307 305 306 307 307 307 308 309 310 309 315 316 315 317 319 318 320 321 320 322 322 322 324 323 322 320 319 318 317 317 318
309 309 306 305 306 306 305 306 305 305 306 307 307 307 307 306 308 307 307 308 308 309 310 311 314 314 315 317 318 318 318 321 321 323 321 321 323 321 322 320 319 318 315 316 317
308 308 305 304 305 305 305 307 305 305 306 309 308 307 307 307 307 307 309 308 308 308 310 312 312 312 316 317 319 319 320 319 322 323 322 322 322 322 320 318 319 318 317 316 316
307 307 305 304 305 306 306 305 304 305 301 309 310 308 308 307 307 306 309 309 306 309 310 312 310 316 315 316 317 320 317 318 322 323 327 324 325 320 320 320 318 317 316 317 316
306 306 304 305 307 306 305 305 303 305 302 309 309 308 309 310 306 308 308 309 307 309 310 310 315 316 316 316 316 319 318 318 322 322 322 324 319 317 316 318 318 318 316 315 315
305 305 303 305 306 306 305 304 305 307 303 310 310 311 310 311 311 310 310 307 307 310 312 315 314 315 316 316 316 318 318 318 321 322 325 321 317 316 314 318 317 317 316 314 313
305 304 304 306 307 306 305 304 309 305 307 309 312 311 311 313 311 310 311 309 309 305 313 316 316 315 317 318 318 319 317 319 324 322 320 316 320 317 312 313 315 315 314 313 312
304 303 306 307 306 305 306 304 309 307 308 311 310 310 313 313 312 313 312 312 311 313 318 313 316 318 317 319 319 320 316 316 321 321 316 315 321 315 311 310 310 312 311 309 310
303 306 306 306 306 305 304 305 304 307 307 314 312 313 314 313 313 314 313 311 314 312 318 317 318 316 317 317 316 318 316 312 313 310 312 313 312 310 310 309 309 308 307 307 306
306 306 306 306 305 306 307 306 308 311 311 312 313 313 313 314 314 314 315 313 315 312 311 313 319 316 316 315 314 315 314 313 308 314 316 314 314 311 311 309 309 309 309 309 308
306 307 306 306 305 307 307 304 309 310 312 313 315 316 313 314 314 314 313 313 313 314 311 311 313 315 315 315 316 315 316 314 311 311 313 314 312 306 308 308 309 310 310 310 310
306 308 306 306 307 307 307 306 311 311 311 312 312 313 311 312 314 316 314 313 311 311 313 314 311 312 316 315 315 315 316 313 310 312 307 307 311 306 307 308 309 309 311 311 311
307 306 305 306 307 308 306 308 311 312 311 312 312 312 313 312 315 314 314 312 310 312 312 313 309 316 317 313 311 316 316 316 311 308 308 310 309 307 308 310 310 309 310 309 311
305 307 306 306 306 306 307 311 313 310 311 310 310 310 312 315 313 314 314 313 312 312 312 311 310 308 309 310 311 314 315 316 311 307 312 312 312 309 309 311 310 308 310 309 309
303 304 306 307 306 307 308 310 312 311 309 308 310 310 311 314 314 313 313 313 313 311 311 311 308 300 310 314 313 313 313 314 312 313 311 312 313 309 311 312 311 308 309 309 308
304 303 302 302 304 305 308 309 311 310 309 309 310 310 310 312 311 313 312 312 313 311 311 309 307 308 311 311 312 312 311 312 312 313 313 313 313 310 310 307 308 309 309 309 308
300 300 302 304 303 306 306 308 310 309 310 309 309 310 311 310 308 307 306 307 310 310 310 310 307 306 308 307 308 310 309 310 311 311 312 314 313 311 309 309 310 310 309 308 306

GFSSW_925_thetae_087.txt.gz
Theta_e
313 312 312 312 313 313 309 309 311 312 310 309 309 312 309 308 308 305 307 305 310 311 312 312 312 312 314 315 319 321 326 328 325 323 322 321 325 323 326 330 334 336 337 337 335
313 313 312 312 313 312 309 309 308 311 311 310 310 310 309 308 307 306 305 308 309 310 311 312 311 312 314 315 317 321 323 323 323 321 321 323 323 324 332 339 342 344 339 337 339
314 313 312 311 311 311 311 308 308 309 311 310 309 310 309 308 305 305 306 307 308 310 311 311 311 311 313 314 317 318 322 320 325 328 328 325 325 322 330 332 337 342 341 337 338
314 313 312 311 310 310 310 308 307 308 311 311 309 310 308 306 303 304 306 307 308 308 310 310 311 311 314 315 317 319 319 320 326 326 326 327 325 324 324 325 328 339 338 336 335
314 313 312 311 310 310 309 308 307 308 310 310 309 309 306 305 305 303 304 308 306 305 307 310 311 311 313 314 315 318 317 321 326 326 324 325 325 325 324 322 338 340 338 335 335
314 311 312 311 310 310 308 307 307 308 309 309 309 309 306 306 304 304 305 305 306 306 305 309 311 312 313 315 315 317 320 319 326 325 324 325 326 324 322 322 337 340 340 339 337
315 311 312 311 310 309 308 306 307 309 308 309 309 308 306 305 304 305 305 307 307 308 306 308 310 313 313 315 314 316 321 319 326 323 326 323 328 324 320 320 334 336 337 337 336
316 312 311 310 309 309 307 306 307 307 308 309 309 308 307 306 306 305 306 307 309 308 306 308 309 312 315 314 316 318 319 319 324 324 323 322 331 325 320 318 327 329 333 334 337
316 311 309 310 308 308 306 307 307 308 308 309 308 306 306 306 305 305 306 307 309 309 309 311 310 312 315 315 316 318 322 320 323 321 323 322 327 322 320 319 319 320 324 325 327
317 311 309 309 307 306 306 307 305 306 306 306 307 307 305 306 306 306 307 306 309 308 307 311 313 309 315 316 316 319 321 320 320 324 321 319 322 322 322 320 319 318 317 319 321
317 311 308 307 307 305 307 307 305 305 305 306 306 307 306 305 306 306 306 306 308 309 310 308 314 314 317 316 316 316 319 321 321 323 322 320 321 320 321 320 317 318 317 317 319
316 312 307 307 306 306 305 304 304 305 304 305 306 307 306 305 307 306 308 307 307 309 309 308 314 314 315 317 318 317 319 320 321 321 321 322 321 319 321 322 318 317 317 316 317
312 311 306 305 305 306 304 306 305 305 305 308 307 307 307 306 306 306 308 307 307 308 309 311 313 312 316 318 319 318 319 320 322 322 321 322 322 321 321 321 318 317 316 315 315
308 310 306 305 305 305 305 306 304 305 299 306 309 308 307 306 306 306 308 308 306 308 310 312 311 315 316 318 318 320 317 319 322 322 328 322 327 321 320 320 319 316 315 315 315
307 310 305 304 306 305 305 304 303 305 300 306 308 307 308 308 304 306 307 308 307 308 309 313 312 315 315 315 316 320 318 319 321 322 323 324 323 317 318 321 320 315 314 314 315
307 309 305 306 306 306 305 303 305 305 303 309 309 309 311 310 310 309 309 306 307 310 313 315 314 314 315 316 317 317 319 320 320 322 323 323 321 316 315 317 317 314 314 314 313
306 308 306 305 306 305 304 303 304 309 306 307 310 310 311 313 310 309 310 308 306 310 316 315 316 315 317 318 316 318 317 321 322 322 322 318 319 317 314 311 313 313 312 313 312
304 306 304 305 307 305 305 303 307 304 307 309 309 310 312 313 311 312 310 310 311 313 316 314 313 317 316 318 319 320 314 318 323 322 315 317 321 317 310 309 309 310 312 309 308
306 305 306 307 306 305 302 303 303 303 305 312 311 312 313 312 313 312 311 310 311 311 315 315 319 315 317 317 318 318 312 312 311 310 313 315 312 309 309 307 307 307 306 305 306
307 305 306 306 305 306 303 306 305 308 310 310 310 311 311 312 314 312 313 311 314 311 311 313 317 316 317 315 314 317 314 315 311 315 315 312 312 310 312 310 309 308 308 308 306
305 307 306 306 305 305 303 302 306 309 311 311 311 312 311 312 313 313 312 312 313 313 310 311 312 316 313 315 315 315 316 312 311 310 312 314 312 306 308 308 308 308 308 308 308
306 305 306 305 306 305 303 305 309 310 310 311 311 313 310 311 314 316 312 311 311 311 314 312 310 314 315 314 313 314 315 311 310 312 305 306 310 304 305 308 308 309 310 310 310
306 306 305 305 306 305 305 306 308 311 311 311 311 311 312 311 315 314 313 311 310 311 313 311 308 305 308 309 311 316 315 312 308 306 306 307 309 306 307 309 309 310 310 308 309
306 306 306 306 306 304 305 308 312 309 310 310 310 310 313 313 311 313 314 313 311 311 313 310 308 308 307 309 310 313 315 314 309 306 311 310 311 309 308 310 308 309 309 308 306
304 306 306 307 307 305 305 309 311 311 309 308 309 310 312 314 312 312 312 313 312 311 310 308 306 300 310 313 311 312 313 313 308 310 309 311 312 309 309 311 310 306 308 308 307
305 304 302 303 306 306 308 308 311 309 308 309 309 309 310 312 312 312 311 311 312 310 310 307 307 307 310 309 309 312 311 312 312 313 313 313 313 309 306 307 307 308 309 308 307
300 301 302 305 305 305 308 307 309 309 309 307 308 309 310 309 306 306 306 307 309 310 309 309 305 304 307 306 307 309 308 309 310 311 312 313 311 308 308 308 308 309 309 308 305

GFSSW_925_thetae_090.txt.gz
Theta_e
316 314 313 313 312 313 313 311 310 309 312 312 311 309 311 309 308 306 305 303 309 311 310 311 311 312 311 313 315 317 321 322 323 325 323 318 321 323 324 332 334 333 336 335 337
317 315 314 313 312 312 312 312 309 309 309 312 311 309 311 309 307 306 303 309 309 309 309 310 311 310 310 312 314 317 318 319 320 320 319 320 322 323 333 337 339 341 337 337 337
320 315 313 313 312 311 311 311 310 308 308 311 311 309 310 307 304 303 306 307 308 309 306 310 311 310 310 310 312 314 318 317 320 320 322 324 323 323 331 337 338 340 338 334 334
321 317 314 313 313 311 311 311 309 308 308 311 311 309 309 305 300 304 306 307 308 306 305 309 310 311 310 310 310 314 315 317 319 320 325 326 325 324 327 327 327 338 335 334 331
323 319 314 312 312 311 310 311 308 307 308 310 310 309 305 304 304 303 304 304 307 307 306 306 310 310 310 312 312 314 314 317 318 319 321 324 325 324 322 319 336 337 335 336 332
322 320 315 312 311 310 310 309 308 308 310 309 310 309 305 304 304 304 304 305 305 307 306 306 309 309 310 311 313 313 315 316 318 318 321 325 325 324 322 319 340 337 336 336 336
317 320 317 312 310 310 310 308 308 308 309 308 309 307 305 305 305 305 305 305 306 308 309 306 308 310 311 313 312 312 317 318 315 318 325 322 326 324 321 320 334 339 335 335 335
313 319 317 312 309 309 309 308 307 307 308 308 309 307 305 305 306 306 305 307 309 308 306 307 307 308 310 311 314 314 316 320 318 313 317 323 331 322 319 321 324 330 334 336 336
307 315 316 312 309 309 308 307 307 308 308 309 308 306 306 306 305 305 306 307 309 307 308 309 309 309 309 313 315 316 318 320 318 316 322 322 329 322 320 320 320 319 322 330 334
307 311 315 311 308 306 306 307 307 307 307 307 307 307 304 306 305 305 306 306 309 307 306 310 309 309 312 313 314 316 319 319 320 321 318 321 321 321 319 319 318 317 318 320 327
305 308 314 311 307 306 305 306 305 304 304 305 305 306 306 305 305 306 307 306 308 309 309 309 309 314 314 314 314 315 318 319 317 318 320 319 320 320 319 318 318 316 317 318 321
306 306 312 309 306 304 307 305 304 304 303 304 305 306 306 305 306 305 307 306 306 308 309 308 314 312 315 316 316 317 319 321 320 318 319 320 320 319 319 320 319 318 317 317 317
305 306 311 308 305 306 306 305 305 304 303 306 306 306 306 306 305 305 307 306 306 307 309 307 312 312 315 317 318 317 317 318 319 320 320 320 321 321 320 320 319 317 316 316 316
304 307 310 306 305 305 304 304 305 304 297 306 308 307 306 305 304 306 307 307 305 308 309 310 312 314 315 316 317 319 317 319 321 320 324 320 325 319 319 320 321 316 315 315 315
303 306 309 305 306 306 306 305 304 303 299 305 307 307 307 307 303 305 307 306 307 307 309 312 315 315 316 315 316 320 317 319 320 322 323 322 323 319 318 320 320 317 314 313 314
303 306 305 306 304 306 305 304 303 300 299 310 308 308 311 309 310 308 308 306 306 309 312 313 312 314 316 316 316 317 319 320 320 322 319 322 319 317 317 319 318 316 314 313 313
303 304 305 306 305 306 304 303 302 300 304 308 309 309 310 311 309 309 309 307 306 313 317 313 315 314 316 317 315 319 319 322 323 323 321 318 318 316 314 311 314 315 311 311 312
302 302 303 305 306 306 303 303 301 303 306 307 309 310 311 310 310 310 308 308 309 310 313 308 306 314 315 317 316 319 315 320 322 319 319 318 322 315 308 307 308 309 306 307 309
303 304 307 305 304 304 304 305 303 304 305 311 309 310 311 312 311 311 309 309 310 309 313 313 315 316 315 317 318 318 314 311 312 310 314 316 313 309 308 307 307 306 305 305 305
303 303 305 305 305 304 306 306 304 304 309 308 309 309 311 311 311 313 310 309 313 311 311 314 317 314 316 316 314 316 312 314 312 318 315 312 312 311 310 309 308 308 307 306 305
301 305 305 305 305 306 308 302 305 306 310 309 309 310 309 311 310 310 309 311 313 313 310 311 311 315 313 315 315 314 314 311 310 310 313 313 311 307 306 308 308 307 307 307 307
302 305 305 305 306 306 307 304 306 309 309 310 309 311 310 310 312 312 311 310 311 310 312 310 309 312 315 313 312 314 314 309 309 312 304 306 310 304 304 307 307 308 308 308 307
305 306 305 305 307 308 305 305 306 310 310 311 311 311 308 310 313 313 311 311 310 311 313 310 307 312 312 309 310 315 314 309 306 306 307 308 309 306 307 308 308 308 307 307 307
304 306 306 306 305 305 305 305 309 308 309 310 310 309 312 311 310 313 313 312 310 311 312 309 306 306 306 309 310 313 314 311 308 307 310 309 310 310 308 310 308 309 306 304 305
305 306 306 307 307 304 303 307 310 311 309 308 309 310 312 312 312 312 312 312 311 310 309 307 306 299 308 311 311 312 313 313 306 309 308 310 311 309 308 310 309 306 307 307 306
304 305 303 305 305 305 304 308 309 309 309 309 309 309 309 311 311 312 311 311 312 308 309 305 305 306 308 306 308 311 311 311 312 312 311 312 312 307 306 307 307 308 308 308 307
300 301 304 306 306 305 304 306 309 308 308 306 307 308 309 309 307 306 306 306 308 309 308 307 305 303 306 305 307 308 308 309 310 310 310 312 310 309 308 307 307 307 308 307 305

GFSSW_925_thetae_093.txt.gz
Theta_e
322 321 317 316 314 313 313 313 313 310 310 310 313 311 310 311 309 307 305 302 305 310 310 308 308 310 311 312 314 316 317 318 319 321 322 321 322 322 320 323 332 332 332 336 337
323 322 319 316 313 313 313 312 312 311 309 309 312 312 310 310 306 305 302 307 310 309 308 307 309 310 311 312 313 315 316 315 315 318 320 321 321 322 324 326 334 336 338 335 334
321 322 321 316 313 313 313 312 312 311 309 309 311 311 310 307 303 301 307 309 307 308 306 306 309 309 309 310 311 312 313 313 313 315 320 323 321 321 324 327 332 336 340 335 332
316 319 322 318 314 312 312 311 312 310 309 308 311 310 309 304 302 303 306 306 307 308 306 306 309 308 310 310 310 311 311 312 315 316 320 322 323 325 324 324 324 335 336 334 332
315 316 318 319 315 311 312 309 311 310 308 309 310 309 306 304 304 303 306 304 305 305 306 306 306 309 310 309 308 310 309 312 314 315 318 321 321 322 324 322 320 333 335 333 332
311 313 315 319 315 312 309 309 310 309 309 310 308 309 305 304 303 304 304 305 305 306 306 306 306 309 309 309 310 311 311 312 314 316 318 321 321 320 323 320 323 334 335 334 331
308 309 312 318 315 311 308 309 310 308 308 309 307 308 305 304 305 305 306 305 305 307 308 307 306 308 309 309 310 308 309 314 314 316 318 318 318 317 321 319 325 334 334 332 331
306 307 311 317 315 311 308 309 307 307 308 307 308 306 306 305 305 306 305 306 308 306 306 306 307 308 308 307 309 312 313 316 316 317 314 315 319 320 319 321 328 330 335 335 335
305 306 308 314 313 310 308 306 307 308 308 308 308 306 306 305 305 304 305 306 308 307 308 308 308 309 308 307 309 314 316 317 319 315 317 314 317 319 318 320 321 321 325 335 337
304 305 306 310 312 309 306 307 307 306 306 307 307 306 304 305 305 305 305 306 308 306 306 310 308 309 309 309 316 315 316 316 319 318 316 315 312 310 319 319 320 319 321 328 335
303 304 305 308 311 307 305 306 306 305 304 307 306 305 305 305 305 305 305 306 308 309 310 308 310 310 313 310 313 315 316 317 320 318 317 317 313 316 320 319 321 321 321 323 328
303 304 305 309 309 306 305 305 305 303 305 304 305 305 306 305 305 304 307 305 306 308 308 309 314 311 309 311 315 316 318 319 318 317 316 316 315 317 320 320 320 321 319 320 320
302 304 306 311 307 305 306 305 305 304 303 305 305 306 305 305 305 305 307 306 306 307 308 307 312 312 315 316 317 317 318 318 319 319 316 317 317 320 320 320 321 320 318 316 317
302 304 305 308 305 305 305 304 304 304 303 306 308 306 306 304 304 305 307 307 304 307 308 310 312 314 314 316 317 319 317 317 318 320 322 319 322 319 321 321 321 321 319 316 316
303 304 305 306 305 305 305 304 305 303 310 306 307 306 306 305 302 303 307 306 306 307 308 314 315 315 313 317 316 319 317 319 319 322 322 321 322 320 318 320 320 322 320 317 314
303 304 302 306 305 306 305 304 303 307 309 310 308 307 310 309 310 307 307 305 306 309 312 313 312 314 316 315 317 317 318 318 319 320 322 321 320 318 319 319 318 321 318 319 316
302 303 303 303 305 305 305 303 308 309 305 310 308 308 309 310 310 308 308 306 307 310 315 312 314 313 316 315 316 317 319 322 322 319 321 317 319 317 313 309 311 319 315 315 314
301 303 302 302 304 305 303 306 309 306 307 306 308 308 310 309 309 309 308 307 308 311 311 305 308 314 314 316 318 318 317 319 320 320 323 318 322 316 308 307 309 308 307 310 311
301 302 304 304 306 304 303 308 309 306 305 309 308 309 311 312 310 310 308 308 308 310 312 312 317 315 314 316 317 318 315 311 312 311 320 315 313 308 309 309 308 308 307 307 306
302 302 301 305 305 303 306 309 306 304 307 306 308 308 310 310 309 310 310 308 312 310 310 313 315 313 316 316 314 315 312 314 313 316 316 313 312 311 308 309 309 309 308 307 306
301 303 304 304 304 303 307 307 304 304 308 308 309 309 308 310 308 309 309 309 312 312 310 311 312 318 313 315 315 314 314 311 311 310 315 315 312 306 307 307 309 309 308 308 307
301 305 304 304 305 305 307 305 306 308 307 309 309 309 309 309 310 311 310 309 310 309 312 309 309 317 316 311 311 313 312 308 313 314 306 309 312 304 304 306 308 308 308 308 307
303 301 305 305 307 308 306 306 306 309 309 310 311 310 307 310 313 312 311 310 310 310 312 309 307 312 311 309 310 313 312 307 306 307 308 312 311 306 306 307 307 307 307 306 305
303 303 306 305 305 306 308 307 306 307 309 309 309 309 309 311 309 312 313 311 309 311 311 307 305 306 306 309 309 313 314 310 308 309 310 309 310 309 308 308 307 307 305 305 305
303 304 305 306 307 306 306 305 307 311 308 307 309 310 310 312 311 312 312 311 310 309 307 306 306 300 307 308 310 312 313 312 307 308 310 309 310 308 309 309 307 305 305 306 306
305 306 303 305 305 306 306 306 309 308 309 309 308 308 310 311 310 311 311 310 312 308 308 304 305 305 308 306 306 311 310 311 312 311 311 311 313 307 305 307 307 307 306 306 305
300 301 304 306 306 307 304 307 309 307 307 306 306 307 309 309 307 305 305 304 307 308 307 306 305 303 307 304 306 308 308 310 310 309 310 313 310 308 309 307 307 306 305 305 305

GFSSW_925_thetae_096.txt.gz
Theta_e
319 321 323 321 318 316 315 313 313 313 312 310 309 313 312 311 311 309 307 304 305 310 311 308 307 308 310 310 312 314 317 317 316 315 315 315 317 320 322 324 323 326 332 333 334
316 318 320 323 320 317 314 314 313 313 311 309 310 312 311 310 308 306 305 305 310 310 309 306 306 307 309 310 311 313 313 312 312 313 314 316 317 319 321 324 324 325 333 337 337
313 316 318 319 321 317 314 313 313 313 311 309 310 311 310 307 305 303 305 310 309 309 308 307 308 308 308 308 309 310 313 310 311 312 313 316 318 319 322 323 324 325 328 336 336
310 313 314 317 321 318 315 314 312 312 310 309 309 311 309 306 308 303 307 307 307 309 308 307 308 309 308 309 308 310 308 309 309 311 313 314 317 319 320 321 322 324 325 336 336
307 309 310 313 318 318 314 312 312 311 309 309 310 310 307 307 306 303 307 305 305 307 307 307 308 308 310 309 309 309 308 307 308 309 311 315 317 320 321 322 322 322 324 330 334
307 307 308 310 313 318 314 310 310 310 309 309 310 309 307 309 304 303 304 304 306 306 307 307 307 307 308 310 310 308 308 308 308 309 311 314 316 319 320 322 324 324 323 325 332
306 306 307 307 311 317 313 309 311 309 307 309 309 308 306 309 304 305 305 306 306 307 308 308 307 307 308 310 309 309 309 310 311 310 313 314 318 319 318 320 322 324 323 327 331
306 305 305 306 310 316 312 309 308 305 308 308 308 307 309 305 305 305 307 306 309 307 307 308 308 307 308 309 309 307 311 313 311 311 313 316 318 315 319 320 322 325 325 328 331
305 305 305 305 309 314 310 308 306 307 307 309 307 306 308 305 306 305 305 307 309 308 309 307 307 310 310 310 309 309 318 316 316 314 316 317 318 316 314 315 318 325 326 330 331
305 305 305 304 308 311 308 306 307 307 307 308 306 307 307 306 305 305 306 306 308 308 309 310 310 312 310 311 312 316 316 315 316 317 317 319 320 316 314 315 317 325 327 331 331
305 304 304 306 308 309 305 305 306 306 306 306 308 308 306 306 305 306 306 308 309 310 312 309 311 311 312 311 308 310 316 317 319 318 318 318 318 316 314 316 314 325 328 333 332
305 302 304 306 310 308 305 307 305 305 307 306 306 307 306 306 306 305 307 308 308 311 310 311 312 313 311 311 312 313 316 318 319 318 318 318 319 317 316 315 313 324 326 331 330
304 301 303 307 308 305 306 306 305 304 305 305 306 306 307 306 306 305 308 307 308 310 311 312 312 312 315 314 316 317 314 318 319 318 317 319 320 317 315 315 315 321 320 325 329
304 302 302 305 306 306 306 305 304 304 308 308 308 308 307 306 306 306 308 308 307 311 310 312 312 314 315 315 317 316 315 317 318 320 322 318 324 319 316 323 325 323 321 321 324
304 302 302 304 306 306 305 304 305 304 318 308 308 306 307 307 304 305 308 308 308 310 312 314 315 316 316 316 317 318 318 318 318 320 321 321 324 321 320 326 325 325 323 320 319
303 302 302 304 305 306 304 305 304 311 315 312 309 309 310 309 310 307 308 307 308 311 312 314 312 314 316 315 317 319 319 319 321 321 323 322 324 322 318 316 321 322 322 322 318
303 301 302 303 305 305 304 303 312 315 306 312 309 309 310 311 310 309 309 309 312 317 316 313 315 313 315 317 318 318 320 323 323 325 324 321 324 317 312 312 314 319 320 321 319
301 301 303 303 304 304 302 307 314 308 308 308 309 310 311 309 310 310 309 309 310 313 314 315 317 314 314 317 318 317 319 323 321 323 324 321 323 316 313 312 312 317 313 316 318
301 301 303 303 303 304 305 311 313 310 308 310 310 311 312 310 310 310 310 311 311 313 316 316 318 315 315 316 316 319 318 313 318 320 322 319 315 317 313 314 312 311 312 312 312
302 302 302 303 304 303 307 310 309 305 307 309 311 311 311 309 311 311 311 311 314 311 312 315 319 315 316 316 316 317 314 319 320 322 322 316 318 319 316 315 314 313 312 311 311
302 303 302 304 304 305 309 310 307 306 306 309 310 311 311 312 311 312 312 312 314 314 313 313 315 318 315 317 318 317 316 315 315 315 319 319 317 311 312 313 314 313 313 312 312
302 304 302 304 304 305 309 308 306 308 307 311 311 311 311 312 312 313 314 313 311 312 314 312 315 319 317 314 313 315 316 313 319 316 313 317 316 310 310 312 313 313 313 312 311
303 304 303 304 309 310 306 306 306 308 310 312 313 311 311 313 314 314 314 312 311 312 314 312 314 320 317 315 314 317 315 313 312 315 316 318 316 311 311 312 312 313 312 311 310
302 304 304 304 305 307 309 309 309 307 310 311 311 310 313 314 313 315 315 313 311 313 310 310 311 312 316 315 314 318 316 314 315 322 315 316 315 313 313 313 313 312 311 311 309
302 304 305 308 307 307 307 308 307 310 310 309 311 312 313 315 315 315 314 313 312 310 311 311 315 310 311 311 314 314 316 316 316 313 317 313 314 314 313 313 312 311 310 310 309
303 306 306 306 305 307 307 309 308 309 311 311 312 312 312 314 313 315 314 314 314 311 312 310 315 310 313 310 311 313 314 315 315 313 314 314 315 311 312 311 311 310 310 309 309
302 303 306 306 305 308 307 307 308 309 308 307 310 312 313 311 310 311 310 310 311 312 312 312 313 315 316 310 311 314 311 313 313 313 314 315 314 312 311 310 310 310 310 310 309

GFSSW_925_thetae_099.txt.gz
Theta_e
312 314 317 319 320 321 318 316 314 314 313 312 310 310 314 312 310 311 309 308 306 306 313 310 308 307 309 311 310 312 316 318 315 315 315 314 315 315 317 319 321 322 323 326 334
309 310 315 316 318 320 319 316 315 313 313 311 310 311 311 310 310 309 307 304 308 312 309 307 307 307 308 309 311 312 314 313 312 312 313 313 314 315 315 317 320 322 323 323 336
308 308 310 313 314 317 320 317 315 313 313 311 310 311 311 308 309 306 303 309 312 310 308 306 307 308 309 307 309 310 313 310 310 310 311 312 313 314 316 317 319 320 322 329 336
308 308 307 309 312 315 320 317 314 312 312 310 310 311 309 308 311 305 311 311 309 309 308 308 308 308 309 309 307 309 309 309 309 309 309 311 312 314 316 317 318 318 320 326 332
308 307 307 307 309 312 315 317 314 311 311 309 310 310 309 310 309 305 309 307 306 306 308 308 309 309 311 309 308 309 308 308 308 308 309 309 311 314 314 316 318 319 322 325 327
307 307 307 307 307 310 314 317 312 312 309 309 310 309 310 311 306 304 306 305 306 307 308 308 308 307 309 310 310 310 310 309 309 309 308 308 309 311 313 315 318 322 323 324 325
307 306 306 306 306 309 313 314 309 310 308 309 310 309 309 310 306 305 305 306 306 308 309 308 308 308 308 310 309 311 311 310 310 309 309 308 309 310 312 315 318 321 322 324 324
307 306 306 306 306 308 315 312 311 309 307 308 308 309 309 308 307 306 306 307 307 309 309 308 309 309 308 309 310 310 310 311 310 309 310 309 312 311 312 315 318 320 322 324 323
305 307 306 305 305 308 313 310 307 305 307 308 308 308 310 306 307 306 306 306 308 310 309 308 309 309 309 312 312 311 313 313 313 312 311 311 313 314 314 317 319 320 322 324 324
307 307 306 305 305 308 310 306 308 307 308 308 308 308 309 308 306 305 305 307 308 310 310 310 310 312 312 312 314 313 315 315 320 315 313 313 315 316 318 317 318 320 324 322 323
305 306 304 304 305 307 307 306 307 306 306 308 309 309 307 307 306 306 306 308 309 310 312 311 313 313 311 311 312 312 313 314 318 314 314 315 316 315 316 316 318 319 324 323 325
306 305 303 304 308 309 305 307 307 307 309 306 307 309 307 307 307 306 307 309 309 311 312 312 312 311 312 313 313 314 314 316 318 318 316 317 317 316 316 316 316 316 318 326 328
305 305 303 304 308 306 307 307 305 305 309 307 307 307 307 308 307 306 308 308 309 309 311 313 313 312 314 313 314 314 316 317 320 319 318 318 321 320 318 317 316 316 316 326 329
304 305 304 303 306 306 305 306 305 305 313 310 309 308 308 308 308 306 308 309 308 310 311 312 312 314 315 315 315 319 315 316 317 322 325 319 325 319 318 320 319 318 319 329 327
302 303 303 303 306 307 306 306 306 305 318 310 309 307 308 308 306 306 308 309 309 310 311 314 314 316 317 318 316 318 315 317 316 318 323 322 322 322 317 323 322 323 324 327 326
304 303 301 303 305 307 304 305 304 312 319 313 309 309 310 309 307 307 308 308 309 311 312 313 313 315 316 316 316 315 317 317 318 322 328 325 324 324 320 315 325 322 321 322 325
302 302 302 304 306 306 305 303 312 316 309 312 310 310 310 311 311 307 308 311 312 318 316 314 315 314 315 315 316 319 317 325 326 326 327 322 325 319 315 313 322 324 321 320 320
301 301 302 303 305 305 303 307 316 311 311 310 309 310 311 310 311 309 309 311 311 313 316 317 319 315 315 317 318 320 321 327 323 327 327 324 324 321 316 317 318 316 318 319 318
301 303 304 304 304 304 306 312 316 312 309 311 310 311 310 309 310 309 309 313 313 314 317 317 319 315 315 314 315 319 321 315 321 320 321 324 321 318 318 315 315 313 314 314 315
303 303 304 304 304 304 307 310 312 307 309 310 313 312 310 309 310 311 313 312 315 313 313 318 322 315 316 317 317 319 316 322 322 324 322 324 323 322 320 317 316 316 313 313 313
304 304 303 305 304 305 308 312 309 307 308 311 312 311 310 309 312 312 313 314 314 315 314 315 317 319 317 318 319 319 317 316 316 317 320 322 323 313 316 317 315 315 314 313 313
303 305 302 303 305 306 311 309 305 310 308 311 312 312 311 311 313 314 315 316 314 314 316 314 317 321 319 315 314 316 315 315 320 318 319 319 318 313 315 315 315 314 314 312 311
305 302 303 304 309 309 307 308 308 310 312 313 314 312 311 313 314 314 315 314 313 314 315 313 316 321 319 317 316 318 316 315 316 320 320 320 318 313 314 315 314 314 313 312 311
304 306 303 303 306 308 309 310 310 309 311 312 312 312 313 314 314 315 315 314 313 314 311 313 315 317 320 318 316 319 316 315 319 324 318 317 316 315 315 315 314 314 313 312 311
305 307 306 309 309 308 308 308 309 311 312 312 313 312 314 315 314 316 315 314 313 312 313 314 317 313 313 314 315 316 316 315 318 316 319 316 316 315 315 315 314 313 312 311 311
306 307 306 307 307 308 307 309 309 311 312 313 313 313 313 314 315 315 315 315 315 314 314 313 318 314 314 313 314 316 316 315 315 314 315 315 315 314 313 312 313 312 312 311 311
305 306 307 306 307 308 308 309 309 310 310 310 312 312 314 313 313 313 313 313 313 314 314 314 316 318 317 313 313 315 313 314 315 315 315 316 315 313 313 313 313 312 312 312 311

GFSSW_925_thetae_102.txt.gz
Theta_e
310 310 310 312 315 316 319 320 318 316 314 314 312 311 311 314 312 312 313 309 309 307 304 310 308 308 308 311 311 311 314 315 314 314 313 313 313 314 313 313 314 316 318 325 333
309 308 309 309 310 313 315 317 318 316 314 313 311 310 312 312 312 311 311 307 308 311 311 309 307 307 308 308 311 311 312 313 311 311 311 311 311 312 312 313 313 315 317 321 333
308 310 308 308 308 310 313 315 320 316 314 313 311 311 311 310 311 309 309 305 311 311 308 306 307 308 309 309 308 310 312 310 310 310 310 310 309 310 311 312 313 313 315 317 329
308 308 309 308 308 308 310 313 319 315 313 312 310 310 311 310 312 307 309 312 312 310 308 308 308 309 309 309 308 307 308 309 310 309 309 309 308 308 310 311 313 314 316 319 324
309 309 308 308 307 307 308 312 314 315 312 311 310 310 309 310 310 309 311 310 308 307 308 308 308 308 309 308 309 309 309 309 308 308 308 308 308 308 309 311 312 313 315 320 323
309 309 308 307 307 307 307 311 313 314 312 310 310 310 310 312 306 307 308 307 306 306 307 308 308 308 308 309 310 309 309 310 311 311 309 308 308 308 308 308 311 313 314 319 323
309 309 308 307 307 306 307 311 316 313 310 310 310 309 310 310 307 305 306 306 306 307 308 309 308 308 308 309 309 311 310 311 311 311 311 310 310 308 307 307 308 312 314 318 321
308 307 308 307 307 306 308 313 312 310 308 308 309 310 310 309 308 306 306 307 307 308 309 308 309 309 309 308 309 311 312 313 311 310 310 310 311 309 307 307 307 311 315 319 319
305 305 307 307 306 305 310 312 311 308 306 310 308 310 310 307 306 307 306 307 307 310 309 308 309 310 309 310 310 311 312 313 312 311 312 312 310 310 308 308 308 309 318 318 319
305 305 304 307 306 305 308 308 307 308 307 308 309 309 308 308 307 305 305 306 308 310 311 310 309 311 312 312 312 314 314 314 314 315 315 314 312 311 310 309 310 317 317 318 319
306 305 304 305 306 307 307 307 307 307 308 309 308 309 308 307 306 306 305 307 308 309 311 311 313 311 310 311 311 311 313 314 312 314 316 314 312 312 314 314 315 316 318 321 321
306 305 304 305 304 308 307 307 307 308 309 307 307 308 308 308 308 307 306 308 309 310 311 312 310 310 311 311 313 314 315 313 313 318 315 315 313 314 315 315 315 315 315 318 321
305 304 304 303 304 307 306 307 306 305 309 309 307 309 308 308 308 307 307 308 309 310 309 313 312 311 313 314 316 313 314 313 317 315 317 318 318 317 316 317 316 315 315 315 322
301 303 303 304 304 306 305 304 305 306 311 309 308 308 307 308 308 306 306 309 308 309 309 311 312 313 315 316 316 315 315 317 319 318 323 319 322 320 317 316 316 316 315 320 325
301 302 304 303 305 307 306 306 305 307 316 310 309 307 308 309 306 306 308 309 308 309 310 312 314 315 315 316 315 315 316 318 319 319 317 322 322 321 315 321 320 318 320 326 324
304 302 304 303 303 306 305 305 305 311 316 312 309 310 309 309 305 307 308 308 309 311 311 311 311 314 316 316 315 315 317 318 317 320 325 324 323 321 317 317 319 325 327 326 325
303 303 302 305 306 306 304 304 311 314 311 310 310 309 311 310 310 307 306 310 312 314 314 314 315 314 315 315 315 317 319 322 325 327 326 320 322 318 315 315 320 324 324 325 323
301 302 303 304 305 304 304 307 313 312 314 310 309 310 313 310 311 309 309 310 311 312 316 317 319 315 314 316 317 319 319 323 327 327 329 320 322 318 317 316 320 320 320 317 316
303 304 304 304 304 304 306 310 312 312 310 310 310 310 310 310 310 309 309 312 313 313 319 318 319 315 314 314 315 320 321 316 321 322 325 324 318 316 315 317 315 315 318 317 316
304 304 304 304 304 304 306 312 310 308 310 310 313 310 309 309 309 310 311 313 315 314 313 317 319 314 314 315 316 318 317 319 321 328 329 323 319 322 316 319 317 315 315 315 314
304 305 303 304 303 305 309 310 309 308 308 312 314 311 308 309 312 315 314 314 314 315 314 315 313 319 316 320 319 318 317 316 315 316 320 323 321 319 318 317 316 315 314 312 312
304 304 303 303 304 305 310 309 306 309 309 311 313 312 311 311 313 315 316 316 314 314 315 315 318 320 318 315 314 316 315 314 317 318 317 317 319 316 315 314 314 312 311 311 309
304 302 302 304 308 308 307 307 308 310 312 313 313 312 312 314 315 315 315 314 313 314 313 313 315 319 318 316 315 317 314 315 318 319 315 317 317 313 311 312 312 311 310 309 309
305 306 304 305 306 308 308 308 310 310 312 312 312 311 313 314 314 315 315 314 313 313 313 313 313 315 317 317 316 316 314 314 316 315 316 315 315 313 313 312 311 310 309 308 309
307 306 305 308 310 308 308 307 309 312 312 312 312 313 314 314 315 316 314 314 314 313 313 314 313 306 312 314 315 315 315 314 313 315 315 315 315 313 312 311 310 309 309 309 310
307 307 307 307 307 307 306 309 310 312 313 313 313 313 313 315 315 315 314 314 314 313 313 313 313 314 313 312 313 313 313 314 315 314 314 313 314 310 310 309 310 310 310 310 309
306 306 307 306 306 308 308 309 310 311 311 311 312 313 314 313 312 312 312 311 312 312 312 313 313 313 313 312 312 313 311 313 314 313 314 314 313 311 311 311 311 310 309 309 309

GFSSW_925_thetae_105.txt.gz
Theta_e
309 310 310 309 310 310 312 316 318 319 316 315 314 312 311 313 314 312 312 311 311 309 304 310 309 309 307 309 310 309 311 313 313 313 312 310 310 310 310 310 310 310 312 325 337
310 309 309 310 308 309 309 312 315 319 316 315 313 311 311 312 313 312 312 312 311 310 310 312 307 307 305 307 309 309 309 311 310 309 308 308 308 308 308 308 309 310 311 330 337
311 310 310 309 310 309 308 309 313 316 317 315 313 309 312 311 311 310 312 311 310 311 308 306 307 308 308 307 307 309 310 309 310 309 309 310 309 307 307 308 307 309 310 312 321
310 310 310 310 309 308 308 308 310 314 317 315 312 309 312 309 311 309 310 310 313 309 308 307 308 308 308 308 307 307 307 308 308 309 308 307 307 307 306 306 306 308 310 312 320
310 310 310 310 309 308 307 307 309 314 317 313 310 310 311 310 310 308 312 314 310 308 309 308 308 308 308 307 307 308 308 308 308 309 308 307 307 306 307 306 306 306 308 311 317
310 310 310 309 309 308 307 306 309 312 315 312 311 312 310 311 309 312 312 309 307 306 307 307 308 308 308 307 308 308 309 309 308 309 310 311 310 306 306 305 306 307 307 308 316
309 309 308 308 308 308 307 307 309 313 314 311 312 311 310 310 306 308 307 305 306 306 308 308 308 309 308 308 308 309 310 310 309 309 310 310 311 310 307 305 306 307 307 308 316
308 308 306 307 308 308 306 312 311 314 311 309 312 310 311 309 306 306 306 306 306 307 309 308 308 309 308 307 308 309 309 310 309 310 311 310 310 309 306 305 306 306 306 307 315
304 307 305 305 305 307 305 311 312 310 308 309 309 310 310 308 307 305 306 307 307 309 308 309 309 309 307 307 307 308 306 308 311 311 311 312 312 310 308 306 306 306 306 307 316
302 303 303 303 305 306 306 305 309 310 310 308 308 308 307 309 307 307 306 306 309 310 310 309 308 308 310 308 305 311 309 311 311 312 312 314 315 314 310 308 308 309 308 313 315
303 305 304 304 306 303 307 306 306 305 308 309 309 310 308 307 305 305 305 307 308 310 310 311 310 309 307 308 308 310 311 311 311 312 315 315 315 314 311 312 310 310 311 312 315
304 304 304 305 303 307 306 306 307 304 308 308 308 309 308 307 308 307 305 308 309 307 310 311 311 308 309 309 310 311 313 313 312 313 316 315 315 313 311 311 312 311 314 311 316
303 303 303 303 302 307 306 306 306 305 309 310 308 309 308 308 308 308 307 308 309 308 307 308 309 310 310 313 314 314 314 312 313 312 314 315 317 314 313 313 310 311 312 313 314
302 303 303 303 304 304 303 304 305 306 310 310 310 309 308 308 309 307 306 308 307 307 307 308 308 311 312 314 315 316 313 315 318 318 319 315 317 318 315 315 314 312 311 313 315
302 303 303 303 304 306 306 305 305 306 312 309 308 307 308 309 306 306 307 308 308 308 309 308 314 314 314 314 315 315 315 316 316 320 317 318 320 321 316 316 316 313 311 319 323
303 304 302 302 304 305 306 305 305 309 311 311 308 310 309 309 307 308 309 307 307 310 309 309 310 312 314 315 315 315 316 317 317 319 322 323 323 320 316 315 316 318 318 323 323
301 303 304 304 306 305 304 304 307 311 311 309 311 309 309 309 308 308 307 309 309 308 312 312 312 314 313 313 314 315 318 318 322 324 325 320 321 317 313 316 316 323 324 324 323
303 303 304 305 305 304 304 307 311 312 310 310 309 311 312 311 311 308 307 307 308 311 311 309 312 314 314 315 317 316 319 321 322 327 326 320 319 314 312 322 320 320 320 318 317
303 303 304 304 303 304 304 308 311 312 310 310 310 309 309 309 308 308 307 310 312 310 316 316 317 315 314 314 315 319 322 318 320 323 323 321 316 314 314 318 319 319 318 316 316
304 303 303 303 303 303 302 311 310 309 310 311 312 308 308 308 308 310 310 313 315 314 313 316 315 314 314 315 315 316 316 320 319 322 326 322 320 317 314 318 317 317 316 315 315
304 300 303 303 303 301 307 309 309 308 309 313 312 309 306 308 312 313 315 314 314 315 313 313 313 318 316 319 317 317 317 317 315 316 323 321 322 313 317 316 315 313 312 314 313
301 301 303 303 300 305 307 307 307 309 308 310 311 310 308 310 313 315 317 316 314 313 316 314 316 316 317 314 314 314 316 313 314 317 314 314 321 316 316 314 313 312 310 308 308
301 302 302 303 302 303 305 307 307 310 311 312 311 310 311 314 314 315 315 314 314 314 313 313 312 313 314 311 311 315 313 314 316 313 314 313 321 314 310 310 309 309 309 308 308
299 297 299 301 303 305 306 306 310 309 311 311 312 310 312 313 312 314 315 314 312 312 312 312 311 312 311 314 313 314 314 312 313 311 315 315 318 312 311 310 309 308 307 307 307
300 301 300 302 305 305 306 306 311 311 310 310 311 312 312 314 313 314 313 313 313 312 312 311 310 304 311 313 313 311 313 313 313 312 315 315 315 312 309 308 308 307 308 309 308
302 302 304 306 304 305 305 308 311 311 311 310 312 312 311 312 312 313 312 311 312 310 311 310 308 312 311 310 310 310 310 312 313 312 312 312 312 310 308 307 307 308 308 308 308
305 305 301 304 302 305 305 308 310 310 310 310 310 311 311 310 307 307 309 309 310 311 310 311 309 308 309 310 310 312 310 310 312 311 312 313 311 308 309 309 308 308 307 307 307

GFSSW_925_thetae_108.txt.gz
Theta_e
312 311 311 310 310 310 309 309 311 315 320 317 317 314 312 313 313 313 311 310 310 311 303 309 309 308 307 307 308 307 310 312 312 313 313 307 307 307 307 308 306 308 309 314 319
309 310 310 311 310 310 310 309 309 312 315 317 316 314 311 312 313 313 310 314 313 311 306 311 306 306 304 306 307 308 308 309 309 309 308 308 308 307 307 306 306 307 308 310 313
309 309 309 308 308 310 309 309 309 309 314 318 315 313 312 312 310 310 310 315 313 311 307 307 307 307 307 306 306 308 309 308 309 308 309 310 309 307 306 307 306 306 306 309 314
311 311 311 311 310 308 309 308 307 308 312 317 315 312 312 310 310 310 314 314 312 308 306 307 307 307 306 307 307 307 307 308 307 307 308 307 305 306 305 306 305 304 305 309 312
310 310 310 310 310 310 309 308 307 307 311 315 315 311 311 310 310 311 313 313 310 309 308 307 307 307 307 306 307 307 307 308 308 308 308 308 308 306 306 305 304 305 305 306 309
308 309 309 309 307 308 309 308 307 307 311 316 312 309 310 311 309 311 313 313 307 308 307 307 307 306 307 307 306 306 307 308 308 308 308 308 308 308 308 304 305 306 305 305 306
307 307 308 307 307 307 309 308 308 310 310 314 310 312 310 310 309 313 313 308 306 306 306 308 307 307 306 307 307 308 309 308 309 310 309 309 310 310 308 306 305 306 306 306 306
306 305 305 307 306 305 308 306 311 310 312 312 310 309 311 309 311 311 306 305 306 308 308 308 308 307 308 306 306 308 307 308 308 309 310 309 309 307 305 306 306 306 306 306 305
305 304 303 302 305 306 307 306 312 313 313 311 309 309 309 307 308 308 306 306 306 309 308 309 307 308 307 307 305 305 303 306 309 310 310 309 310 309 307 306 306 305 305 305 305
303 302 303 303 304 305 306 303 310 309 310 308 308 310 307 309 306 305 305 306 308 309 310 309 309 308 308 307 301 307 306 308 309 309 309 311 311 311 312 311 308 305 304 307 309
304 304 303 303 305 305 305 302 304 307 307 310 308 310 309 307 306 306 306 306 309 310 308 310 307 308 305 306 306 307 309 310 309 309 311 312 313 313 313 311 308 306 307 307 309
303 304 304 304 304 306 306 306 303 304 307 308 309 308 307 306 307 306 306 307 308 308 309 309 310 307 306 306 308 309 311 311 311 311 312 313 314 313 312 310 309 309 307 308 309
304 302 303 303 305 306 306 306 305 306 307 308 308 309 308 307 308 307 306 307 308 306 306 306 306 308 308 309 312 313 312 312 311 311 314 313 315 313 312 311 309 309 310 310 310
303 303 303 302 305 303 304 305 305 306 309 310 310 309 308 308 308 306 306 307 307 307 307 307 307 308 309 311 312 315 312 313 316 318 318 314 318 316 314 313 313 311 309 310 311
303 303 300 303 305 306 304 303 305 306 310 309 309 306 307 309 306 306 306 307 308 307 309 308 311 314 313 313 314 315 313 314 314 316 316 317 318 314 314 315 313 312 310 309 311
303 304 304 304 305 305 305 305 305 304 305 310 307 310 309 308 307 308 307 306 307 309 308 308 309 311 311 313 314 314 315 315 315 318 319 320 320 319 317 315 313 312 312 312 319
304 303 305 305 304 304 304 303 305 308 309 311 309 308 309 308 307 307 307 308 307 308 310 310 311 311 312 314 313 315 317 315 316 319 320 321 321 318 314 313 313 317 321 321 323
303 303 304 304 303 304 304 301 308 310 309 309 309 309 310 310 310 307 305 305 306 309 309 314 308 313 313 314 317 315 317 318 322 324 322 318 319 317 311 321 321 319 318 319 318
303 303 303 303 303 303 300 306 312 311 310 310 310 309 310 309 308 307 307 307 311 308 313 315 311 314 313 314 315 318 321 317 319 320 322 321 316 311 311 318 319 318 317 317 317
303 302 302 302 303 302 303 310 310 309 310 310 310 306 308 307 307 309 310 313 315 313 313 315 315 314 314 314 315 315 316 322 319 323 323 319 320 315 312 317 316 317 316 316 315
302 299 301 302 303 301 308 309 309 308 308 312 311 307 306 311 311 312 315 314 315 314 313 312 314 315 316 317 317 318 319 318 317 316 322 320 321 311 313 314 313 315 314 312 312
300 297 302 302 300 305 307 305 307 308 308 309 309 308 307 309 314 317 317 315 313 314 315 314 315 314 315 313 313 314 316 315 315 318 314 316 319 313 314 312 311 310 310 309 308
298 298 301 302 300 304 304 306 307 309 310 311 311 310 310 313 314 314 314 313 313 314 313 313 311 313 311 310 311 314 313 312 313 311 314 315 320 314 312 312 311 310 308 307 306
297 297 298 298 300 303 304 305 309 308 310 309 311 310 311 312 311 313 314 313 312 312 312 310 309 310 311 314 312 313 312 311 311 312 315 316 316 311 309 309 309 308 306 306 305
297 300 299 301 303 303 304 306 310 311 309 308 311 311 312 313 312 312 311 310 311 311 310 308 310 303 309 310 311 310 311 312 311 312 312 314 313 310 308 308 307 307 307 307 307
301 300 300 301 301 301 303 307 310 310 309 310 311 311 309 311 311 312 310 311 311 309 309 308 307 310 309 308 308 310 309 310 311 312 312 312 313 309 307 305 307 307 307 307 307
303 303 299 300 300 303 303 306 309 308 309 309 309 310 310 310 307 306 306 306 309 310 309 310 307 307 306 306 309 308 309 310 311 311 311 313 311 307 308 308 307 307 306 306 306

GFSSW_925_thetae_111.txt.gz
Theta_e
310 310 310 311 311 311 312 311 309 310 312 316 319 318 314 312 313 313 312 310 308 312 306 310 308 306 308 306 308 306 309 310 312 314 313 306 307 306 306 307 305 307 307 310 308
310 310 310 310 310 309 310 310 309 310 310 314 318 317 314 312 312 312 311 312 315 312 305 307 305 305 303 305 306 306 307 308 309 308 308 307 308 307 307 306 306 306 306 307 307
311 311 311 311 311 311 309 308 309 308 309 313 318 316 312 311 309 309 309 316 314 310 308 307 306 305 305 306 306 307 308 307 308 308 308 308 307 307 306 307 305 305 305 305 308
310 310 310 311 311 311 310 310 307 307 307 311 318 314 312 309 311 311 313 316 314 307 306 307 305 305 305 305 306 306 306 307 308 306 307 306 305 305 304 305 304 304 304 304 307
307 307 309 310 311 311 311 310 310 307 306 309 316 312 311 310 309 314 316 314 311 307 307 305 306 306 306 306 306 307 306 307 307 307 307 307 307 307 307 305 305 305 304 304 306
308 308 307 308 309 308 309 310 310 309 307 308 314 312 310 312 308 313 314 313 308 307 307 306 305 305 306 306 306 305 306 307 307 308 307 308 307 306 306 305 305 305 305 303 304
307 306 306 306 306 307 307 309 309 308 309 310 312 310 311 310 309 312 314 309 308 307 306 308 307 305 305 306 306 307 307 307 307 308 309 308 309 308 306 305 306 307 306 306 304
306 306 305 304 304 307 307 307 304 309 309 310 311 308 310 309 310 312 310 305 306 307 308 307 307 306 307 305 305 307 306 306 306 309 309 308 309 307 305 305 305 306 307 306 304
304 303 302 304 304 302 306 304 309 312 311 312 308 308 310 308 309 309 306 306 308 307 309 307 306 307 306 306 303 304 302 305 307 308 309 309 309 308 306 305 306 306 305 305 305
305 304 303 304 304 304 305 303 309 310 310 309 307 308 307 308 307 306 306 306 308 308 309 308 307 308 306 307 301 306 305 306 308 307 308 308 309 308 308 309 308 307 304 304 304
305 304 304 304 303 305 304 303 304 305 308 307 309 309 308 307 306 306 306 306 309 309 308 308 305 302 304 304 305 306 309 308 308 308 309 309 309 309 310 310 309 308 304 303 305
302 303 303 305 307 304 304 301 302 303 308 308 308 307 307 307 307 306 306 307 308 307 308 309 306 305 305 305 306 309 310 310 309 309 310 311 312 311 311 310 309 308 305 305 306
303 302 302 304 305 305 306 305 305 306 306 307 308 308 308 307 307 306 306 306 307 307 305 304 304 306 307 308 309 310 312 312 312 311 312 313 312 312 312 311 310 307 306 307 308
305 303 303 304 303 303 304 304 304 306 309 307 309 307 308 307 307 306 306 306 307 306 305 305 305 307 308 308 309 313 310 312 313 316 315 312 315 312 312 312 311 309 307 307 307
303 303 304 305 305 305 305 304 305 305 304 310 309 305 307 308 305 306 305 306 307 306 307 305 308 313 313 312 311 313 313 314 314 316 314 315 317 312 311 313 312 310 307 309 308
304 304 304 304 305 305 305 305 304 299 308 308 307 309 308 308 306 307 307 306 306 307 307 306 307 310 309 311 312 313 314 315 315 317 318 315 318 307 315 316 314 310 310 312 310
303 303 303 303 303 303 303 301 300 304 308 311 308 307 308 308 307 307 307 306 305 302 305 308 309 309 311 313 311 314 318 312 312 315 317 320 321 314 314 311 316 313 315 319 319
303 302 302 302 303 303 303 299 304 309 308 308 309 308 309 309 307 306 304 305 305 308 310 313 307 311 313 313 314 315 316 319 319 315 318 319 320 318 311 318 319 318 318 318 318
302 302 301 302 303 303 301 308 311 309 308 310 309 308 309 309 307 306 305 305 309 308 310 313 312 313 312 313 314 317 320 317 319 318 321 319 317 312 310 316 318 318 317 317 316
302 301 301 302 303 302 305 310 308 308 309 309 309 305 307 307 306 307 308 312 314 313 312 315 314 311 314 313 314 315 315 320 318 322 324 321 319 314 311 311 316 316 316 313 312
301 297 301 303 303 301 307 308 309 307 307 311 310 306 307 311 310 312 314 313 314 315 313 313 313 314 316 316 316 318 319 319 319 316 320 321 320 310 310 310 314 313 313 311 309
298 299 303 303 301 298 303 305 306 307 307 307 308 307 306 311 316 316 316 314 312 313 314 312 315 314 314 313 313 315 317 315 316 318 312 316 318 310 311 310 311 310 310 307 306
297 297 302 303 301 300 302 305 306 308 309 310 311 309 309 312 314 314 313 312 312 313 313 313 310 311 310 309 310 313 313 312 314 312 314 313 319 314 312 311 309 308 307 306 306
296 299 299 298 298 302 302 304 308 307 309 308 309 309 310 311 310 313 312 312 310 312 314 309 308 309 310 313 311 312 310 310 312 311 315 315 314 310 309 309 308 307 305 305 304
296 300 299 299 301 301 302 304 309 309 307 307 310 309 311 312 311 311 310 309 310 309 310 307 309 303 308 308 308 310 309 311 309 311 313 313 312 310 308 308 307 306 306 306 305
300 300 297 299 300 300 301 305 308 308 308 309 310 309 308 311 310 312 309 309 311 308 309 306 307 310 308 306 307 310 309 310 311 312 312 311 312 308 306 305 307 307 307 306 306
302 301 298 298 300 302 303 305 308 306 308 308 308 308 309 309 306 305 305 305 306 309 308 308 306 305 304 306 307 306 310 310 311 310 310 312 310 306 307 307 306 306 306 306 305

GFSSW_925_thetae_114.txt.gz
Theta_e
312 313 311 310 309 309 310 311 311 310 310 311 316 320 317 314 313 313 312 310 308 311 309 308 307 307 307 305 307 305 308 309 310 312 311 306 307 306 305 306 305 305 306 310 306
310 311 312 312 310 311 311 309 310 310 309 310 313 316 316 311 313 312 311 312 314 312 306 306 304 304 303 305 306 305 304 306 307 308 308 307 307 307 307 306 305 305 305 306 307
310 310 311 311 310 311 312 311 311 309 308 307 312 317 314 311 310 309 310 315 317 311 308 306 305 304 305 304 305 306 306 306 307 307 307 306 305 306 306 305 304 305 304 303 305
305 307 307 309 310 311 311 311 311 310 308 306 312 316 312 310 313 310 314 317 312 307 307 306 304 304 304 304 305 305 306 306 306 306 307 307 305 306 304 304 303 303 303 303 303
307 307 306 309 309 310 311 311 311 311 308 307 311 314 309 309 309 314 317 315 308 306 306 305 305 304 304 305 305 306 306 306 306 306 306 306 306 306 306 305 304 304 305 304 303
307 307 307 307 307 308 309 310 309 310 310 308 309 312 310 313 308 315 315 312 307 306 306 305 305 304 305 305 305 305 306 306 306 306 307 307 306 306 305 304 304 305 304 303 303
307 306 305 306 306 307 307 308 309 309 306 309 310 311 311 311 310 312 313 309 307 307 307 306 306 304 304 305 305 306 306 305 306 307 307 307 307 307 305 304 304 305 305 305 304
306 305 304 304 305 306 307 307 306 303 303 308 311 310 311 309 311 311 307 306 307 307 307 307 306 305 306 305 303 305 303 304 305 308 308 307 309 306 304 304 304 305 305 305 305
306 304 304 304 304 302 304 308 307 310 311 310 309 308 310 309 310 308 306 307 307 308 308 307 306 305 305 304 299 302 303 304 306 306 308 308 308 307 305 305 306 306 305 305 306
306 304 304 304 304 304 305 308 309 308 308 307 307 308 307 310 307 305 306 308 308 308 308 306 306 305 306 301 301 306 305 307 307 306 307 308 308 307 307 306 306 306 306 306 305
305 306 306 306 304 303 304 305 306 307 307 305 307 308 309 307 306 306 306 308 308 307 307 307 300 298 303 303 303 307 307 308 308 307 308 308 308 308 308 308 307 307 307 306 306
305 305 306 305 304 305 303 302 303 305 308 308 308 307 307 307 307 306 306 307 308 306 307 305 302 304 303 304 305 307 309 307 307 308 308 309 310 310 310 310 308 308 307 306 305
305 303 304 305 305 303 303 304 305 305 306 307 308 307 307 307 307 306 305 306 306 306 306 303 304 305 306 307 307 307 308 308 310 309 310 311 309 309 310 310 309 307 305 304 304
305 305 304 303 304 304 304 304 305 305 309 307 308 306 307 307 307 305 305 306 307 305 304 304 304 305 307 307 307 309 308 310 312 314 316 312 314 310 310 310 309 308 306 305 306
303 304 304 304 304 305 304 303 305 304 305 309 309 305 307 306 304 305 305 305 306 306 304 304 307 310 312 310 308 311 311 312 313 316 315 314 316 311 312 312 313 311 308 307 306
302 302 303 304 303 303 303 304 303 298 307 307 309 308 307 305 306 306 306 305 305 306 306 304 305 308 307 308 309 310 312 313 313 317 317 313 317 311 316 313 312 312 311 312 313
301 301 302 302 301 303 303 300 300 304 306 307 307 307 306 306 306 306 306 305 303 300 302 306 308 307 308 311 309 312 317 310 308 316 314 319 321 317 314 311 317 318 319 318 317
301 301 301 302 302 303 302 300 305 308 308 307 308 308 307 307 304 304 305 304 304 306 308 309 305 310 311 312 313 315 316 317 315 314 317 318 317 317 312 311 317 318 317 315 315
301 301 301 303 303 303 301 307 307 308 307 308 309 307 308 308 306 305 303 304 306 305 307 311 307 311 312 312 314 316 320 316 319 316 320 319 317 314 310 310 315 315 314 313 311
300 300 301 303 304 302 303 310 307 308 309 308 308 305 307 306 306 306 307 309 313 308 310 313 315 309 313 313 313 314 315 320 318 321 323 321 318 314 310 309 310 313 312 310 309
300 299 304 303 304 301 307 307 308 306 307 310 309 305 306 311 310 311 312 311 313 314 313 313 312 311 315 315 316 318 319 319 319 317 320 320 318 309 308 309 309 311 309 308 307
298 300 304 304 302 296 302 304 305 307 307 307 308 307 307 312 313 315 315 313 311 312 313 312 314 314 313 312 313 314 316 316 315 319 313 315 318 312 310 311 310 309 308 307 306
297 297 304 303 302 298 301 305 305 307 308 309 310 309 309 310 312 313 312 311 311 312 312 312 309 310 309 309 309 312 313 312 312 311 314 315 319 313 312 311 309 308 307 306 305
297 299 298 297 296 301 302 304 308 306 308 307 308 308 309 310 309 311 310 310 310 311 313 310 307 309 309 312 310 312 310 309 312 311 314 314 315 313 310 309 308 307 305 305 304
296 299 299 298 302 300 302 304 308 308 307 306 309 308 309 311 309 309 308 307 309 308 310 306 307 303 306 307 307 309 309 310 308 310 312 312 312 309 308 307 306 306 306 305 305
299 299 296 298 299 301 301 305 308 307 308 309 309 307 307 309 309 310 308 308 309 306 307 305 306 308 308 306 307 309 309 310 311 311 310 310 311 307 306 306 306 306 306 306 305
301 300 297 298 299 302 303 305 307 306 307 308 308 307 308 308 306 304 304 304 305 306 307 306 305 305 305 304 305 307 309 310 310 310 309 311 309 305 305 306 306 305 305 305 304

GFSSW_925_thetae_120.txt.gz
Theta_e
309 310 309 306 313 311 311 311 312 311 311 308 313 319 318 316 316 314 312 310 311 312 309 308 308 308 310 312 312 312 309 311 311 312 313 311 312 311 310 312 311 312 311 312 310
307 307 309 307 312 311 311 310 310 310 309 308 311 315 317 315 315 313 311 312 315 311 307 308 309 308 309 310 311 311 309 310 310 312 311 311 310 310 309 310 310 311 311 311 310
307 305 306 306 305 310 311 310 310 310 309 308 307 315 316 313 311 311 313 315 313 309 307 307 307 308 309 309 310 310 310 308 309 310 309 310 309 308 309 309 310 309 309 308 308
308 307 305 305 305 308 307 310 310 311 308 307 313 314 314 313 317 309 315 316 313 306 307 306 307 308 309 309 308 309 309 309 309 309 309 308 308 308 308 308 308 308 308 308 308
307 307 307 307 304 307 307 307 309 310 309 308 311 315 314 312 313 313 316 316 309 307 307 307 307 307 309 308 308 307 307 308 308 308 308 308 308 308 308 308 308 308 307 308 309
307 307 306 306 306 306 308 306 309 310 309 307 311 313 312 313 311 308 309 307 307 307 307 307 307 306 307 307 307 308 308 308 308 308 308 308 308 307 308 308 308 308 309 309 310
307 306 305 306 306 309 309 308 310 309 310 312 312 311 312 312 311 311 307 307 307 307 306 306 306 307 307 308 307 308 309 308 309 309 309 309 311 310 310 309 309 309 309 310 310
308 306 306 305 306 306 308 309 309 306 309 309 309 310 312 309 310 307 307 307 307 307 307 306 306 308 308 306 306 308 308 310 309 308 310 309 311 310 309 309 310 310 310 310 311
308 306 306 306 306 310 306 306 305 308 310 308 308 309 312 307 307 307 307 308 308 308 307 306 307 307 307 309 309 308 312 311 310 308 309 310 311 310 310 310 311 311 311 311 311
307 305 306 306 308 309 309 309 309 308 307 307 307 309 309 308 306 308 308 308 308 308 308 307 308 309 308 309 313 311 311 309 310 309 309 310 311 310 311 311 312 312 312 312 312
305 305 306 305 306 306 305 306 306 307 307 308 308 309 307 306 307 307 308 307 308 308 310 308 312 314 309 308 308 309 309 310 309 309 309 311 312 312 312 313 313 313 314 314 314
304 305 306 305 305 305 305 305 305 303 306 306 307 307 307 306 307 307 307 308 309 310 308 310 311 306 306 307 308 309 310 310 310 309 310 313 313 314 313 313 313 314 314 314 314
304 304 305 305 305 305 305 305 305 304 305 306 306 307 307 306 307 307 307 307 308 309 307 310 308 306 307 308 309 310 311 311 312 312 313 314 317 313 312 313 314 314 315 315 316
303 303 304 305 306 304 304 304 305 305 311 307 308 305 306 307 307 305 306 307 307 307 306 307 305 306 308 310 310 313 310 311 313 314 319 314 321 316 314 315 315 315 316 317 317
302 303 304 304 305 305 304 304 304 305 313 308 308 305 305 306 306 306 305 307 307 307 307 307 308 310 311 311 310 311 310 311 313 314 315 315 319 318 316 316 314 313 315 316 316
301 302 303 303 303 303 303 303 303 315 311 309 307 307 306 306 306 306 306 305 306 306 307 307 306 308 308 308 309 310 312 315 314 314 318 317 319 322 316 314 313 312 312 312 312
301 301 302 302 304 302 302 304 316 311 306 307 308 307 305 305 305 306 305 304 309 313 313 310 310 308 307 311 311 313 315 320 320 319 322 316 319 320 313 311 311 311 311 310 310
300 301 302 301 302 302 302 309 308 306 307 307 308 308 307 305 304 305 307 310 306 309 312 314 314 311 311 312 314 314 316 319 321 322 321 317 322 323 311 310 309 309 309 309 309
301 301 302 302 303 303 308 312 309 308 308 309 308 307 309 308 307 308 308 309 309 308 313 313 315 311 312 312 313 317 319 316 318 318 320 321 320 315 312 311 310 310 310 309 308
301 301 303 304 304 307 311 310 311 309 308 308 308 307 309 308 308 309 311 310 311 310 309 313 315 311 312 313 313 315 315 322 320 323 323 321 319 319 313 313 311 311 310 309 308
301 308 304 304 304 310 312 311 310 308 308 311 308 310 312 314 311 312 312 312 312 313 310 314 314 314 314 317 319 318 319 317 318 321 321 320 321 315 314 313 312 311 310 308 308
303 315 304 305 314 308 312 308 306 309 308 309 310 309 313 312 313 315 315 313 312 313 315 314 315 317 317 313 314 316 317 316 319 322 319 318 321 314 313 312 311 311 309 308 307
307 307 304 305 316 312 306 307 307 310 309 310 311 310 309 313 314 314 314 312 312 314 315 313 315 317 314 313 312 315 315 315 314 315 319 320 321 315 313 312 311 311 309 308 307
305 315 310 306 303 309 310 310 311 308 309 309 310 310 311 312 311 313 312 311 311 313 312 312 314 314 317 315 313 314 312 312 314 318 319 317 318 316 315 313 312 310 309 308 306
303 306 302 313 308 307 307 309 311 311 309 308 310 310 311 312 311 311 311 310 310 309 312 313 315 311 311 311 312 312 311 311 313 316 318 316 317 316 315 313 312 310 309 308 307
307 306 301 304 303 307 306 310 310 310 310 311 311 310 310 311 311 311 311 311 311 309 310 308 315 311 312 309 311 311 310 311 313 313 314 314 315 314 313 312 311 310 309 309 308
299 298 303 302 305 307 308 309 309 308 309 309 309 310 310 310 309 309 308 309 309 310 310 310 312 313 315 308 309 311 310 310 314 313 314 316 315 312 311 311 311 311 310 309 308

GFSSW_925_thetae_123.txt.gz
Theta_e
310 308 308 309 308 308 314 310 313 312 310 308 313 317 320 318 315 315 313 312 314 312 309 310 310 310 312 314 315 314 313 315 314 315 316 313 314 313 313 313 314 313 313 314 313
309 308 308 309 306 309 313 311 312 311 311 305 314 319 319 317 316 314 312 313 315 309 309 310 311 310 311 313 313 312 312 314 313 315 314 313 312 312 311 312 312 312 313 312 312
309 308 308 307 307 306 313 312 311 311 308 309 311 317 317 316 314 313 314 317 314 309 309 309 309 310 311 311 311 311 314 311 311 312 312 312 311 311 311 311 312 312 312 311 310
309 308 307 304 305 306 311 311 311 310 309 311 311 318 314 312 319 312 316 317 311 309 308 308 309 310 311 311 310 311 311 311 312 310 310 310 310 310 310 311 310 310 310 310 310
307 307 307 306 305 305 307 309 311 309 309 310 314 314 313 314 314 313 316 316 308 307 308 309 309 310 311 311 310 309 310 309 309 309 309 309 309 310 310 310 310 310 310 310 310
307 306 307 307 306 307 306 310 311 310 308 310 314 314 312 314 311 310 313 311 308 308 308 308 309 309 310 310 310 309 309 309 309 310 309 309 310 308 311 310 310 310 310 311 311
307 306 306 307 306 308 307 310 311 312 312 312 312 312 311 313 310 307 308 308 308 308 308 307 307 309 309 309 309 309 310 310 310 311 311 310 312 311 311 311 311 311 311 311 312
307 306 307 308 307 308 309 310 306 310 311 311 310 311 312 309 307 307 308 308 307 307 307 307 308 309 310 309 309 311 310 313 312 311 311 310 312 312 311 311 311 311 311 311 312
308 307 306 308 306 308 309 306 310 309 309 309 310 309 311 307 308 308 308 308 308 308 307 307 308 309 309 311 312 311 316 315 313 310 310 312 312 312 311 311 311 311 312 313 313
307 307 307 308 308 308 309 308 308 308 309 307 308 310 308 308 308 309 308 308 308 308 308 308 309 310 309 313 317 313 313 312 311 312 310 311 311 311 312 312 313 313 314 314 315
307 306 306 306 306 306 307 308 308 307 308 310 308 308 308 307 307 308 307 308 308 309 312 309 315 319 311 310 310 310 310 311 311 310 310 312 313 313 313 314 314 314 315 315 316
305 306 306 305 305 306 307 307 306 306 307 306 306 307 307 307 307 307 308 309 310 312 309 312 314 309 308 309 310 310 310 311 311 311 312 314 315 315 314 314 314 315 316 317 317
306 305 305 306 306 306 306 306 306 306 307 307 306 307 307 307 308 308 308 309 309 309 309 314 310 308 308 309 310 311 310 312 313 313 314 316 318 316 315 315 315 316 316 317 318
303 304 305 306 308 307 307 305 305 307 313 309 308 306 306 308 308 307 307 308 308 308 308 309 308 308 309 310 310 313 311 312 314 316 319 315 320 317 317 317 315 314 314 313 312
302 303 304 305 308 308 306 304 305 308 315 309 308 306 307 308 307 307 306 308 308 307 310 310 309 311 312 312 311 313 311 312 314 315 317 317 319 319 317 317 315 312 312 311 311
301 302 303 306 306 306 304 304 306 316 312 310 308 307 307 306 306 307 306 306 307 307 307 309 307 309 310 308 310 311 314 316 315 315 319 318 319 323 317 315 313 311 310 310 310
301 302 303 304 308 303 304 307 317 313 306 308 306 305 304 305 305 306 307 308 312 317 314 312 311 309 309 312 313 314 317 322 322 322 322 318 320 323 316 313 311 310 310 309 309
301 302 303 303 303 304 306 310 312 307 307 307 308 307 307 307 307 308 310 312 309 311 314 317 317 313 312 314 315 314 316 321 321 323 323 318 321 323 314 312 311 310 310 309 309
302 304 306 304 303 305 310 314 310 308 308 308 309 308 310 309 309 310 311 312 312 312 315 316 317 312 312 313 314 318 319 317 319 318 320 322 321 317 313 313 312 311 311 310 310
306 307 307 304 305 308 313 311 311 310 309 310 309 309 310 310 310 311 312 312 313 312 311 314 318 313 314 314 314 316 316 321 320 322 326 325 323 326 314 314 313 311 311 310 310
308 311 308 305 308 314 314 313 312 310 310 312 311 312 313 314 313 314 314 313 312 313 312 314 315 316 314 318 320 318 318 318 318 319 325 322 326 316 314 314 313 312 311 310 309
309 315 307 308 317 315 316 313 308 311 310 312 312 312 314 313 314 315 316 314 312 314 316 315 315 318 318 315 315 317 318 318 323 325 321 320 324 316 315 314 312 312 311 309 308
311 311 309 309 319 316 310 311 311 312 312 313 313 312 312 314 316 315 315 313 313 314 314 314 316 319 319 314 313 316 317 316 316 316 319 322 326 316 315 315 313 312 311 309 308
309 318 315 311 310 314 314 313 313 310 311 311 312 312 313 314 313 314 314 313 313 314 313 313 314 316 320 316 314 316 314 315 316 318 320 320 319 317 316 316 314 312 311 310 308
308 310 307 316 311 311 312 312 313 313 311 311 312 313 313 313 313 312 312 312 311 312 312 314 316 316 314 313 312 313 313 314 315 315 319 320 317 316 316 316 314 312 311 310 309
310 309 306 308 307 311 309 313 313 312 312 312 313 312 312 312 311 311 312 312 311 312 312 313 315 313 314 312 311 313 313 313 313 312 315 315 316 315 315 315 313 312 311 311 310
303 303 307 306 309 310 311 311 312 311 312 311 311 311 312 311 311 311 311 311 311 312 312 312 313 314 315 311 311 311 310 311 311 312 314 317 316 315 315 314 313 312 312 311 310

GFSSW_925_thetae_126.txt.gz
Theta_e
310 309 308 308 308 308 310 311 313 314 313 313 317 320 320 319 315 311 315 314 314 309 310 310 310 312 315 316 317 315 315 315 315 315 315 313 313 313 312 312 312 313 312 313 313
310 309 309 306 307 309 310 313 312 311 309 313 315 317 320 318 315 315 313 315 315 309 311 310 310 311 311 314 314 313 313 315 313 313 314 313 312 312 311 311 311 311 312 312 312
308 308 307 306 307 308 314 314 312 311 311 310 315 318 319 316 316 314 316 317 313 309 311 310 310 311 312 312 311 312 315 311 312 313 312 312 311 311 310 310 310 310 309 309 310
308 308 306 306 307 310 312 312 311 310 311 310 317 317 316 315 319 313 317 316 309 309 309 309 310 311 312 311 311 312 311 312 312 311 311 310 309 309 309 309 309 308 309 309 308
308 308 307 307 307 311 311 311 310 310 312 314 315 315 313 314 314 312 317 314 308 308 309 310 310 311 311 311 310 309 311 310 310 309 309 309 308 308 308 308 308 309 309 308 308
307 308 308 305 308 310 312 312 311 309 312 314 311 311 312 314 310 309 315 311 308 308 308 309 310 310 310 311 311 310 310 310 310 310 310 310 310 310 309 309 310 310 309 308 309
308 307 308 306 308 311 311 312 313 311 313 313 309 309 310 311 308 309 309 308 308 309 309 308 308 310 310 310 309 309 310 311 311 311 311 310 311 310 308 310 310 310 309 310 310
309 309 309 306 309 310 311 311 311 312 312 312 310 309 311 307 307 308 309 308 307 308 308 308 309 310 312 309 309 311 309 313 312 312 312 310 310 311 310 311 309 309 309 309 309
309 309 309 309 308 308 308 309 309 310 310 309 308 308 310 307 309 309 309 308 308 307 307 308 309 309 309 311 311 311 315 315 314 311 311 311 312 311 310 309 309 308 309 310 311
308 306 308 309 308 308 308 308 307 308 309 309 308 308 307 308 309 309 308 308 308 309 310 309 310 310 310 313 317 313 312 312 312 313 310 311 311 310 310 311 309 309 310 311 313
307 306 306 306 306 307 309 309 307 306 306 309 308 308 308 307 308 308 308 308 309 310 311 310 317 316 309 309 310 310 310 311 311 311 310 310 311 312 312 312 312 312 312 313 314
305 305 306 306 306 307 307 307 307 305 307 306 307 308 307 307 308 308 309 310 311 312 309 313 313 309 309 309 310 310 310 310 311 311 312 312 314 313 313 314 314 313 313 313 313
304 305 306 306 307 307 307 307 307 307 308 308 306 307 307 308 308 308 309 310 310 310 312 315 310 308 309 309 310 310 310 312 312 313 313 313 316 316 314 314 314 312 311 311 310
304 305 305 306 308 309 307 307 307 308 312 309 308 306 308 308 308 307 307 308 308 308 310 310 308 308 309 310 310 313 311 311 314 314 314 312 311 315 316 316 315 310 308 310 309
304 304 305 308 309 308 306 305 306 308 313 309 308 306 308 308 307 307 306 309 309 307 310 310 308 309 312 312 311 313 311 312 313 315 315 316 311 315 317 318 313 309 309 309 309
303 303 304 308 307 306 306 306 307 314 310 307 307 307 307 306 306 306 307 306 307 307 308 309 308 309 310 308 309 310 313 314 315 314 313 316 314 314 315 315 312 309 309 310 309
302 302 303 304 308 306 304 308 314 310 306 308 307 305 305 305 305 307 309 309 312 315 314 311 311 309 309 311 312 314 315 317 314 320 315 318 315 314 316 312 311 311 311 310 309
302 305 305 304 304 304 307 312 308 307 307 306 307 307 307 308 308 309 311 312 310 311 314 316 312 312 312 313 315 314 315 317 316 319 317 317 315 315 314 311 310 310 309 310 310
304 307 307 306 304 306 310 311 311 308 307 307 309 309 310 309 309 311 311 312 312 312 314 315 316 311 313 313 314 318 319 316 313 314 318 315 317 317 314 313 312 310 311 310 308
308 308 308 305 305 307 312 311 311 309 309 310 310 309 310 310 311 311 312 311 313 313 310 313 315 313 314 314 314 316 315 318 317 317 320 321 319 317 312 313 313 311 311 309 308
310 313 308 305 308 315 314 313 311 310 310 313 312 312 313 314 313 314 314 312 312 313 311 313 314 315 314 316 318 316 316 316 316 317 322 321 318 314 310 312 314 313 310 309 308
311 319 309 310 317 316 317 313 309 311 311 312 312 313 314 313 314 314 315 314 312 314 315 314 314 315 317 315 315 316 317 316 319 323 321 321 318 315 314 314 313 311 311 309 308
312 311 311 311 321 316 311 311 312 312 313 313 314 313 312 315 316 315 315 314 313 314 315 314 315 313 317 313 313 314 315 316 316 316 316 320 317 315 314 313 313 311 310 309 308
311 318 314 312 311 314 314 314 313 311 312 312 313 312 313 314 313 315 314 314 313 314 313 313 313 314 314 316 314 315 315 315 317 318 316 317 316 316 314 313 313 311 310 308 307
309 311 308 320 312 311 312 313 314 314 311 311 313 313 313 314 312 312 311 312 312 314 312 313 312 310 313 314 313 312 312 312 314 314 315 316 316 314 313 313 312 310 309 309 308
311 309 306 308 309 311 310 313 313 313 312 313 313 312 311 312 311 311 312 311 311 310 311 312 312 311 312 312 312 310 311 311 312 312 313 313 313 311 311 311 312 310 309 309 308
305 304 306 308 309 310 311 311 312 312 312 312 311 311 311 311 309 309 309 309 309 311 310 311 311 310 311 311 310 308 309 309 310 311 312 312 311 311 312 313 311 310 309 308 308

GFSSW_925_thetae_129.txt.gz
Theta_e
309 309 309 308 308 308 310 310 311 309 314 315 317 320 321 319 314 312 313 315 315 311 310 310 310 310 315 314 314 312 309 311 312 314 313 311 312 311 310 310 310 310 311 313 313
309 309 307 307 308 308 311 310 314 316 315 314 316 319 321 318 311 314 315 317 314 310 311 310 309 311 309 313 310 308 308 312 311 311 311 311 310 310 309 307 309 310 310 309 309
308 308 307 307 311 311 313 313 312 311 312 315 316 320 319 315 315 315 319 316 312 310 311 310 310 309 310 310 310 310 312 310 313 312 310 310 309 308 309 309 307 308 307 307 308
308 307 307 311 312 312 313 312 311 311 310 315 316 319 317 315 320 312 315 317 309 308 308 309 309 309 309 309 309 309 311 311 312 310 310 309 307 307 307 307 307 306 307 308 307
309 308 310 312 312 312 311 311 312 314 314 316 316 316 314 313 314 312 317 314 308 308 309 308 308 309 309 308 308 308 310 310 310 309 308 308 307 307 306 305 305 306 307 306 306
310 310 311 311 312 313 313 310 314 314 314 314 313 312 311 313 309 310 314 309 308 308 308 308 308 308 308 308 309 308 309 309 309 309 309 309 308 308 307 305 306 307 307 306 306
310 309 308 311 312 312 312 313 314 313 312 310 310 310 309 310 309 308 308 308 308 308 308 308 308 308 308 309 308 308 309 309 309 309 310 308 308 309 307 306 307 307 307 307 307
310 310 310 310 310 310 311 311 311 312 311 310 309 307 309 308 308 308 307 307 308 308 308 308 309 308 308 307 308 309 307 310 310 310 310 308 304 309 307 308 307 307 307 307 306
309 309 309 310 308 308 308 309 310 309 310 310 309 307 309 308 309 309 308 307 307 307 307 308 308 307 308 307 306 308 310 311 312 310 311 309 307 309 308 307 306 306 306 306 310
307 307 308 308 308 308 309 307 307 308 308 308 308 308 307 308 308 308 308 308 308 308 308 307 307 307 306 308 310 310 309 312 312 311 309 309 309 309 308 308 306 305 309 311 313
305 305 306 305 307 307 307 307 306 307 307 309 308 308 308 307 307 308 308 308 308 308 307 308 306 304 307 308 308 309 309 309 309 310 309 308 308 309 309 309 311 311 309 310 310
305 307 307 307 307 306 306 306 305 306 308 307 307 308 308 307 309 308 308 309 310 309 308 307 307 308 308 308 309 308 308 308 310 312 312 311 312 311 311 311 311 310 308 308 308
305 306 306 307 308 306 306 307 306 307 307 308 307 307 307 308 308 308 308 308 307 309 309 307 308 308 308 308 309 309 310 310 311 311 311 311 308 314 312 312 310 307 307 307 308
305 305 305 308 308 308 306 305 306 308 304 308 308 307 308 308 307 306 306 307 306 307 308 307 308 307 308 310 309 312 310 311 313 310 309 310 307 310 313 313 309 305 305 306 306
304 304 304 307 307 307 305 305 305 307 305 306 309 307 308 308 306 306 306 307 307 308 308 308 307 308 311 311 310 312 310 310 311 312 307 310 305 310 314 316 313 307 307 306 307
303 303 303 307 306 306 305 305 306 302 307 304 308 307 306 306 306 306 306 304 306 307 307 307 307 308 308 308 308 309 312 312 313 313 308 310 308 309 311 315 311 308 307 308 307
302 305 304 305 306 306 304 306 302 304 305 305 306 304 304 304 306 307 308 307 309 306 311 309 308 308 308 310 310 312 311 309 317 318 311 315 309 311 312 311 310 309 308 307 306
302 307 306 305 304 304 307 300 300 304 306 305 306 306 307 307 307 308 309 309 309 309 309 307 306 310 310 311 314 313 313 314 310 312 309 313 311 311 313 310 309 308 307 308 308
304 307 307 306 304 306 301 302 301 306 306 307 308 308 309 308 308 309 310 310 311 310 310 312 311 311 311 312 313 317 318 315 306 307 317 308 309 313 312 311 310 309 309 308 307
307 308 308 306 306 307 302 307 308 308 308 309 309 308 309 309 309 309 310 310 312 311 309 312 312 312 313 313 313 316 315 316 314 314 318 313 311 313 311 312 311 310 310 308 307
308 307 309 306 310 305 305 306 310 309 309 311 312 311 312 312 312 313 313 311 312 311 310 312 312 314 313 315 315 314 314 314 314 313 315 316 313 311 311 310 311 311 311 309 307
308 306 309 309 308 305 305 311 309 310 309 311 311 311 312 312 312 313 314 313 311 312 315 314 313 311 313 314 313 312 313 314 310 320 317 318 316 316 312 310 311 312 310 309 306
304 304 311 310 308 306 309 310 310 311 312 312 313 312 311 313 315 314 314 312 312 313 313 312 310 306 311 310 312 312 314 315 314 314 316 313 312 314 312 312 311 310 308 307 306
304 306 304 304 305 308 311 312 312 310 311 311 311 311 312 313 312 313 313 312 311 312 313 312 311 310 311 314 312 313 314 314 313 312 312 313 313 312 312 312 310 310 309 308 306
302 306 305 307 307 309 310 311 313 313 310 310 311 311 312 312 311 312 310 312 311 313 312 311 310 306 309 311 312 312 312 312 312 313 313 313 312 311 310 309 310 309 309 307 306
307 305 301 304 306 309 309 310 312 311 311 311 311 311 310 311 310 310 310 310 309 310 310 310 309 311 309 309 309 310 310 311 311 311 313 313 313 311 310 307 307 308 309 307 306
305 303 303 305 305 306 307 309 310 310 310 310 310 310 310 309 308 308 307 306 307 308 308 309 307 306 308 308 307 307 307 308 309 309 310 311 311 309 308 307 309 309 307 307 306